Time,TemperatureF,DewpointF,PressureIn,WindDirection,WindDirectionDegrees,WindSpeedMPH,WindSpeedGustMPH,Humidity,HourlyPrecipIn,Conditions,Clouds,dailyrainin,SoftwareType,DateUTC
2013-02-10 00:00:00,49.6,48.8,28.64,SSW,194,8.7,11.6,97,0.00,,---,0.00,VWS V14.01,2013-02-10 05:00:00,
2013-02-10 00:01:00,49.6,48.8,28.64,SSE,162,8.7,9.2,97,0.00,,---,0.00,VWS V14.01,2013-02-10 05:01:00,
2013-02-10 00:02:00,49.6,48.8,28.64,WSW,240,3.6,8.7,97,0.00,,---,0.00,VWS V14.01,2013-02-10 05:02:00,
2013-02-10 00:03:00,49.6,48.8,28.64,WSW,239,5.4,10.1,97,0.00,,---,0.00,VWS V14.01,2013-02-10 05:03:00,
2013-02-10 00:04:00,49.6,48.8,28.64,SW,220,9.6,12.1,97,0.00,,---,0.00,VWS V14.01,2013-02-10 05:04:00,
2013-02-10 00:05:00,49.6,48.8,28.64,SSW,202,6.3,10.5,97,0.00,,---,0.00,VWS V14.01,2013-02-10 05:05:00,
2013-02-10 00:06:00,49.6,48.8,28.64,South,179,8.7,8.7,97,0.00,,---,0.00,VWS V14.01,2013-02-10 05:06:00,
2013-02-10 00:07:00,49.6,48.8,28.64,WSW,247,5.4,14.3,97,0.00,,---,0.00,VWS V14.01,2013-02-10 05:07:00,
2013-02-10 00:08:00,49.6,48.8,28.64,SSW,209,10.1,10.5,97,0.00,,---,0.00,VWS V14.01,2013-02-10 05:08:00,
2013-02-10 00:09:00,49.6,48.8,28.64,WSW,239,5.4,10.1,97,0.00,,---,0.00,VWS V14.01,2013-02-10 05:09:00,
2013-02-10 00:10:00,49.6,48.8,28.64,WSW,245,4.0,7.8,97,0.00,,---,0.00,VWS V14.01,2013-02-10 05:10:00,
2013-02-10 00:11:00,49.6,48.8,28.64,WSW,243,5.8,8.7,97,0.00,,---,0.00,VWS V14.01,2013-02-10 05:11:00,
2013-02-10 00:12:00,49.6,48.8,28.64,SSW,209,5.8,9.6,97,0.00,,---,0.00,VWS V14.01,2013-02-10 05:12:00,
2013-02-10 00:13:00,49.6,48.8,28.64,SW,231,7.4,9.2,97,0.00,,---,0.00,VWS V14.01,2013-02-10 05:13:00,
2013-02-10 00:14:00,49.6,48.8,28.64,SW,219,6.7,11.2,97,0.00,,---,0.00,VWS V14.01,2013-02-10 05:14:00,
2013-02-10 00:15:00,49.6,48.8,28.64,SSW,213,6.9,10.1,97,0.00,,---,0.00,VWS V14.01,2013-02-10 05:15:00,
2013-02-10 00:16:00,49.6,48.8,28.64,SW,216,6.9,8.3,97,0.00,,---,0.00,VWS V14.01,2013-02-10 05:16:00,
2013-02-10 00:17:00,49.6,48.8,28.64,NNE,19,4.5,8.3,97,0.00,,---,0.00,VWS V14.01,2013-02-10 05:17:00,
2013-02-10 00:18:00,49.6,48.8,28.64,South,187,5.8,10.5,97,0.00,,---,0.00,VWS V14.01,2013-02-10 05:18:00,
2013-02-10 00:19:00,49.6,48.8,28.64,South,182,6.3,11.0,97,0.00,,---,0.00,VWS V14.01,2013-02-10 05:19:00,
2013-02-10 00:20:00,49.6,48.8,28.64,SSW,201,6.7,11.6,97,0.00,,---,0.00,VWS V14.01,2013-02-10 05:20:00,
2013-02-10 00:21:00,49.8,49.0,28.64,SSW,202,6.3,9.6,97,0.00,,---,0.00,VWS V14.01,2013-02-10 05:21:00,
2013-02-10 00:22:00,49.6,48.8,28.64,West,259,4.9,8.3,97,0.00,,---,0.00,VWS V14.01,2013-02-10 05:22:00,
2013-02-10 00:23:00,49.6,48.8,28.64,SW,225,5.4,6.9,97,0.00,,---,0.00,VWS V14.01,2013-02-10 05:23:00,
2013-02-10 00:24:00,49.6,48.8,28.64,SW,234,6.3,6.3,97,0.00,,---,0.00,VWS V14.01,2013-02-10 05:24:00,
2013-02-10 00:25:00,49.6,48.8,28.64,SW,226,8.3,11.0,97,0.00,,---,0.00,VWS V14.01,2013-02-10 05:25:00,
2013-02-10 00:26:00,49.6,48.8,28.64,WSW,242,5.8,8.3,97,0.00,,---,0.00,VWS V14.01,2013-02-10 05:26:00,
2013-02-10 00:27:00,49.6,48.8,28.64,SW,233,4.9,13.4,97,0.00,,---,0.00,VWS V14.01,2013-02-10 05:27:00,
2013-02-10 00:28:00,49.6,48.8,28.64,SSW,197,5.8,6.9,97,0.00,,---,0.00,VWS V14.01,2013-02-10 05:28:00,
2013-02-10 00:29:00,49.6,48.8,28.64,SSW,196,6.7,10.5,97,0.00,,---,0.00,VWS V14.01,2013-02-10 05:29:00,
2013-02-10 00:30:00,49.6,48.8,28.64,SSW,212,7.8,12.1,97,0.00,,---,0.00,VWS V14.01,2013-02-10 05:30:00,
2013-02-10 00:31:00,49.6,48.8,28.64,South,180,5.8,8.7,97,0.00,,---,0.00,VWS V14.01,2013-02-10 05:31:00,
2013-02-10 00:32:00,49.6,48.8,28.64,SSW,200,4.9,6.3,97,0.00,,---,0.00,VWS V14.01,2013-02-10 05:32:00,
2013-02-10 00:33:00,49.6,48.8,28.64,SE,145,5.8,7.4,97,0.00,,---,0.00,VWS V14.01,2013-02-10 05:33:00,
2013-02-10 00:34:00,49.6,48.8,28.64,SSE,162,8.7,9.6,97,0.00,,---,0.00,VWS V14.01,2013-02-10 05:34:00,
2013-02-10 00:35:00,49.6,48.8,28.64,South,189,6.7,9.6,97,0.00,,---,0.00,VWS V14.01,2013-02-10 05:35:00,
2013-02-10 00:36:00,49.6,48.8,28.64,SW,231,6.7,11.2,97,0.00,,---,0.00,VWS V14.01,2013-02-10 05:36:00,
2013-02-10 00:37:00,49.8,49.0,28.64,SW,236,6.9,11.2,97,0.00,,---,0.00,VWS V14.01,2013-02-10 05:37:00,
2013-02-10 00:38:00,49.6,48.8,28.64,SSE,163,4.0,6.9,97,0.00,,---,0.00,VWS V14.01,2013-02-10 05:38:00,
2013-02-10 00:39:00,49.8,49.0,28.64,West,281,6.7,11.2,97,0.00,,---,0.00,VWS V14.01,2013-02-10 05:39:00,
2013-02-10 00:40:00,49.6,48.8,28.64,SSE,155,6.7,8.3,97,0.00,,---,0.00,VWS V14.01,2013-02-10 05:40:00,
2013-02-10 00:41:00,49.6,48.8,28.64,South,184,5.8,6.9,97,0.00,,---,0.00,VWS V14.01,2013-02-10 05:41:00,
2013-02-10 00:42:00,49.8,49.0,28.64,SW,220,8.7,11.6,97,0.00,,---,0.00,VWS V14.01,2013-02-10 05:42:00,
2013-02-10 00:43:00,49.8,49.0,28.64,SW,222,7.4,8.7,97,0.00,,---,0.00,VWS V14.01,2013-02-10 05:43:00,
2013-02-10 00:45:00,49.8,49.0,28.64,South,172,8.7,11.6,97,0.00,,---,0.00,VWS V14.01,2013-02-10 05:45:00,
2013-02-10 00:46:00,49.8,49.0,28.64,South,187,4.9,8.7,97,0.00,,---,0.00,VWS V14.01,2013-02-10 05:46:00,
2013-02-10 00:47:00,49.8,49.0,28.64,SW,217,3.6,7.8,97,0.00,,---,0.00,VWS V14.01,2013-02-10 05:47:00,
2013-02-10 00:48:00,49.8,49.0,28.64,SW,218,6.3,10.1,97,0.00,,---,0.00,VWS V14.01,2013-02-10 05:48:00,
2013-02-10 00:49:00,49.8,49.0,28.64,SW,232,3.6,8.3,97,0.00,,---,0.00,VWS V14.01,2013-02-10 05:49:00,
2013-02-10 00:51:00,49.8,49.0,28.64,SSW,203,6.7,11.0,97,0.00,,---,0.00,VWS V14.01,2013-02-10 05:51:00,
2013-02-10 00:52:00,49.8,49.0,28.64,SSW,209,5.8,8.7,97,0.00,,---,0.00,VWS V14.01,2013-02-10 05:52:00,
2013-02-10 00:53:00,49.8,49.0,28.64,SSW,211,6.3,8.3,97,0.00,,---,0.00,VWS V14.01,2013-02-10 05:53:00,
2013-02-10 00:54:00,49.8,49.0,28.64,SW,217,5.8,9.2,97,0.00,,---,0.00,VWS V14.01,2013-02-10 05:54:00,
2013-02-10 00:55:00,49.8,49.0,28.64,SSE,153,3.1,6.7,97,0.00,,---,0.00,VWS V14.01,2013-02-10 05:55:00,
2013-02-10 00:56:00,49.8,49.0,28.64,SW,234,4.9,8.3,97,0.00,,---,0.00,VWS V14.01,2013-02-10 05:56:00,
2013-02-10 00:57:00,49.8,49.0,28.64,SSW,201,6.3,9.2,97,0.00,,---,0.00,VWS V14.01,2013-02-10 05:57:00,
2013-02-10 00:58:00,49.8,49.0,28.64,WSW,246,4.9,7.4,97,0.00,,---,0.00,VWS V14.01,2013-02-10 05:58:00,
2013-02-10 00:59:00,49.8,49.0,28.64,South,173,10.1,10.1,97,0.00,,---,0.00,VWS V14.01,2013-02-10 05:59:00,
2013-02-10 01:00:00,50.0,49.2,28.64,SSW,192,6.9,10.1,97,0.00,,---,0.00,VWS V14.01,2013-02-10 06:00:00,
2013-02-10 01:01:00,50.0,49.2,28.64,SSW,203,5.8,7.8,97,0.00,,---,0.00,VWS V14.01,2013-02-10 06:01:00,
2013-02-10 01:02:00,50.0,49.2,28.64,SW,231,10.1,11.0,97,0.00,,---,0.00,VWS V14.01,2013-02-10 06:02:00,
2013-02-10 01:03:00,50.0,49.2,28.64,SW,221,6.7,11.0,97,0.00,,---,0.00,VWS V14.01,2013-02-10 06:03:00,
2013-02-10 01:04:00,50.0,49.2,28.64,SSE,156,6.7,9.2,97,0.00,,---,0.00,VWS V14.01,2013-02-10 06:04:00,
2013-02-10 01:05:00,50.0,49.2,28.64,SW,230,9.2,12.1,97,0.00,,---,0.00,VWS V14.01,2013-02-10 06:05:00,
2013-02-10 01:06:00,50.0,49.2,28.64,SSW,213,7.4,11.0,97,0.00,,---,0.00,VWS V14.01,2013-02-10 06:06:00,
2013-02-10 01:07:00,50.0,49.2,28.64,SSW,213,4.9,7.4,97,0.00,,---,0.00,VWS V14.01,2013-02-10 06:07:00,
2013-02-10 01:08:00,50.0,49.2,28.64,SW,229,10.1,10.1,97,0.00,,---,0.00,VWS V14.01,2013-02-10 06:08:00,
2013-02-10 01:09:00,50.2,49.4,28.64,SSW,207,9.2,11.2,97,0.00,,---,0.00,VWS V14.01,2013-02-10 06:09:00,
2013-02-10 01:10:00,50.2,49.4,28.64,SW,218,9.6,10.5,97,0.00,,---,0.00,VWS V14.01,2013-02-10 06:10:00,
2013-02-10 01:11:00,31.1,18.5,29.12,SE,129,4.9,6.7,59,0.00,,---,0.00,VWS V14.01,2013-02-10 06:11:00,
2013-02-10 01:12:00,50.2,49.1,28.64,SW,223,11.2,11.2,96,0.00,,---,0.00,VWS V14.01,2013-02-10 06:12:00,
2013-02-10 01:13:00,50.2,49.1,28.64,SW,215,6.9,15.2,96,0.00,,---,0.00,VWS V14.01,2013-02-10 06:13:00,
2013-02-10 01:14:00,50.2,49.1,28.64,SSW,210,8.3,11.2,96,0.00,,---,0.00,VWS V14.01,2013-02-10 06:14:00,
2013-02-10 01:15:00,50.2,49.1,28.64,West,264,6.3,8.7,96,0.00,,---,0.00,VWS V14.01,2013-02-10 06:15:00,
2013-02-10 01:16:00,50.2,49.1,28.64,SSW,206,9.6,10.1,96,0.00,,---,0.00,VWS V14.01,2013-02-10 06:16:00,
2013-02-10 01:17:00,50.2,49.1,28.64,SSW,212,6.3,12.5,96,0.00,,---,0.00,VWS V14.01,2013-02-10 06:17:00,
2013-02-10 01:18:00,50.2,49.1,28.64,SW,233,7.4,7.4,96,0.00,,---,0.00,VWS V14.01,2013-02-10 06:18:00,
2013-02-10 01:19:00,31.3,17.4,29.09,SE,130,5.8,6.7,56,0.00,,---,0.00,VWS V14.01,2013-02-10 06:19:00,
2013-02-10 01:20:00,50.2,48.8,28.64,WSW,237,6.9,12.5,95,0.00,,---,0.00,VWS V14.01,2013-02-10 06:20:00,
2013-02-10 01:21:00,50.2,48.8,28.64,SW,230,9.2,13.0,95,0.00,,---,0.00,VWS V14.01,2013-02-10 06:21:00,
2013-02-10 01:22:00,50.2,48.8,28.64,SSW,203,7.4,10.5,95,0.00,,---,0.00,VWS V14.01,2013-02-10 06:22:00,
2013-02-10 01:23:00,50.2,48.8,28.64,South,191,5.8,8.7,95,0.00,,---,0.00,VWS V14.01,2013-02-10 06:23:00,
2013-02-10 01:24:00,31.3,17.4,29.09,SE,137,7.8,8.3,56,0.00,,---,0.00,VWS V14.01,2013-02-10 06:24:00,
2013-02-10 01:25:00,50.2,48.8,28.64,South,172,6.9,8.7,95,0.00,,---,0.00,VWS V14.01,2013-02-10 06:25:00,
2013-02-10 01:26:00,50.2,48.8,28.64,WSW,253,7.4,9.2,95,0.00,,---,0.00,VWS V14.01,2013-02-10 06:26:00,
2013-02-10 01:27:00,50.2,48.8,28.64,SW,233,6.3,8.7,95,0.00,,---,0.00,VWS V14.01,2013-02-10 06:27:00,
2013-02-10 01:28:00,50.2,48.8,28.64,WSW,243,6.3,9.2,95,0.00,,---,0.00,VWS V14.01,2013-02-10 06:28:00,
2013-02-10 01:29:00,31.3,17.0,29.09,SSE,152,4.5,5.8,55,0.00,,---,0.00,VWS V14.01,2013-02-10 06:29:00,
2013-02-10 01:30:00,50.2,48.5,28.64,SSW,210,6.7,14.3,94,0.00,,---,0.00,VWS V14.01,2013-02-10 06:30:00,
2013-02-10 01:31:00,50.2,48.5,28.64,WSW,237,6.9,7.4,94,0.00,,---,0.00,VWS V14.01,2013-02-10 06:31:00,
2013-02-10 01:32:00,50.2,48.5,28.64,South,190,9.6,13.0,94,0.00,,---,0.00,VWS V14.01,2013-02-10 06:32:00,
2013-02-10 01:33:00,50.2,48.5,28.64,SSW,208,8.3,10.1,94,0.00,,---,0.00,VWS V14.01,2013-02-10 06:33:00,
2013-02-10 01:34:00,50.2,48.5,28.64,SSW,210,7.8,10.1,94,0.00,,---,0.00,VWS V14.01,2013-02-10 06:34:00,
2013-02-10 01:35:00,31.5,17.2,29.09,ESE,121,4.9,7.8,55,0.00,,---,0.00,VWS V14.01,2013-02-10 06:35:00,
2013-02-10 01:36:00,50.2,48.5,28.64,SW,215,5.8,10.1,94,0.00,,---,0.00,VWS V14.01,2013-02-10 06:36:00,
2013-02-10 01:37:00,50.2,48.5,28.61,SW,222,5.4,6.7,94,0.00,,---,0.00,VWS V14.01,2013-02-10 06:37:00,
2013-02-10 01:38:00,50.2,48.5,28.61,SW,223,7.8,11.0,94,0.00,,---,0.00,VWS V14.01,2013-02-10 06:38:00,
2013-02-10 01:39:00,50.2,48.2,28.61,South,172,10.1,10.5,93,0.00,,---,0.00,VWS V14.01,2013-02-10 06:39:00,
2013-02-10 01:40:00,31.5,16.8,29.09,ESE,111,4.0,6.3,54,0.00,,---,0.00,VWS V14.01,2013-02-10 06:40:00,
2013-02-10 01:41:00,50.2,48.2,28.61,SW,221,4.0,8.7,93,0.00,,---,0.00,VWS V14.01,2013-02-10 06:41:00,
2013-02-10 01:42:00,50.2,48.2,28.61,SW,227,10.1,10.1,93,0.00,,---,0.00,VWS V14.01,2013-02-10 06:42:00,
2013-02-10 01:43:00,50.2,48.2,28.61,SSW,208,9.6,10.1,93,0.00,,---,0.00,VWS V14.01,2013-02-10 06:43:00,
2013-02-10 01:44:00,50.2,48.2,28.61,SSW,204,4.9,11.6,93,0.00,,---,0.00,VWS V14.01,2013-02-10 06:44:00,
2013-02-10 01:45:00,31.6,16.9,29.09,SSE,155,10.5,11.0,54,0.00,,---,0.00,VWS V14.01,2013-02-10 06:45:00,
2013-02-10 01:46:00,50.2,48.2,28.61,SSW,201,7.8,11.2,93,0.00,,---,0.00,VWS V14.01,2013-02-10 06:46:00,
2013-02-10 01:47:00,50.2,48.2,28.61,South,180,6.9,7.8,93,0.00,,---,0.00,VWS V14.01,2013-02-10 06:47:00,
2013-02-10 01:48:00,50.2,48.2,28.61,SW,231,5.8,11.2,93,0.00,,---,0.00,VWS V14.01,2013-02-10 06:48:00,
2013-02-10 01:49:00,50.2,48.2,28.61,SW,215,10.1,13.4,93,0.00,,---,0.00,VWS V14.01,2013-02-10 06:49:00,
2013-02-10 01:50:00,31.6,16.5,29.09,SE,143,6.7,7.8,53,0.00,,---,0.00,VWS V14.01,2013-02-10 06:50:00,
2013-02-10 01:51:00,50.2,48.2,28.61,SSW,203,4.9,12.5,93,0.00,,---,0.00,VWS V14.01,2013-02-10 06:51:00,
2013-02-10 01:52:00,50.2,48.2,28.61,SSW,213,8.7,9.6,93,0.00,,---,0.00,VWS V14.01,2013-02-10 06:52:00,
2013-02-10 01:53:00,50.2,48.2,28.61,SSW,193,4.9,9.6,93,0.00,,---,0.00,VWS V14.01,2013-02-10 06:53:00,
2013-02-10 01:54:00,50.2,48.2,28.61,SSW,211,6.7,9.2,93,0.00,,---,0.00,VWS V14.01,2013-02-10 06:54:00,
2013-02-10 01:55:00,31.8,16.6,29.09,SE,146,8.3,10.1,53,0.00,,---,0.00,VWS V14.01,2013-02-10 06:55:00,
2013-02-10 01:56:00,50.2,48.2,28.61,SW,215,6.9,7.8,93,0.00,,---,0.00,VWS V14.01,2013-02-10 06:56:00,
2013-02-10 01:57:00,50.2,48.2,28.61,SW,220,6.7,10.5,93,0.00,,---,0.00,VWS V14.01,2013-02-10 06:57:00,
2013-02-10 01:58:00,50.2,48.2,28.61,SSW,208,11.6,11.6,93,0.00,,---,0.00,VWS V14.01,2013-02-10 06:58:00,
2013-02-10 01:59:00,50.2,48.0,28.61,SSW,201,6.9,11.6,92,0.00,,---,0.00,VWS V14.01,2013-02-10 06:59:00,
2013-02-10 02:00:00,32.2,16.1,29.09,SE,129,8.3,10.1,51,0.00,,---,0.00,VWS V14.01,2013-02-10 07:00:00,
2013-02-10 02:01:00,50.2,48.0,28.61,WSW,241,7.8,7.8,92,0.00,,---,0.00,VWS V14.01,2013-02-10 07:01:00,
2013-02-10 02:02:00,50.2,48.0,28.61,WSW,240,11.2,13.9,92,0.00,,---,0.00,VWS V14.01,2013-02-10 07:02:00,
2013-02-10 02:03:00,50.4,48.1,28.61,South,187,6.3,11.6,92,0.00,,---,0.00,VWS V14.01,2013-02-10 07:03:00,
2013-02-10 02:04:00,50.4,48.1,28.61,WSW,254,10.1,10.1,92,0.00,,---,0.00,VWS V14.01,2013-02-10 07:04:00,
2013-02-10 02:05:00,50.4,48.1,28.61,SW,222,7.4,10.1,92,0.00,,---,0.00,VWS V14.01,2013-02-10 07:05:00,
2013-02-10 02:06:00,32.0,15.9,29.09,SE,133,4.9,7.8,51,0.00,,---,0.00,VWS V14.01,2013-02-10 07:06:00,
2013-02-10 02:07:00,50.4,48.1,28.61,SW,222,6.7,10.5,92,0.00,,---,0.00,VWS V14.01,2013-02-10 07:07:00,
2013-02-10 02:08:00,50.4,48.1,28.61,SW,231,8.7,8.7,92,0.00,,---,0.00,VWS V14.01,2013-02-10 07:08:00,
2013-02-10 02:09:00,50.4,48.1,28.61,SW,228,6.7,11.6,92,0.00,,---,0.00,VWS V14.01,2013-02-10 07:09:00,
2013-02-10 02:10:00,50.4,48.1,28.61,SSW,209,7.8,11.6,92,0.00,,---,0.00,VWS V14.01,2013-02-10 07:10:00,
2013-02-10 02:11:00,32.0,15.9,29.09,SSE,153,7.8,13.9,51,0.00,,---,0.00,VWS V14.01,2013-02-10 07:11:00,
2013-02-10 02:12:00,50.4,48.1,28.61,West,259,8.7,10.1,92,0.00,,---,0.00,VWS V14.01,2013-02-10 07:12:00,
2013-02-10 02:13:00,50.4,48.1,28.61,SW,216,8.3,8.7,92,0.00,,---,0.00,VWS V14.01,2013-02-10 07:13:00,
2013-02-10 02:14:00,50.4,48.1,28.61,SW,215,12.1,13.4,92,0.00,,---,0.00,VWS V14.01,2013-02-10 07:14:00,
2013-02-10 02:15:00,50.4,48.1,28.61,SW,220,7.4,12.1,92,0.00,,---,0.00,VWS V14.01,2013-02-10 07:15:00,
2013-02-10 02:16:00,32.2,15.6,29.09,SSE,150,6.7,9.6,50,0.00,,---,0.00,VWS V14.01,2013-02-10 07:16:00,
2013-02-10 02:17:00,50.4,48.1,28.61,SW,226,6.9,12.1,92,0.00,,---,0.00,VWS V14.01,2013-02-10 07:17:00,
2013-02-10 02:18:00,50.4,48.1,28.61,WSW,247,9.6,9.6,92,0.00,,---,0.00,VWS V14.01,2013-02-10 07:18:00,
2013-02-10 02:19:00,50.4,48.1,28.61,SSW,207,6.9,13.0,92,0.00,,---,0.00,VWS V14.01,2013-02-10 07:19:00,
2013-02-10 02:20:00,50.2,48.0,28.61,SW,223,7.4,9.2,92,0.00,,---,0.00,VWS V14.01,2013-02-10 07:20:00,
2013-02-10 02:21:00,32.2,15.6,29.09,SE,141,10.1,10.1,50,0.00,,---,0.00,VWS V14.01,2013-02-10 07:21:00,
2013-02-10 02:22:00,50.4,48.1,28.61,SSW,196,10.1,11.6,92,0.00,,---,0.00,VWS V14.01,2013-02-10 07:22:00,
2013-02-10 02:23:00,50.4,48.1,28.61,SSW,196,0.0,10.1,92,0.00,,---,0.00,VWS V14.01,2013-02-10 07:23:00,
2013-02-10 02:24:00,50.2,48.0,28.61,SW,216,5.4,9.6,92,0.00,,---,0.00,VWS V14.01,2013-02-10 07:24:00,
2013-02-10 02:25:00,50.2,47.7,28.61,SW,226,7.8,8.7,91,0.00,,---,0.00,VWS V14.01,2013-02-10 07:25:00,
2013-02-10 02:26:00,32.2,15.6,29.09,SSE,148,5.4,8.3,50,0.00,,---,0.00,VWS V14.01,2013-02-10 07:26:00,
2013-02-10 02:27:00,50.2,47.7,28.61,SSW,206,6.9,9.6,91,0.00,,---,0.00,VWS V14.01,2013-02-10 07:27:00,
2013-02-10 02:28:00,50.4,47.8,28.61,SW,225,6.3,12.5,91,0.00,,---,0.00,VWS V14.01,2013-02-10 07:28:00,
2013-02-10 02:29:00,50.4,47.8,28.61,SW,220,5.4,11.2,91,0.00,,---,0.00,VWS V14.01,2013-02-10 07:29:00,
2013-02-10 02:30:00,50.4,47.8,28.61,SW,232,10.1,10.1,91,0.00,,---,0.00,VWS V14.01,2013-02-10 07:30:00,
2013-02-10 02:31:00,32.2,15.6,29.06,SSE,152,6.7,6.9,50,0.00,,---,0.00,VWS V14.01,2013-02-10 07:31:00,
2013-02-10 02:32:00,50.4,47.8,28.61,SW,224,8.3,10.1,91,0.00,,---,0.00,VWS V14.01,2013-02-10 07:32:00,
2013-02-10 02:33:00,50.4,47.8,28.61,SW,231,8.3,9.2,91,0.00,,---,0.00,VWS V14.01,2013-02-10 07:33:00,
2013-02-10 02:34:00,50.2,47.7,28.61,SSW,206,6.7,11.2,91,0.00,,---,0.00,VWS V14.01,2013-02-10 07:34:00,
2013-02-10 02:35:00,50.2,47.7,28.61,South,182,5.8,9.6,91,0.00,,---,0.00,VWS V14.01,2013-02-10 07:35:00,
2013-02-10 02:36:00,32.2,15.6,29.06,SE,144,6.9,9.2,50,0.00,,---,0.00,VWS V14.01,2013-02-10 07:36:00,
2013-02-10 02:37:00,50.2,47.7,28.61,SW,219,6.7,6.7,91,0.00,,---,0.00,VWS V14.01,2013-02-10 07:37:00,
2013-02-10 02:38:00,50.2,47.7,28.61,SW,228,9.2,11.0,91,0.00,,---,0.00,VWS V14.01,2013-02-10 07:38:00,
2013-02-10 02:39:00,50.2,47.7,28.61,WSW,237,8.7,10.5,91,0.00,,---,0.00,VWS V14.01,2013-02-10 07:39:00,
2013-02-10 02:40:00,50.2,47.7,28.61,SW,228,7.4,11.0,91,0.00,,---,0.00,VWS V14.01,2013-02-10 07:40:00,
2013-02-10 02:41:00,32.4,15.4,29.06,SSE,157,6.7,7.8,49,0.00,,---,0.00,VWS V14.01,2013-02-10 07:41:00,
2013-02-10 02:42:00,50.2,47.7,28.61,SW,227,6.9,11.0,91,0.00,,---,0.00,VWS V14.01,2013-02-10 07:42:00,
2013-02-10 02:43:00,50.2,47.7,28.61,WSW,243,6.3,13.0,91,0.00,,---,0.00,VWS V14.01,2013-02-10 07:43:00,
2013-02-10 02:44:00,50.2,47.7,28.61,SW,224,5.4,10.5,91,0.00,,---,0.00,VWS V14.01,2013-02-10 07:44:00,
2013-02-10 02:45:00,50.0,47.5,28.61,SW,227,9.6,11.6,91,0.00,,---,0.00,VWS V14.01,2013-02-10 07:45:00,
2013-02-10 02:46:00,32.4,15.4,29.06,SSE,155,6.3,11.0,49,0.00,,---,0.00,VWS V14.01,2013-02-10 07:46:00,
2013-02-10 02:47:00,50.2,47.7,28.61,SW,225,6.9,8.7,91,0.00,,---,0.00,VWS V14.01,2013-02-10 07:47:00,
2013-02-10 02:48:00,50.0,47.5,28.61,SW,220,6.9,8.7,91,0.00,,---,0.00,VWS V14.01,2013-02-10 07:48:00,
2013-02-10 02:49:00,50.0,47.5,28.61,SW,224,11.0,12.5,91,0.00,,---,0.00,VWS V14.01,2013-02-10 07:49:00,
2013-02-10 02:50:00,50.0,47.5,28.61,SSW,200,3.6,11.0,91,0.00,,---,0.00,VWS V14.01,2013-02-10 07:50:00,
2013-02-10 02:51:00,32.5,15.0,29.06,SE,134,6.3,11.0,48,0.00,,---,0.00,VWS V14.01,2013-02-10 07:51:00,
2013-02-10 02:52:00,49.8,47.3,28.61,SW,234,5.4,6.9,91,0.00,,---,0.00,VWS V14.01,2013-02-10 07:52:00,
2013-02-10 02:53:00,49.8,47.3,28.61,WSW,242,12.5,12.5,91,0.00,,---,0.00,VWS V14.01,2013-02-10 07:53:00,
2013-02-10 02:54:00,49.8,47.3,28.61,SSW,201,8.7,13.0,91,0.00,,---,0.00,VWS V14.01,2013-02-10 07:54:00,
2013-02-10 02:55:00,49.8,47.3,28.61,WSW,246,4.0,9.2,91,0.00,,---,0.00,VWS V14.01,2013-02-10 07:55:00,
2013-02-10 02:56:00,32.5,14.6,29.06,SSE,151,7.8,7.8,47,0.00,,---,0.00,VWS V14.01,2013-02-10 07:56:00,
2013-02-10 02:57:00,49.8,47.3,28.61,WSW,238,11.0,14.3,91,0.00,,---,0.00,VWS V14.01,2013-02-10 07:57:00,
2013-02-10 02:58:00,49.8,47.3,28.61,SW,228,8.7,11.0,91,0.00,,---,0.00,VWS V14.01,2013-02-10 07:58:00,
2013-02-10 02:59:00,49.8,47.3,28.61,SSW,199,11.0,11.0,91,0.00,,---,0.00,VWS V14.01,2013-02-10 07:59:00,
2013-02-10 03:00:00,49.8,47.3,28.61,NW,316,8.3,13.0,91,0.00,,---,0.00,VWS V14.01,2013-02-10 08:00:00,
2013-02-10 03:01:00,32.5,14.6,29.06,SSE,149,5.4,5.4,47,0.00,,---,0.00,VWS V14.01,2013-02-10 08:01:00,
2013-02-10 03:02:00,49.8,47.3,28.61,SW,226,10.1,10.1,91,0.00,,---,0.00,VWS V14.01,2013-02-10 08:02:00,
2013-02-10 03:03:00,49.8,47.3,28.61,SW,231,10.5,11.6,91,0.00,,---,0.00,VWS V14.01,2013-02-10 08:03:00,
2013-02-10 03:04:00,49.6,47.1,28.61,WSW,237,4.9,10.5,91,0.00,,---,0.00,VWS V14.01,2013-02-10 08:04:00,
2013-02-10 03:05:00,49.6,47.1,28.61,SW,226,6.3,12.5,91,0.00,,---,0.00,VWS V14.01,2013-02-10 08:05:00,
2013-02-10 03:06:00,32.5,14.6,29.06,SSW,199,3.6,4.9,47,0.00,,---,0.00,VWS V14.01,2013-02-10 08:06:00,
2013-02-10 03:07:00,49.6,47.1,28.61,WSW,238,6.7,12.5,91,0.00,,---,0.00,VWS V14.01,2013-02-10 08:07:00,
2013-02-10 03:08:00,49.6,47.1,28.61,SSW,203,4.5,9.2,91,0.00,,---,0.00,VWS V14.01,2013-02-10 08:08:00,
2013-02-10 03:09:00,49.6,47.1,28.61,WNW,286,9.6,11.2,91,0.00,,---,0.00,VWS V14.01,2013-02-10 08:09:00,
2013-02-10 03:10:00,49.6,47.1,28.61,SW,232,4.0,9.6,91,0.00,,---,0.00,VWS V14.01,2013-02-10 08:10:00,
2013-02-10 03:11:00,32.5,14.6,29.06,South,175,3.6,4.0,47,0.00,,---,0.00,VWS V14.01,2013-02-10 08:11:00,
2013-02-10 03:12:00,49.6,47.1,28.61,SSW,199,7.4,9.6,91,0.00,,---,0.00,VWS V14.01,2013-02-10 08:12:00,
2013-02-10 03:13:00,49.6,47.1,28.61,WSW,247,8.3,9.2,91,0.00,,---,0.00,VWS V14.01,2013-02-10 08:13:00,
2013-02-10 03:14:00,49.6,47.1,28.61,SW,222,6.9,10.1,91,0.00,,---,0.00,VWS V14.01,2013-02-10 08:14:00,
2013-02-10 03:15:00,49.6,47.1,28.61,SW,226,4.5,8.7,91,0.00,,---,0.00,VWS V14.01,2013-02-10 08:15:00,
2013-02-10 03:16:00,32.5,14.6,29.06,SSE,147,0.0,4.0,47,0.00,,---,0.00,VWS V14.01,2013-02-10 08:16:00,
2013-02-10 03:17:00,49.5,47.0,28.61,SSW,197,6.3,7.4,91,0.00,,---,0.00,VWS V14.01,2013-02-10 08:17:00,
2013-02-10 03:18:00,49.5,47.0,28.61,South,176,8.3,9.6,91,0.00,,---,0.00,VWS V14.01,2013-02-10 08:18:00,
2013-02-10 03:19:00,49.5,47.0,28.61,SW,223,6.7,8.3,91,0.00,,---,0.00,VWS V14.01,2013-02-10 08:19:00,
2013-02-10 03:20:00,49.6,47.1,28.61,SSW,212,5.4,10.5,91,0.00,,---,0.00,VWS V14.01,2013-02-10 08:20:00,
2013-02-10 03:21:00,32.5,14.6,29.06,SSE,149,4.5,5.8,47,0.00,,---,0.00,VWS V14.01,2013-02-10 08:21:00,
2013-02-10 03:22:00,49.6,47.1,28.61,SSW,192,6.9,12.1,91,0.00,,---,0.00,VWS V14.01,2013-02-10 08:22:00,
2013-02-10 03:23:00,49.8,47.3,28.61,WSW,239,9.6,9.6,91,0.00,,---,0.00,VWS V14.01,2013-02-10 08:23:00,
2013-02-10 03:24:00,49.8,47.3,28.61,SW,222,13.4,15.9,91,0.00,,---,0.00,VWS V14.01,2013-02-10 08:24:00,
2013-02-10 03:25:00,49.8,47.6,28.61,SW,214,7.8,13.4,92,0.00,,---,0.00,VWS V14.01,2013-02-10 08:25:00,
2013-02-10 03:26:00,32.7,14.7,29.06,SSE,151,4.9,4.9,47,0.00,,---,0.00,VWS V14.01,2013-02-10 08:26:00,
2013-02-10 03:27:00,50.0,47.8,28.61,SW,217,6.3,10.5,92,0.00,,---,0.00,VWS V14.01,2013-02-10 08:27:00,
2013-02-10 03:28:00,49.8,47.6,28.61,SSW,205,5.8,8.3,92,0.00,,---,0.00,VWS V14.01,2013-02-10 08:28:00,
2013-02-10 03:29:00,49.8,47.6,28.61,SSW,212,7.4,12.1,92,0.00,,---,0.00,VWS V14.01,2013-02-10 08:29:00,
2013-02-10 03:30:00,49.8,47.6,28.61,SW,218,6.9,9.6,92,0.00,,---,0.00,VWS V14.01,2013-02-10 08:30:00,
2013-02-10 03:31:00,32.7,14.7,29.09,SE,142,3.6,5.8,47,0.00,,---,0.00,VWS V14.01,2013-02-10 08:31:00,
2013-02-10 03:32:00,49.8,47.6,28.61,West,264,6.9,8.7,92,0.00,,---,0.00,VWS V14.01,2013-02-10 08:32:00,
2013-02-10 03:33:00,49.8,47.6,28.61,WSW,240,8.3,11.0,92,0.00,,---,0.00,VWS V14.01,2013-02-10 08:33:00,
2013-02-10 03:34:00,49.8,47.6,28.61,SSW,206,6.3,11.6,92,0.00,,---,0.00,VWS V14.01,2013-02-10 08:34:00,
2013-02-10 03:35:00,49.8,47.6,28.61,SW,215,11.6,11.6,92,0.00,,---,0.00,VWS V14.01,2013-02-10 08:35:00,
2013-02-10 03:36:00,32.7,14.7,29.09,SSW,197,3.6,5.8,47,0.00,,---,0.00,VWS V14.01,2013-02-10 08:36:00,
2013-02-10 03:37:00,49.6,47.4,28.61,SSW,199,6.3,10.1,92,0.00,,---,0.00,VWS V14.01,2013-02-10 08:37:00,
2013-02-10 03:38:00,49.6,47.4,28.61,SW,220,11.0,13.9,92,0.00,,---,0.00,VWS V14.01,2013-02-10 08:38:00,
2013-02-10 03:39:00,49.8,47.6,28.61,SSW,212,8.7,11.0,92,0.00,,---,0.00,VWS V14.01,2013-02-10 08:39:00,
2013-02-10 03:40:00,49.6,47.4,28.61,WSW,240,6.7,14.8,92,0.00,,---,0.00,VWS V14.01,2013-02-10 08:40:00,
2013-02-10 03:41:00,32.7,14.7,29.09,SE,137,3.6,5.8,47,0.00,,---,0.00,VWS V14.01,2013-02-10 08:41:00,
2013-02-10 03:42:00,49.6,47.4,28.61,SW,214,4.0,10.1,92,0.00,,---,0.00,VWS V14.01,2013-02-10 08:42:00,
2013-02-10 03:43:00,49.6,47.4,28.61,SW,214,5.8,11.6,92,0.00,,---,0.00,VWS V14.01,2013-02-10 08:43:00,
2013-02-10 03:44:00,49.6,47.4,28.61,SW,234,7.4,10.5,92,0.00,,---,0.00,VWS V14.01,2013-02-10 08:44:00,
2013-02-10 03:45:00,49.6,47.4,28.61,SSW,211,3.1,7.4,92,0.00,,---,0.00,VWS V14.01,2013-02-10 08:45:00,
2013-02-10 03:46:00,32.7,14.7,29.09,SE,139,3.1,5.8,47,0.00,,---,0.00,VWS V14.01,2013-02-10 08:46:00,
2013-02-10 03:47:00,49.6,47.4,28.61,SW,229,11.6,13.4,92,0.00,,---,0.00,VWS V14.01,2013-02-10 08:47:00,
2013-02-10 03:48:00,49.6,47.4,28.61,SSW,208,8.7,12.1,92,0.00,,---,0.00,VWS V14.01,2013-02-10 08:48:00,
2013-02-10 03:49:00,49.6,47.4,28.61,SW,218,4.0,8.7,92,0.00,,---,0.00,VWS V14.01,2013-02-10 08:49:00,
2013-02-10 03:50:00,49.6,47.4,28.61,SSW,208,6.7,13.0,92,0.00,,---,0.00,VWS V14.01,2013-02-10 08:50:00,
2013-02-10 03:51:00,32.7,14.7,29.09,SSE,148,3.6,3.6,47,0.00,,---,0.00,VWS V14.01,2013-02-10 08:51:00,
2013-02-10 03:52:00,49.6,47.1,28.61,SSW,209,4.5,11.2,91,0.00,,---,0.00,VWS V14.01,2013-02-10 08:52:00,
2013-02-10 03:53:00,49.5,47.0,28.61,SW,215,8.7,8.7,91,0.00,,---,0.00,VWS V14.01,2013-02-10 08:53:00,
2013-02-10 03:54:00,49.5,47.0,28.61,WSW,238,4.9,8.7,91,0.00,,---,0.00,VWS V14.01,2013-02-10 08:54:00,
2013-02-10 03:55:00,49.3,46.8,28.61,SSW,209,6.9,11.0,91,0.00,,---,0.00,VWS V14.01,2013-02-10 08:55:00,
2013-02-10 03:56:00,32.7,14.7,29.09,SSE,148,4.5,4.5,47,0.00,,---,0.00,VWS V14.01,2013-02-10 08:56:00,
2013-02-10 03:57:00,49.3,46.8,28.61,SSW,206,6.7,11.2,91,0.00,,---,0.00,VWS V14.01,2013-02-10 08:57:00,
2013-02-10 03:58:00,49.3,46.8,28.61,South,190,5.8,10.1,91,0.00,,---,0.00,VWS V14.01,2013-02-10 08:58:00,
2013-02-10 03:59:00,49.3,46.8,28.61,WSW,237,8.3,13.4,91,0.00,,---,0.00,VWS V14.01,2013-02-10 08:59:00,
2013-02-10 04:00:00,49.3,46.8,28.61,SW,215,8.7,10.5,91,0.00,,---,0.00,VWS V14.01,2013-02-10 09:00:00,
2013-02-10 04:01:00,32.9,14.9,29.09,South,174,0.0,3.1,47,0.00,,---,0.00,VWS V14.01,2013-02-10 09:01:00,
2013-02-10 04:02:00,49.3,46.5,28.61,SSW,195,6.9,8.3,90,0.00,,---,0.00,VWS V14.01,2013-02-10 09:02:00,
2013-02-10 04:03:00,49.3,46.5,28.61,SW,223,9.2,10.1,90,0.00,,---,0.00,VWS V14.01,2013-02-10 09:03:00,
2013-02-10 04:04:00,49.3,46.5,28.61,WNW,290,5.4,11.0,90,0.00,,---,0.00,VWS V14.01,2013-02-10 09:04:00,
2013-02-10 04:05:00,49.3,46.5,28.61,WSW,245,11.2,11.6,90,0.00,,---,0.00,VWS V14.01,2013-02-10 09:05:00,
2013-02-10 04:06:00,32.9,14.9,29.09,South,174,0.0,4.5,47,0.00,,---,0.00,VWS V14.01,2013-02-10 09:06:00,
2013-02-10 04:07:00,49.3,46.5,28.61,SW,232,7.4,11.0,90,0.00,,---,0.00,VWS V14.01,2013-02-10 09:07:00,
2013-02-10 04:08:00,49.3,46.5,28.61,SSW,210,9.6,11.2,90,0.00,,---,0.00,VWS V14.01,2013-02-10 09:08:00,
2013-02-10 04:09:00,49.3,46.5,28.61,SSW,207,8.3,9.6,90,0.00,,---,0.00,VWS V14.01,2013-02-10 09:09:00,
2013-02-10 04:10:00,49.3,46.5,28.61,SSW,210,8.3,10.1,90,0.00,,---,0.00,VWS V14.01,2013-02-10 09:10:00,
2013-02-10 04:11:00,33.1,15.1,29.09,South,172,3.6,4.5,47,0.00,,---,0.00,VWS V14.01,2013-02-10 09:11:00,
2013-02-10 04:12:00,49.3,46.2,28.61,WNW,302,6.3,11.0,89,0.00,,---,0.00,VWS V14.01,2013-02-10 09:12:00,
2013-02-10 04:13:00,49.3,46.2,28.61,SW,233,12.1,12.1,89,0.00,,---,0.00,VWS V14.01,2013-02-10 09:13:00,
2013-02-10 04:14:00,49.3,46.2,28.61,SW,229,5.8,12.1,89,0.00,,---,0.00,VWS V14.01,2013-02-10 09:14:00,
2013-02-10 04:15:00,49.1,46.0,28.61,SW,220,2.7,8.3,89,0.00,,---,0.00,VWS V14.01,2013-02-10 09:15:00,
2013-02-10 04:16:00,33.1,14.6,29.09,SE,138,3.1,4.0,46,0.00,,---,0.00,VWS V14.01,2013-02-10 09:16:00,
2013-02-10 04:17:00,49.1,45.7,28.61,SW,230,7.8,11.6,88,0.00,,---,0.00,VWS V14.01,2013-02-10 09:17:00,
2013-02-10 04:18:00,49.1,45.7,28.61,South,189,6.3,8.3,88,0.00,,---,0.00,VWS V14.01,2013-02-10 09:18:00,
2013-02-10 04:19:00,49.1,45.7,28.61,SW,231,5.8,12.1,88,0.00,,---,0.00,VWS V14.01,2013-02-10 09:19:00,
2013-02-10 04:20:00,49.1,45.7,28.61,WSW,252,7.4,8.7,88,0.00,,---,0.00,VWS V14.01,2013-02-10 09:20:00,
2013-02-10 04:21:00,33.3,14.7,29.09,SE,138,0.0,0.0,46,0.00,,---,0.00,VWS V14.01,2013-02-10 09:21:00,
2013-02-10 04:22:00,49.1,45.7,28.61,SW,228,8.3,13.0,88,0.00,,---,0.00,VWS V14.01,2013-02-10 09:22:00,
2013-02-10 04:23:00,49.1,45.7,28.61,West,281,9.6,13.0,88,0.00,,---,0.00,VWS V14.01,2013-02-10 09:23:00,
2013-02-10 04:24:00,49.1,45.7,28.61,SW,221,6.7,10.1,88,0.00,,---,0.00,VWS V14.01,2013-02-10 09:24:00,
2013-02-10 04:25:00,49.1,45.7,28.61,SSW,206,6.7,10.5,88,0.00,,---,0.00,VWS V14.01,2013-02-10 09:25:00,
2013-02-10 04:26:00,33.3,14.2,29.09,SSE,159,0.0,3.6,45,0.00,,---,0.00,VWS V14.01,2013-02-10 09:26:00,
2013-02-10 04:27:00,49.1,45.4,28.61,WSW,251,8.3,8.3,87,0.00,,---,0.00,VWS V14.01,2013-02-10 09:27:00,
2013-02-10 04:28:00,49.1,45.4,28.61,SSW,205,11.6,11.6,87,0.00,,---,0.00,VWS V14.01,2013-02-10 09:28:00,
2013-02-10 04:29:00,49.3,45.6,28.61,SW,228,7.8,11.6,87,0.00,,---,0.00,VWS V14.01,2013-02-10 09:29:00,
2013-02-10 04:30:00,49.3,45.6,28.61,SW,230,9.6,13.9,87,0.00,,---,0.00,VWS V14.01,2013-02-10 09:30:00,
2013-02-10 04:31:00,33.4,14.4,29.06,SE,140,2.7,4.0,45,0.00,,---,0.00,VWS V14.01,2013-02-10 09:31:00,
2013-02-10 04:32:00,49.3,45.6,28.61,WSW,255,11.2,13.4,87,0.00,,---,0.00,VWS V14.01,2013-02-10 09:32:00,
2013-02-10 04:33:00,49.3,45.6,28.61,SW,226,8.7,11.6,87,0.00,,---,0.00,VWS V14.01,2013-02-10 09:33:00,
2013-02-10 04:34:00,49.3,45.3,28.61,SW,228,7.4,11.6,86,0.00,,---,0.00,VWS V14.01,2013-02-10 09:34:00,
2013-02-10 04:35:00,49.3,45.3,28.61,SW,227,6.7,9.2,86,0.00,,---,0.00,VWS V14.01,2013-02-10 09:35:00,
2013-02-10 04:36:00,33.6,14.1,29.06,SSE,162,3.6,4.9,44,0.00,,---,0.00,VWS V14.01,2013-02-10 09:36:00,
2013-02-10 04:37:00,49.3,45.3,28.61,SW,226,8.3,10.1,86,0.00,,---,0.00,VWS V14.01,2013-02-10 09:37:00,
2013-02-10 04:38:00,49.3,45.3,28.61,South,180,10.5,10.5,86,0.00,,---,0.00,VWS V14.01,2013-02-10 09:38:00,
2013-02-10 04:39:00,49.3,45.3,28.61,West,266,8.7,10.5,86,0.00,,---,0.00,VWS V14.01,2013-02-10 09:39:00,
2013-02-10 04:40:00,49.3,45.3,28.61,WSW,238,5.4,11.6,86,0.00,,---,0.00,VWS V14.01,2013-02-10 09:40:00,
2013-02-10 04:41:00,33.8,14.2,29.06,SSW,209,0.0,4.9,44,0.00,,---,0.00,VWS V14.01,2013-02-10 09:41:00,
2013-02-10 04:42:00,49.1,44.8,28.61,SW,219,5.4,11.0,85,0.00,,---,0.00,VWS V14.01,2013-02-10 09:42:00,
2013-02-10 04:43:00,49.1,45.1,28.61,SW,229,5.4,6.3,86,0.00,,---,0.00,VWS V14.01,2013-02-10 09:43:00,
2013-02-10 04:44:00,48.9,44.6,28.61,SW,228,6.3,11.2,85,0.00,,---,0.00,VWS V14.01,2013-02-10 09:44:00,
2013-02-10 04:45:00,48.9,44.6,28.61,SW,214,9.2,10.5,85,0.00,,---,0.00,VWS V14.01,2013-02-10 09:45:00,
2013-02-10 04:46:00,33.8,13.7,29.06,SE,143,4.9,5.8,43,0.00,,---,0.00,VWS V14.01,2013-02-10 09:46:00,
2013-02-10 04:47:00,48.9,44.6,28.61,SW,214,7.4,9.6,85,0.00,,---,0.00,VWS V14.01,2013-02-10 09:47:00,
2013-02-10 04:48:00,48.9,44.6,28.61,SW,221,8.7,12.1,85,0.00,,---,0.00,VWS V14.01,2013-02-10 09:48:00,
2013-02-10 04:49:00,48.9,44.6,28.61,SW,217,7.8,10.1,85,0.00,,---,0.00,VWS V14.01,2013-02-10 09:49:00,
2013-02-10 04:50:00,48.7,44.4,28.61,WSW,247,6.3,11.6,85,0.00,,---,0.00,VWS V14.01,2013-02-10 09:50:00,
2013-02-10 04:51:00,34.0,13.9,29.06,SE,146,4.0,4.0,43,0.00,,---,0.00,VWS V14.01,2013-02-10 09:51:00,
2013-02-10 04:52:00,48.7,44.4,28.61,SW,223,4.5,7.8,85,0.00,,---,0.00,VWS V14.01,2013-02-10 09:52:00,
2013-02-10 04:53:00,48.7,44.4,28.61,SW,214,8.3,11.6,85,0.00,,---,0.00,VWS V14.01,2013-02-10 09:53:00,
2013-02-10 04:54:00,48.7,44.4,28.61,SSW,207,4.9,8.3,85,0.00,,---,0.00,VWS V14.01,2013-02-10 09:54:00,
2013-02-10 04:55:00,48.7,44.4,28.61,SW,230,11.0,11.0,85,0.00,,---,0.00,VWS V14.01,2013-02-10 09:55:00,
2013-02-10 04:56:00,34.2,13.5,29.06,SE,141,4.5,4.9,42,0.00,,---,0.00,VWS V14.01,2013-02-10 09:56:00,
2013-02-10 04:57:00,48.6,44.0,28.61,SW,228,5.8,11.6,84,0.00,,---,0.00,VWS V14.01,2013-02-10 09:57:00,
2013-02-10 04:58:00,48.6,44.0,28.61,WNW,290,6.3,11.2,84,0.00,,---,0.00,VWS V14.01,2013-02-10 09:58:00,
2013-02-10 04:59:00,48.6,44.0,28.61,WSW,246,8.3,13.4,84,0.00,,---,0.00,VWS V14.01,2013-02-10 09:59:00,
2013-02-10 05:00:00,48.6,44.0,28.61,WNW,300,6.7,10.1,84,0.00,,---,0.00,VWS V14.01,2013-02-10 10:00:00,
2013-02-10 05:01:00,34.3,13.6,29.06,SSE,162,4.0,5.4,42,0.00,,---,0.00,VWS V14.01,2013-02-10 10:01:00,
2013-02-10 05:02:00,48.6,43.6,28.61,SW,233,5.8,13.0,83,0.00,,---,0.00,VWS V14.01,2013-02-10 10:02:00,
2013-02-10 05:03:00,48.6,43.6,28.61,WSW,252,5.4,7.8,83,0.00,,---,0.00,VWS V14.01,2013-02-10 10:03:00,
2013-02-10 05:04:00,48.6,43.3,28.61,West,263,11.0,11.0,82,0.00,,---,0.00,VWS V14.01,2013-02-10 10:04:00,
2013-02-10 05:05:00,48.6,43.3,28.61,SW,234,6.9,11.0,82,0.00,,---,0.00,VWS V14.01,2013-02-10 10:05:00,
2013-02-10 05:06:00,34.3,13.6,29.06,SE,141,6.3,7.4,42,0.00,,---,0.00,VWS V14.01,2013-02-10 10:06:00,
2013-02-10 05:07:00,48.6,43.3,28.61,SW,226,4.9,11.6,82,0.00,,---,0.00,VWS V14.01,2013-02-10 10:07:00,
2013-02-10 05:08:00,48.6,43.0,28.61,South,183,3.6,11.0,81,0.00,,---,0.00,VWS V14.01,2013-02-10 10:08:00,
2013-02-10 05:09:00,48.6,43.0,28.61,West,279,10.5,11.0,81,0.00,,---,0.00,VWS V14.01,2013-02-10 10:09:00,
2013-02-10 05:10:00,48.7,43.2,28.61,SW,230,5.4,10.5,81,0.00,,---,0.00,VWS V14.01,2013-02-10 10:10:00,
2013-02-10 05:11:00,34.3,13.6,29.06,SE,143,4.9,6.9,42,0.00,,---,0.00,VWS V14.01,2013-02-10 10:11:00,
2013-02-10 05:12:00,48.6,42.7,28.61,WSW,251,6.3,10.5,80,0.00,,---,0.00,VWS V14.01,2013-02-10 10:12:00,
2013-02-10 05:13:00,48.6,42.7,28.61,WSW,246,7.8,7.8,80,0.00,,---,0.00,VWS V14.01,2013-02-10 10:13:00,
2013-02-10 05:14:00,48.6,42.3,28.61,SSE,168,11.2,11.2,79,0.00,,---,0.00,VWS V14.01,2013-02-10 10:14:00,
2013-02-10 05:15:00,48.6,42.3,28.61,WSW,238,8.7,13.4,79,0.00,,---,0.00,VWS V14.01,2013-02-10 10:15:00,
2013-02-10 05:16:00,34.5,13.8,29.06,South,169,3.6,6.3,42,0.00,,---,0.00,VWS V14.01,2013-02-10 10:16:00,
2013-02-10 05:17:00,48.6,41.7,28.61,SW,228,4.0,8.7,77,0.00,,---,0.00,VWS V14.01,2013-02-10 10:17:00,
2013-02-10 05:18:00,48.6,41.7,28.61,WSW,242,8.3,11.0,77,0.00,,---,0.00,VWS V14.01,2013-02-10 10:18:00,
2013-02-10 05:19:00,48.6,41.3,28.61,SW,235,3.6,9.2,76,0.00,,---,0.00,VWS V14.01,2013-02-10 10:19:00,
2013-02-10 05:20:00,48.6,41.3,28.61,SSW,207,8.7,12.5,76,0.00,,---,0.00,VWS V14.01,2013-02-10 10:20:00,
2013-02-10 05:21:00,34.5,13.8,29.06,East,101,5.8,9.6,42,0.00,,---,0.00,VWS V14.01,2013-02-10 10:21:00,
2013-02-10 05:22:00,48.6,40.3,28.61,WSW,237,10.1,15.2,73,0.00,,---,0.00,VWS V14.01,2013-02-10 10:22:00,
2013-02-10 05:23:00,48.7,40.1,28.61,West,261,6.3,20.6,72,0.00,,---,0.00,VWS V14.01,2013-02-10 10:23:00,
2013-02-10 05:24:00,48.7,39.0,28.61,WSW,258,9.6,21.0,69,0.00,,---,0.00,VWS V14.01,2013-02-10 10:24:00,
2013-02-10 05:25:00,48.7,37.9,28.61,WSW,241,11.0,16.8,66,0.00,,---,0.00,VWS V14.01,2013-02-10 10:25:00,
2013-02-10 05:26:00,34.5,13.3,29.06,SE,125,5.8,7.4,41,0.00,,---,0.00,VWS V14.01,2013-02-10 10:26:00,
2013-02-10 05:27:00,48.9,35.7,28.61,SW,225,8.3,16.3,60,0.00,,---,0.00,VWS V14.01,2013-02-10 10:27:00,
2013-02-10 05:28:00,49.1,35.0,28.61,West,259,12.5,13.9,58,0.00,,---,0.00,VWS V14.01,2013-02-10 10:28:00,
2013-02-10 05:29:00,49.1,35.0,28.61,SSW,203,7.4,12.5,58,0.00,,---,0.00,VWS V14.01,2013-02-10 10:29:00,
2013-02-10 05:30:00,49.1,34.5,28.61,SW,225,8.7,10.5,57,0.00,,---,0.00,VWS V14.01,2013-02-10 10:30:00,
2013-02-10 05:31:00,34.7,13.4,29.03,ESE,121,6.9,7.4,41,0.00,,---,0.00,VWS V14.01,2013-02-10 10:31:00,
2013-02-10 05:32:00,48.9,33.9,28.61,WSW,252,12.1,18.6,56,0.00,,---,0.00,VWS V14.01,2013-02-10 10:32:00,
2013-02-10 05:33:00,48.9,33.5,28.61,WSW,242,10.5,19.5,55,0.00,,---,0.00,VWS V14.01,2013-02-10 10:33:00,
2013-02-10 05:34:00,48.9,33.5,28.61,WSW,242,13.4,16.8,55,0.00,,---,0.00,VWS V14.01,2013-02-10 10:34:00,
2013-02-10 05:35:00,48.9,33.5,28.61,West,268,4.5,13.4,55,0.00,,---,0.00,VWS V14.01,2013-02-10 10:35:00,
2013-02-10 05:36:00,34.7,13.4,29.03,SE,128,4.0,4.0,41,0.00,,---,0.00,VWS V14.01,2013-02-10 10:36:00,
2013-02-10 05:37:00,48.7,33.3,28.61,West,260,8.3,15.2,55,0.00,,---,0.00,VWS V14.01,2013-02-10 10:37:00,
2013-02-10 05:38:00,48.7,32.8,28.61,WSW,239,12.5,12.5,54,0.00,,---,0.00,VWS V14.01,2013-02-10 10:38:00,
2013-02-10 05:39:00,48.7,32.8,28.61,SW,234,9.6,12.5,54,0.00,,---,0.00,VWS V14.01,2013-02-10 10:39:00,
2013-02-10 05:40:00,48.6,32.7,28.61,WSW,242,9.6,15.9,54,0.00,,---,0.00,VWS V14.01,2013-02-10 10:40:00,
2013-02-10 05:41:00,34.7,14.0,29.03,SE,130,3.1,4.0,42,0.00,,---,0.00,VWS V14.01,2013-02-10 10:41:00,
2013-02-10 05:42:00,48.6,32.2,28.61,WNW,290,13.4,15.2,53,0.00,,---,0.00,VWS V14.01,2013-02-10 10:42:00,
2013-02-10 05:43:00,48.4,32.0,28.61,WNW,284,11.2,13.4,53,0.00,,---,0.00,VWS V14.01,2013-02-10 10:43:00,
2013-02-10 05:44:00,48.4,31.6,28.61,West,267,14.8,17.2,52,0.00,,---,0.00,VWS V14.01,2013-02-10 10:44:00,
2013-02-10 05:45:00,48.4,30.6,28.61,WSW,249,18.1,19.5,50,0.00,,---,0.00,VWS V14.01,2013-02-10 10:45:00,
2013-02-10 05:46:00,34.7,14.0,29.03,SE,141,5.4,6.3,42,0.00,,---,0.00,VWS V14.01,2013-02-10 10:46:00,
2013-02-10 05:47:00,48.4,30.1,28.61,SW,222,11.0,15.2,49,0.00,,---,0.00,VWS V14.01,2013-02-10 10:47:00,
2013-02-10 05:48:00,48.2,30.0,28.61,WSW,248,15.4,15.9,49,0.00,,---,0.00,VWS V14.01,2013-02-10 10:48:00,
2013-02-10 05:49:00,48.2,30.0,28.61,SW,218,10.5,15.4,49,0.00,,---,0.00,VWS V14.01,2013-02-10 10:49:00,
2013-02-10 05:50:00,48.0,29.8,28.61,WNW,284,5.8,13.4,49,0.00,,---,0.00,VWS V14.01,2013-02-10 10:50:00,
2013-02-10 05:51:00,34.7,14.5,29.03,SE,143,0.0,3.1,43,0.00,,---,0.00,VWS V14.01,2013-02-10 10:51:00,
2013-02-10 05:52:00,48.0,28.8,28.61,NW,326,10.5,15.2,47,0.00,,---,0.00,VWS V14.01,2013-02-10 10:52:00,
2013-02-10 05:53:00,47.8,28.6,28.61,WNW,292,16.8,20.1,47,0.00,,---,0.00,VWS V14.01,2013-02-10 10:53:00,
2013-02-10 05:54:00,47.8,28.1,28.61,West,266,11.0,19.9,46,0.00,,---,0.00,VWS V14.01,2013-02-10 10:54:00,
2013-02-10 05:55:00,47.8,28.1,28.61,WSW,240,9.2,15.2,46,0.00,,---,0.00,VWS V14.01,2013-02-10 10:55:00,
2013-02-10 05:56:00,34.5,15.4,29.03,SE,138,6.9,7.8,45,0.00,,---,0.00,VWS V14.01,2013-02-10 10:56:00,
2013-02-10 05:57:00,47.7,27.4,28.61,WSW,250,9.6,18.6,45,0.00,,---,0.00,VWS V14.01,2013-02-10 10:57:00,
2013-02-10 05:58:00,47.7,26.8,28.61,SW,229,9.2,21.0,44,0.00,,---,0.00,VWS V14.01,2013-02-10 10:58:00,
2013-02-10 05:59:00,47.7,26.8,28.61,WSW,246,9.6,15.4,44,0.00,,---,0.00,VWS V14.01,2013-02-10 10:59:00,
2013-02-10 06:00:00,47.5,26.1,28.61,WSW,253,15.9,19.9,43,0.00,,---,0.00,VWS V14.01,2013-02-10 11:00:00,
2013-02-10 06:01:00,34.5,15.9,29.03,ESE,108,5.4,5.4,46,0.00,,---,0.00,VWS V14.01,2013-02-10 11:01:00,
2013-02-10 06:02:00,47.5,26.1,28.61,WSW,245,17.7,20.1,43,0.00,,---,0.00,VWS V14.01,2013-02-10 11:02:00,
2013-02-10 06:03:00,47.3,25.4,28.61,WNW,286,14.8,19.9,42,0.00,,---,0.00,VWS V14.01,2013-02-10 11:03:00,
2013-02-10 06:04:00,47.3,25.4,28.61,SW,234,17.7,20.6,42,0.00,,---,0.00,VWS V14.01,2013-02-10 11:04:00,
2013-02-10 06:05:00,47.3,25.4,28.61,SSW,211,11.2,25.7,42,0.00,,---,0.00,VWS V14.01,2013-02-10 11:05:00,
2013-02-10 06:06:00,34.3,16.7,29.03,SE,139,7.4,7.8,48,0.00,,---,0.00,VWS V14.01,2013-02-10 11:06:00,
2013-02-10 06:07:00,47.3,25.4,28.61,West,266,13.9,20.1,42,0.00,,---,0.00,VWS V14.01,2013-02-10 11:07:00,
2013-02-10 06:08:00,47.3,25.4,28.61,WNW,285,8.7,18.1,42,0.00,,---,0.00,VWS V14.01,2013-02-10 11:08:00,
2013-02-10 06:09:00,47.1,25.8,28.61,West,277,11.2,16.8,43,0.00,,---,0.00,VWS V14.01,2013-02-10 11:09:00,
2013-02-10 06:10:00,46.9,25.1,28.61,WSW,248,19.5,21.5,42,0.00,,---,0.00,VWS V14.01,2013-02-10 11:10:00,
2013-02-10 06:11:00,34.5,16.9,29.03,SSE,147,6.9,11.0,48,0.00,,---,0.00,VWS V14.01,2013-02-10 11:11:00,
2013-02-10 06:12:00,46.9,25.1,28.61,West,268,14.8,22.4,42,0.00,,---,0.00,VWS V14.01,2013-02-10 11:12:00,
2013-02-10 06:13:00,46.9,25.1,28.61,WSW,251,12.5,22.4,42,0.00,,---,0.00,VWS V14.01,2013-02-10 11:13:00,
2013-02-10 06:14:00,46.8,26.0,28.61,West,264,19.0,20.1,44,0.00,,---,0.00,VWS V14.01,2013-02-10 11:14:00,
2013-02-10 06:15:00,46.8,26.6,28.61,SW,217,10.5,19.0,45,0.00,,---,0.00,VWS V14.01,2013-02-10 11:15:00,
2013-02-10 06:16:00,34.3,16.7,29.03,SE,134,7.4,8.7,48,0.00,,---,0.00,VWS V14.01,2013-02-10 11:16:00,
2013-02-10 06:17:00,46.2,27.1,28.61,West,280,17.2,19.5,47,0.00,,---,0.00,VWS V14.01,2013-02-10 11:17:00,
2013-02-10 06:18:00,45.9,27.3,28.61,WNW,282,15.4,20.6,48,0.00,,---,0.00,VWS V14.01,2013-02-10 11:18:00,
2013-02-10 06:19:00,45.7,27.1,28.61,NW,311,11.0,16.3,48,0.00,,---,0.00,VWS V14.01,2013-02-10 11:19:00,
2013-02-10 06:20:00,45.5,28.0,28.61,WSW,254,9.2,19.0,50,0.00,,---,0.00,VWS V14.01,2013-02-10 11:20:00,
2013-02-10 06:21:00,34.3,17.2,29.03,SSE,152,4.0,6.7,49,0.00,,---,0.00,VWS V14.01,2013-02-10 11:21:00,
2013-02-10 06:22:00,45.1,27.1,28.64,WNW,289,7.4,17.2,49,0.00,,---,0.00,VWS V14.01,2013-02-10 11:22:00,
2013-02-10 06:23:00,45.0,27.0,28.64,WNW,297,13.9,15.9,49,0.00,,---,0.00,VWS V14.01,2013-02-10 11:23:00,
2013-02-10 06:24:00,44.8,27.3,28.64,WSW,237,9.2,16.8,50,0.00,,---,0.00,VWS V14.01,2013-02-10 11:24:00,
2013-02-10 06:25:00,44.6,27.1,28.64,WSW,255,14.3,19.9,50,0.00,,---,0.00,VWS V14.01,2013-02-10 11:25:00,
2013-02-10 06:26:00,34.3,17.2,29.03,SSE,151,3.6,5.8,49,0.00,,---,0.00,VWS V14.01,2013-02-10 11:26:00,
2013-02-10 06:27:00,44.4,27.0,28.64,WNW,284,16.3,19.5,50,0.00,,---,0.00,VWS V14.01,2013-02-10 11:27:00,
2013-02-10 06:28:00,44.2,26.8,28.64,West,276,14.3,17.7,50,0.00,,---,0.00,VWS V14.01,2013-02-10 11:28:00,
2013-02-10 06:29:00,44.2,26.8,28.64,West,270,8.3,14.8,50,0.00,,---,0.00,VWS V14.01,2013-02-10 11:29:00,
2013-02-10 06:30:00,44.1,27.1,28.64,West,269,8.3,11.0,51,0.00,,---,0.00,VWS V14.01,2013-02-10 11:30:00,
2013-02-10 06:31:00,34.2,17.0,29.03,SSE,149,3.6,6.3,49,0.00,,---,0.00,VWS V14.01,2013-02-10 11:31:00,
2013-02-10 06:32:00,43.9,26.9,28.64,NW,307,13.9,14.3,51,0.00,,---,0.00,VWS V14.01,2013-02-10 11:32:00,
2013-02-10 06:33:00,43.9,26.9,28.64,West,266,14.8,18.1,51,0.00,,---,0.00,VWS V14.01,2013-02-10 11:33:00,
2013-02-10 06:34:00,43.7,26.8,28.64,West,279,8.3,19.5,51,0.00,,---,0.00,VWS V14.01,2013-02-10 11:34:00,
2013-02-10 06:35:00,43.7,27.2,28.64,WSW,240,9.6,10.5,52,0.00,,---,0.00,VWS V14.01,2013-02-10 11:35:00,
2013-02-10 06:36:00,34.2,16.5,29.03,SE,143,4.0,4.5,48,0.00,,---,0.00,VWS V14.01,2013-02-10 11:36:00,
2013-02-10 06:37:00,43.5,27.5,28.64,West,266,6.9,13.4,53,0.00,,---,0.00,VWS V14.01,2013-02-10 11:37:00,
2013-02-10 06:38:00,43.3,27.4,28.64,West,262,12.5,13.9,53,0.00,,---,0.00,VWS V14.01,2013-02-10 11:38:00,
2013-02-10 06:39:00,43.2,27.7,28.64,West,271,9.6,13.0,54,0.00,,---,0.00,VWS V14.01,2013-02-10 11:39:00,
2013-02-10 06:40:00,43.2,27.7,28.64,NNW,327,11.2,13.0,54,0.00,,---,0.00,VWS V14.01,2013-02-10 11:40:00,
2013-02-10 06:41:00,34.3,16.2,29.03,SE,142,4.5,6.7,47,0.00,,---,0.00,VWS V14.01,2013-02-10 11:41:00,
2013-02-10 06:42:00,43.0,27.5,28.64,WNW,289,11.6,17.7,54,0.00,,---,0.00,VWS V14.01,2013-02-10 11:42:00,
2013-02-10 06:43:00,43.0,27.9,28.64,WNW,289,11.6,17.2,55,0.00,,---,0.00,VWS V14.01,2013-02-10 11:43:00,
2013-02-10 06:44:00,42.8,27.8,28.64,West,273,13.4,15.9,55,0.00,,---,0.00,VWS V14.01,2013-02-10 11:44:00,
2013-02-10 06:45:00,42.8,27.8,28.64,West,275,8.7,15.2,55,0.00,,---,0.00,VWS V14.01,2013-02-10 11:45:00,
2013-02-10 06:46:00,34.5,15.9,29.03,SSE,152,5.8,5.8,46,0.00,,---,0.00,VWS V14.01,2013-02-10 11:46:00,
2013-02-10 06:47:00,42.6,28.0,28.64,West,269,7.4,11.2,56,0.00,,---,0.00,VWS V14.01,2013-02-10 11:47:00,
2013-02-10 06:48:00,42.4,28.3,28.64,West,267,14.3,14.3,57,0.00,,---,0.00,VWS V14.01,2013-02-10 11:48:00,
2013-02-10 06:50:00,42.3,28.1,28.64,NW,311,11.0,18.6,57,0.00,,---,0.00,VWS V14.01,2013-02-10 11:50:00,
2013-02-10 06:51:00,34.5,15.4,29.03,SSE,148,0.0,4.9,45,0.00,,---,0.00,VWS V14.01,2013-02-10 11:51:00,
2013-02-10 06:52:00,42.3,28.5,28.64,WSW,244,14.3,15.4,58,0.00,,---,0.00,VWS V14.01,2013-02-10 11:52:00,
2013-02-10 06:53:00,42.3,28.5,28.64,West,279,9.2,16.3,58,0.00,,---,0.00,VWS V14.01,2013-02-10 11:53:00,
2013-02-10 06:54:00,42.3,28.5,28.64,WSW,253,10.1,13.4,58,0.00,,---,0.00,VWS V14.01,2013-02-10 11:54:00,
2013-02-10 06:55:00,42.1,28.4,28.64,WNW,284,10.1,14.3,58,0.00,,---,0.00,VWS V14.01,2013-02-10 11:55:00,
2013-02-10 06:56:00,34.5,15.4,29.03,SW,223,5.8,6.3,45,0.00,,---,0.00,VWS V14.01,2013-02-10 11:56:00,
2013-02-10 06:57:00,42.1,28.8,28.64,West,268,12.1,18.1,59,0.00,,---,0.00,VWS V14.01,2013-02-10 11:57:00,
2013-02-10 06:58:00,42.1,28.8,28.64,SW,228,9.6,14.8,59,0.00,,---,0.00,VWS V14.01,2013-02-10 11:58:00,
2013-02-10 06:59:00,41.9,28.6,28.64,West,261,11.0,14.8,59,0.00,,---,0.00,VWS V14.01,2013-02-10 11:59:00,
2013-02-10 07:00:00,41.9,29.0,28.64,WSW,257,10.1,11.2,60,0.00,,---,0.00,VWS V14.01,2013-02-10 12:00:00,
2013-02-10 07:01:00,34.5,15.4,29.03,SW,236,4.9,6.7,45,0.00,,---,0.00,VWS V14.01,2013-02-10 12:01:00,
2013-02-10 07:02:00,41.7,29.3,28.64,NW,307,7.4,11.0,61,0.00,,---,0.00,VWS V14.01,2013-02-10 12:02:00,
2013-02-10 07:04:00,41.5,29.1,28.64,WSW,248,15.4,15.4,61,0.00,,---,0.00,VWS V14.01,2013-02-10 12:04:00,
2013-02-10 07:05:00,41.5,29.1,28.64,WNW,290,10.1,15.4,61,0.00,,---,0.00,VWS V14.01,2013-02-10 12:05:00,
2013-02-10 07:06:00,34.5,15.4,29.03,SE,142,6.7,6.7,45,0.00,,---,0.00,VWS V14.01,2013-02-10 12:06:00,
2013-02-10 07:07:00,41.4,29.3,28.64,NW,310,9.6,11.2,62,0.00,,---,0.00,VWS V14.01,2013-02-10 12:07:00,
2013-02-10 07:08:00,41.2,29.2,28.64,WSW,248,5.4,14.8,62,0.00,,---,0.00,VWS V14.01,2013-02-10 12:08:00,
2013-02-10 07:09:00,41.2,29.2,28.64,West,260,11.6,13.4,62,0.00,,---,0.00,VWS V14.01,2013-02-10 12:09:00,
2013-02-10 07:10:00,41.2,29.2,28.64,WSW,247,10.5,15.9,62,0.00,,---,0.00,VWS V14.01,2013-02-10 12:10:00,
2013-02-10 07:11:00,34.5,15.4,29.03,SE,146,0.0,0.0,45,0.00,,---,0.00,VWS V14.01,2013-02-10 12:11:00,
2013-02-10 07:12:00,41.0,29.0,28.64,WNW,291,10.1,19.5,62,0.00,,---,0.00,VWS V14.01,2013-02-10 12:12:00,
2013-02-10 07:13:00,41.0,28.6,28.64,West,262,13.0,15.2,61,0.00,,---,0.00,VWS V14.01,2013-02-10 12:13:00,
2013-02-10 07:14:00,41.0,28.6,28.64,West,271,9.2,16.8,61,0.00,,---,0.00,VWS V14.01,2013-02-10 12:14:00,
2013-02-10 07:15:00,41.0,28.6,28.64,West,275,12.5,15.4,61,0.00,,---,0.00,VWS V14.01,2013-02-10 12:15:00,
2013-02-10 07:16:00,34.5,15.9,29.03,SSE,165,3.1,4.9,46,0.00,,---,0.00,VWS V14.01,2013-02-10 12:16:00,
2013-02-10 07:17:00,41.0,28.2,28.64,West,264,13.4,18.1,60,0.00,,---,0.00,VWS V14.01,2013-02-10 12:17:00,
2013-02-10 07:18:00,41.0,27.8,28.64,SW,218,14.8,18.6,59,0.00,,---,0.00,VWS V14.01,2013-02-10 12:18:00,
2013-02-10 07:19:00,41.0,27.8,28.64,WNW,294,13.0,18.6,59,0.00,,---,0.00,VWS V14.01,2013-02-10 12:19:00,
2013-02-10 07:20:00,41.0,27.8,28.64,West,266,7.8,13.0,59,0.00,,---,0.00,VWS V14.01,2013-02-10 12:20:00,
2013-02-10 07:21:00,34.5,15.9,29.03,South,176,5.4,6.3,46,0.00,,---,0.00,VWS V14.01,2013-02-10 12:21:00,
2013-02-10 07:22:00,40.8,27.6,28.67,West,263,16.8,16.8,59,0.00,,---,0.00,VWS V14.01,2013-02-10 12:22:00,
2013-02-10 07:23:00,40.6,27.5,28.67,WSW,247,10.5,16.8,59,0.00,,---,0.00,VWS V14.01,2013-02-10 12:23:00,
2013-02-10 07:24:00,40.6,27.5,28.67,WSW,252,13.4,16.3,59,0.00,,---,0.00,VWS V14.01,2013-02-10 12:24:00,
2013-02-10 07:25:00,40.6,27.5,28.67,West,274,11.6,14.3,59,0.00,,---,0.00,VWS V14.01,2013-02-10 12:25:00,
2013-02-10 07:26:00,40.6,27.5,28.67,North,8,13.9,17.7,59,0.00,,---,0.00,VWS V14.01,2013-02-10 12:26:00,
2013-02-10 07:27:00,34.5,15.9,29.03,SSE,149,2.7,3.6,46,0.00,,---,0.00,VWS V14.01,2013-02-10 12:27:00,
2013-02-10 07:28:00,40.5,27.3,28.67,WSW,253,9.6,12.1,59,0.00,,---,0.00,VWS V14.01,2013-02-10 12:28:00,
2013-02-10 07:29:00,40.5,27.7,28.67,WSW,240,6.9,15.9,60,0.00,,---,0.00,VWS V14.01,2013-02-10 12:29:00,
2013-02-10 07:30:00,40.5,27.7,28.67,WSW,241,9.6,15.9,60,0.00,,---,0.00,VWS V14.01,2013-02-10 12:30:00,
2013-02-10 07:31:00,40.5,27.7,28.67,West,277,7.8,13.4,60,0.00,,---,0.00,VWS V14.01,2013-02-10 12:31:00,
2013-02-10 07:32:00,40.3,27.5,28.67,West,269,6.9,16.3,60,0.00,,---,0.00,VWS V14.01,2013-02-10 12:32:00,
2013-02-10 07:33:00,34.5,15.9,29.03,South,171,2.7,4.0,46,0.00,,---,0.00,VWS V14.01,2013-02-10 12:33:00,
2013-02-10 07:34:00,40.3,27.5,28.67,West,262,12.1,15.2,60,0.00,,---,0.00,VWS V14.01,2013-02-10 12:34:00,
2013-02-10 07:35:00,40.3,27.9,28.67,WSW,245,7.4,12.5,61,0.00,,---,0.00,VWS V14.01,2013-02-10 12:35:00,
2013-02-10 07:36:00,40.3,27.9,28.67,WNW,286,13.0,16.3,61,0.00,,---,0.00,VWS V14.01,2013-02-10 12:36:00,
2013-02-10 07:37:00,40.1,27.8,28.67,WSW,254,8.3,13.0,61,0.00,,---,0.00,VWS V14.01,2013-02-10 12:37:00,
2013-02-10 07:38:00,40.1,28.1,28.67,WSW,252,13.9,13.9,62,0.00,,---,0.00,VWS V14.01,2013-02-10 12:38:00,
2013-02-10 07:39:00,34.7,15.6,29.03,SSE,149,4.9,6.9,45,0.00,,---,0.00,VWS V14.01,2013-02-10 12:39:00,
2013-02-10 07:40:00,39.9,28.4,28.67,WNW,298,12.1,12.1,63,0.00,,---,0.00,VWS V14.01,2013-02-10 12:40:00,
2013-02-10 07:41:00,39.9,28.4,28.67,WSW,251,11.2,21.5,63,0.00,,---,0.00,VWS V14.01,2013-02-10 12:41:00,
2013-02-10 07:42:00,39.9,28.4,28.67,West,265,15.4,19.5,63,0.00,,---,0.00,VWS V14.01,2013-02-10 12:42:00,
2013-02-10 07:43:00,39.7,28.2,28.67,WNW,302,9.2,15.4,63,0.00,,---,0.00,VWS V14.01,2013-02-10 12:43:00,
2013-02-10 07:44:00,39.7,28.2,28.67,West,268,14.8,14.8,63,0.00,,---,0.00,VWS V14.01,2013-02-10 12:44:00,
2013-02-10 07:45:00,34.7,15.0,29.03,SE,144,4.0,6.3,44,0.00,,---,0.00,VWS V14.01,2013-02-10 12:45:00,
2013-02-10 07:46:00,39.7,27.8,28.67,West,274,16.3,16.3,62,0.00,,---,0.00,VWS V14.01,2013-02-10 12:46:00,
2013-02-10 07:47:00,39.7,27.0,28.67,WSW,240,6.7,18.6,60,0.00,,---,0.00,VWS V14.01,2013-02-10 12:47:00,
2013-02-10 07:48:00,39.7,26.6,28.67,West,269,10.1,17.7,59,0.00,,---,0.00,VWS V14.01,2013-02-10 12:48:00,
2013-02-10 07:49:00,39.7,26.2,28.67,West,266,17.7,17.7,58,0.00,,---,0.00,VWS V14.01,2013-02-10 12:49:00,
2013-02-10 07:50:00,34.9,14.7,29.03,SSE,163,3.1,5.4,43,0.00,,---,0.00,VWS V14.01,2013-02-10 12:50:00,
2013-02-10 07:51:00,39.7,25.3,28.67,West,270,12.5,18.6,56,0.00,,---,0.00,VWS V14.01,2013-02-10 12:51:00,
2013-02-10 07:52:00,39.7,24.9,28.67,WSW,251,6.9,22.4,55,0.00,,---,0.00,VWS V14.01,2013-02-10 12:52:00,
2013-02-10 07:53:00,39.7,24.9,28.67,West,259,7.4,11.2,55,0.00,,---,0.00,VWS V14.01,2013-02-10 12:53:00,
2013-02-10 07:54:00,39.6,24.7,28.67,NNW,336,8.7,15.9,55,0.00,,---,0.00,VWS V14.01,2013-02-10 12:54:00,
2013-02-10 07:55:00,34.9,14.7,29.03,SSE,147,6.9,7.4,43,0.00,,---,0.00,VWS V14.01,2013-02-10 12:55:00,
2013-02-10 07:56:00,39.4,25.0,28.67,West,274,11.0,18.1,56,0.00,,---,0.00,VWS V14.01,2013-02-10 12:56:00,
2013-02-10 07:57:00,39.4,24.6,28.67,WSW,255,10.5,17.7,55,0.00,,---,0.00,VWS V14.01,2013-02-10 12:57:00,
2013-02-10 07:58:00,39.2,24.4,28.67,WSW,240,9.6,13.9,55,0.00,,---,0.00,VWS V14.01,2013-02-10 12:58:00,
2013-02-10 07:59:00,39.2,24.4,28.67,WSW,257,8.3,14.3,55,0.00,,---,0.00,VWS V14.01,2013-02-10 12:59:00,
2013-02-10 08:00:00,35.1,14.3,29.00,SE,142,9.6,9.6,42,0.00,,---,0.00,VWS V14.01,2013-02-10 13:00:00,
2013-02-10 08:01:00,39.2,24.4,28.67,West,268,10.1,14.3,55,0.00,,---,0.00,VWS V14.01,2013-02-10 13:01:00,
2013-02-10 08:02:00,39.0,24.2,28.67,SW,236,13.4,15.2,55,0.00,,---,0.00,VWS V14.01,2013-02-10 13:02:00,
2013-02-10 08:03:00,39.0,24.2,28.67,West,269,11.6,14.3,55,0.00,,---,0.00,VWS V14.01,2013-02-10 13:03:00,
2013-02-10 08:04:00,38.8,24.5,28.67,SW,236,12.5,19.5,56,0.00,,---,0.00,VWS V14.01,2013-02-10 13:04:00,
2013-02-10 08:05:00,35.1,14.3,29.00,South,177,7.8,7.8,42,0.00,,---,0.00,VWS V14.01,2013-02-10 13:05:00,
2013-02-10 08:06:00,38.8,24.5,28.67,WSW,252,16.3,20.6,56,0.00,,---,0.00,VWS V14.01,2013-02-10 13:06:00,
2013-02-10 08:07:00,38.8,24.1,28.67,WSW,248,6.7,19.9,55,0.00,,---,0.00,VWS V14.01,2013-02-10 13:07:00,
2013-02-10 08:08:00,38.8,24.1,28.67,West,260,18.1,18.1,55,0.00,,---,0.00,VWS V14.01,2013-02-10 13:08:00,
2013-02-10 08:09:00,38.7,23.9,28.67,WSW,257,11.0,19.0,55,0.00,,---,0.00,VWS V14.01,2013-02-10 13:09:00,
2013-02-10 08:10:00,35.2,14.5,29.00,SSE,160,3.6,4.9,42,0.00,,---,0.00,VWS V14.01,2013-02-10 13:10:00,
2013-02-10 08:11:00,38.7,23.9,28.67,WSW,243,9.6,18.6,55,0.00,,---,0.00,VWS V14.01,2013-02-10 13:11:00,
2013-02-10 08:12:00,38.7,23.5,28.67,West,261,10.1,15.9,54,0.00,,---,0.00,VWS V14.01,2013-02-10 13:12:00,
2013-02-10 08:13:00,38.7,23.0,28.67,WSW,255,19.0,24.4,53,0.00,,---,0.00,VWS V14.01,2013-02-10 13:13:00,
2013-02-10 08:14:00,38.8,23.2,28.67,West,270,8.3,20.1,53,0.00,,---,0.00,VWS V14.01,2013-02-10 13:14:00,
2013-02-10 08:15:00,38.8,23.2,28.67,WSW,249,11.6,13.4,53,0.00,,---,0.00,VWS V14.01,2013-02-10 13:15:00,
2013-02-10 08:16:00,38.8,22.7,28.67,WSW,241,9.6,21.9,52,0.00,,---,0.00,VWS V14.01,2013-02-10 13:16:00,
2013-02-10 08:17:00,35.4,14.1,29.00,SE,145,6.3,11.0,41,0.00,,---,0.00,VWS V14.01,2013-02-10 13:17:00,
2013-02-10 08:18:00,38.8,22.7,28.67,West,279,9.2,19.5,52,0.00,,---,0.00,VWS V14.01,2013-02-10 13:18:00,
2013-02-10 08:19:00,39.0,22.4,28.67,WSW,245,6.7,14.3,51,0.00,,---,0.00,VWS V14.01,2013-02-10 13:19:00,
2013-02-10 08:20:00,39.0,22.4,28.67,WSW,241,9.2,19.5,51,0.00,,---,0.00,VWS V14.01,2013-02-10 13:20:00,
2013-02-10 08:21:00,39.0,22.0,28.67,SW,230,19.0,21.9,50,0.00,,---,0.00,VWS V14.01,2013-02-10 13:21:00,
2013-02-10 08:22:00,35.4,14.1,29.00,SE,146,8.3,8.3,41,0.00,,---,0.00,VWS V14.01,2013-02-10 13:22:00,
2013-02-10 08:23:00,39.2,21.7,28.67,West,265,15.9,21.9,49,0.00,,---,0.00,VWS V14.01,2013-02-10 13:23:00,
2013-02-10 08:24:00,39.2,21.7,28.67,WNW,297,8.7,19.5,49,0.00,,---,0.00,VWS V14.01,2013-02-10 13:24:00,
2013-02-10 08:25:00,39.2,21.7,28.67,WNW,288,8.3,20.1,49,0.00,,---,0.00,VWS V14.01,2013-02-10 13:25:00,
2013-02-10 08:26:00,39.2,21.7,28.67,West,267,14.3,24.2,49,0.00,,---,0.00,VWS V14.01,2013-02-10 13:26:00,
2013-02-10 08:27:00,35.4,14.1,29.00,SSE,159,4.9,11.0,41,0.00,,---,0.00,VWS V14.01,2013-02-10 13:27:00,
2013-02-10 08:28:00,39.2,21.7,28.67,West,273,7.4,12.5,49,0.00,,---,0.00,VWS V14.01,2013-02-10 13:28:00,
2013-02-10 08:29:00,39.2,21.7,28.67,WSW,257,10.1,19.5,49,0.00,,---,0.00,VWS V14.01,2013-02-10 13:29:00,
2013-02-10 08:30:00,39.2,21.7,28.67,WNW,282,15.9,21.0,49,0.00,,---,0.00,VWS V14.01,2013-02-10 13:30:00,
2013-02-10 08:31:00,39.2,21.7,28.67,SW,232,11.2,19.5,49,0.00,,---,0.00,VWS V14.01,2013-02-10 13:31:00,
2013-02-10 08:32:00,35.6,14.2,29.00,SSE,154,6.3,8.7,41,0.00,,---,0.00,VWS V14.01,2013-02-10 13:32:00,
2013-02-10 08:33:00,39.2,21.7,28.67,WSW,241,8.7,17.2,49,0.00,,---,0.00,VWS V14.01,2013-02-10 13:33:00,
2013-02-10 08:34:00,39.2,21.7,28.67,WSW,254,13.0,19.0,49,0.00,,---,0.00,VWS V14.01,2013-02-10 13:34:00,
2013-02-10 08:35:00,39.2,21.7,28.67,NW,325,13.9,18.1,49,0.00,,---,0.00,VWS V14.01,2013-02-10 13:35:00,
2013-02-10 08:36:00,39.2,21.7,28.67,West,262,7.8,13.9,49,0.00,,---,0.00,VWS V14.01,2013-02-10 13:36:00,
2013-02-10 08:37:00,39.0,21.5,28.70,West,276,13.4,16.8,49,0.00,,---,0.00,VWS V14.01,2013-02-10 13:37:00,
2013-02-10 08:38:00,39.2,21.7,28.70,West,264,13.0,28.4,49,0.00,,---,0.00,VWS V14.01,2013-02-10 13:38:00,
2013-02-10 08:39:00,39.2,21.7,28.70,West,268,15.9,20.6,49,0.00,,---,0.00,VWS V14.01,2013-02-10 13:39:00,
2013-02-10 08:40:00,39.2,21.7,28.70,West,279,14.3,19.0,49,0.00,,---,0.00,VWS V14.01,2013-02-10 13:40:00,
2013-02-10 08:41:00,39.2,21.7,28.70,West,265,11.6,15.2,49,0.00,,---,0.00,VWS V14.01,2013-02-10 13:41:00,
2013-02-10 08:42:00,39.0,21.5,28.70,West,269,22.8,22.8,49,0.00,,---,0.00,VWS V14.01,2013-02-10 13:42:00,
2013-02-10 08:43:00,39.0,21.5,28.70,WNW,285,19.0,22.8,49,0.00,,---,0.00,VWS V14.01,2013-02-10 13:43:00,
2013-02-10 08:44:00,39.0,21.5,28.70,NW,315,13.4,19.0,49,0.00,,---,0.00,VWS V14.01,2013-02-10 13:44:00,
2013-02-10 08:45:00,39.0,22.0,28.70,WSW,246,15.2,21.9,50,0.00,,---,0.00,VWS V14.01,2013-02-10 13:45:00,
2013-02-10 08:46:00,39.0,22.0,28.70,WSW,258,12.5,23.3,50,0.00,,---,0.00,VWS V14.01,2013-02-10 13:46:00,
2013-02-10 08:47:00,38.8,21.8,28.70,West,269,13.0,19.0,50,0.00,,---,0.00,VWS V14.01,2013-02-10 13:47:00,
2013-02-10 08:48:00,38.8,22.3,28.70,West,270,9.6,18.6,51,0.00,,---,0.00,VWS V14.01,2013-02-10 13:48:00,
2013-02-10 08:49:00,38.8,22.3,28.70,West,263,21.0,23.3,51,0.00,,---,0.00,VWS V14.01,2013-02-10 13:49:00,
2013-02-10 08:50:00,38.8,22.3,28.70,WSW,252,13.0,21.0,51,0.00,,---,0.00,VWS V14.01,2013-02-10 13:50:00,
2013-02-10 08:51:00,38.8,22.3,28.70,WNW,294,15.4,22.8,51,0.00,,---,0.00,VWS V14.01,2013-02-10 13:51:00,
2013-02-10 08:52:00,38.7,22.1,28.70,WSW,240,19.9,27.5,51,0.00,,---,0.00,VWS V14.01,2013-02-10 13:52:00,
2013-02-10 08:53:00,38.7,22.6,28.70,WSW,257,16.3,24.2,52,0.00,,---,0.00,VWS V14.01,2013-02-10 13:53:00,
2013-02-10 08:54:00,38.7,22.6,28.70,WSW,245,13.4,18.1,52,0.00,,---,0.00,VWS V14.01,2013-02-10 13:54:00,
2013-02-10 08:55:00,38.7,23.0,28.70,West,278,17.7,17.7,53,0.00,,---,0.00,VWS V14.01,2013-02-10 13:55:00,
2013-02-10 08:56:00,38.7,23.0,28.70,WNW,289,14.3,17.7,53,0.00,,---,0.00,VWS V14.01,2013-02-10 13:56:00,
2013-02-10 08:57:00,38.5,23.3,28.70,NW,309,15.9,17.2,54,0.00,,---,0.00,VWS V14.01,2013-02-10 13:57:00,
2013-02-10 08:58:00,38.3,22.7,28.70,NW,318,13.4,24.8,53,0.00,,---,0.00,VWS V14.01,2013-02-10 13:58:00,
2013-02-10 08:59:00,38.1,22.5,28.70,NNW,334,11.6,16.3,53,0.00,,---,0.00,VWS V14.01,2013-02-10 13:59:00,
2013-02-10 09:00:00,37.9,22.4,28.70,WNW,302,19.0,19.9,53,0.00,,---,0.00,VWS V14.01,2013-02-10 14:00:00,
2013-02-10 09:01:00,37.9,22.4,28.70,WNW,300,10.5,19.0,53,0.00,,---,0.00,VWS V14.01,2013-02-10 14:01:00,
2013-02-10 09:02:00,37.8,22.2,28.70,WSW,239,10.1,23.3,53,0.00,,---,0.00,VWS V14.01,2013-02-10 14:02:00,
2013-02-10 09:03:00,37.6,21.6,28.70,NW,311,9.2,15.9,52,0.00,,---,0.00,VWS V14.01,2013-02-10 14:03:00,
2013-02-10 09:04:00,37.6,21.6,28.70,WNW,286,8.3,16.8,52,0.00,,---,0.00,VWS V14.01,2013-02-10 14:04:00,
2013-02-10 09:05:00,37.4,21.4,28.70,West,271,10.5,18.1,52,0.00,,---,0.00,VWS V14.01,2013-02-10 14:05:00,
2013-02-10 09:06:00,37.4,21.9,28.70,WNW,296,6.9,16.8,53,0.00,,---,0.00,VWS V14.01,2013-02-10 14:06:00,
2013-02-10 09:07:00,37.2,21.7,28.70,SSW,203,15.2,17.7,53,0.00,,---,0.00,VWS V14.01,2013-02-10 14:07:00,
2013-02-10 09:08:00,37.2,21.7,28.70,WSW,244,7.4,15.2,53,0.00,,---,0.00,VWS V14.01,2013-02-10 14:08:00,
2013-02-10 09:09:00,37.0,21.5,28.70,WNW,299,12.5,19.0,53,0.00,,---,0.00,VWS V14.01,2013-02-10 14:09:00,
2013-02-10 09:10:00,37.0,21.5,28.70,WSW,242,7.4,19.9,53,0.00,,---,0.00,VWS V14.01,2013-02-10 14:10:00,
2013-02-10 09:11:00,37.0,21.5,28.70,West,271,6.9,13.0,53,0.00,,---,0.00,VWS V14.01,2013-02-10 14:11:00,
2013-02-10 09:12:00,37.0,22.0,28.70,West,273,11.6,15.4,54,0.00,,---,0.00,VWS V14.01,2013-02-10 14:12:00,
2013-02-10 09:13:00,37.0,21.5,28.70,SW,225,14.3,16.3,53,0.00,,---,0.00,VWS V14.01,2013-02-10 14:13:00,
2013-02-10 09:14:00,37.0,21.5,28.70,SW,235,9.2,18.6,53,0.00,,---,0.00,VWS V14.01,2013-02-10 14:14:00,
2013-02-10 09:15:00,37.0,21.5,28.70,West,261,19.0,20.1,53,0.00,,---,0.00,VWS V14.01,2013-02-10 14:15:00,
2013-02-10 09:16:00,37.0,21.5,28.70,West,280,11.6,19.0,53,0.00,,---,0.00,VWS V14.01,2013-02-10 14:16:00,
2013-02-10 09:17:00,37.0,21.5,28.70,West,272,11.2,16.3,53,0.00,,---,0.00,VWS V14.01,2013-02-10 14:17:00,
2013-02-10 09:18:00,37.0,21.1,28.70,SW,229,11.0,15.4,52,0.00,,---,0.00,VWS V14.01,2013-02-10 14:18:00,
2013-02-10 09:19:00,37.0,21.1,28.70,WSW,257,16.8,21.9,52,0.00,,---,0.00,VWS V14.01,2013-02-10 14:19:00,
2013-02-10 09:20:00,37.0,20.6,28.70,WSW,248,13.0,17.7,51,0.00,,---,0.00,VWS V14.01,2013-02-10 14:20:00,
2013-02-10 09:21:00,37.0,20.6,28.70,West,261,13.0,19.9,51,0.00,,---,0.00,VWS V14.01,2013-02-10 14:21:00,
2013-02-10 09:22:00,37.0,20.6,28.70,WNW,287,15.4,16.8,51,0.00,,---,0.00,VWS V14.01,2013-02-10 14:22:00,
2013-02-10 09:23:00,37.0,20.6,28.70,WSW,242,16.8,21.9,51,0.00,,---,0.00,VWS V14.01,2013-02-10 14:23:00,
2013-02-10 09:24:00,37.0,20.1,28.70,WNW,293,13.4,20.6,50,0.00,,---,0.00,VWS V14.01,2013-02-10 14:24:00,
2013-02-10 09:25:00,37.0,20.1,28.70,WSW,248,8.7,21.5,50,0.00,,---,0.00,VWS V14.01,2013-02-10 14:25:00,
2013-02-10 09:27:00,37.0,20.1,28.70,WNW,291,10.1,13.0,50,0.00,,---,0.00,VWS V14.01,2013-02-10 14:27:00,
2013-02-10 09:28:00,37.0,20.1,28.70,WSW,253,13.4,15.2,50,0.00,,---,0.00,VWS V14.01,2013-02-10 14:28:00,
2013-02-10 09:29:00,37.8,15.0,29.00,SSW,201,4.5,6.7,39,0.00,,---,0.00,VWS V14.01,2013-02-10 14:29:00,
2013-02-10 09:30:00,37.0,20.1,28.70,WNW,285,11.0,15.2,50,0.00,,---,0.00,VWS V14.01,2013-02-10 14:30:00,
2013-02-10 09:31:00,37.0,20.1,28.70,West,261,12.1,20.6,50,0.00,,---,0.00,VWS V14.01,2013-02-10 14:31:00,
2013-02-10 09:32:00,37.0,19.7,28.70,WSW,248,13.0,20.1,49,0.00,,---,0.00,VWS V14.01,2013-02-10 14:32:00,
2013-02-10 09:33:00,37.0,19.7,28.70,SW,229,12.1,15.9,49,0.00,,---,0.00,VWS V14.01,2013-02-10 14:33:00,
2013-02-10 09:34:00,37.9,15.8,29.00,SSE,162,0.0,5.8,40,0.00,,---,0.00,VWS V14.01,2013-02-10 14:34:00,
2013-02-10 09:35:00,37.0,20.1,28.70,WNW,297,9.6,13.9,50,0.00,,---,0.00,VWS V14.01,2013-02-10 14:35:00,
2013-02-10 09:36:00,37.0,20.1,28.70,SW,234,11.6,20.1,50,0.00,,---,0.00,VWS V14.01,2013-02-10 14:36:00,
2013-02-10 09:37:00,37.0,20.1,28.73,WNW,288,12.5,19.9,50,0.00,,---,0.00,VWS V14.01,2013-02-10 14:37:00,
2013-02-10 09:38:00,37.0,20.1,28.73,WNW,292,16.8,16.8,50,0.00,,---,0.00,VWS V14.01,2013-02-10 14:38:00,
2013-02-10 09:39:00,38.1,15.9,29.00,South,191,3.1,6.7,40,0.00,,---,0.00,VWS V14.01,2013-02-10 14:39:00,
2013-02-10 09:40:00,37.0,20.1,28.73,West,259,11.6,19.9,50,0.00,,---,0.00,VWS V14.01,2013-02-10 14:40:00,
2013-02-10 09:41:00,37.0,19.7,28.73,WNW,293,8.7,16.3,49,0.00,,---,0.00,VWS V14.01,2013-02-10 14:41:00,
2013-02-10 09:42:00,37.0,19.7,28.73,West,274,13.9,18.6,49,0.00,,---,0.00,VWS V14.01,2013-02-10 14:42:00,
2013-02-10 09:43:00,37.0,19.7,28.73,NW,307,12.5,18.6,49,0.00,,---,0.00,VWS V14.01,2013-02-10 14:43:00,
2013-02-10 09:44:00,38.5,16.3,29.00,SSW,198,3.1,6.3,40,0.00,,---,0.00,VWS V14.01,2013-02-10 14:44:00,
2013-02-10 09:45:00,37.0,19.7,28.73,WSW,237,13.9,21.5,49,0.00,,---,0.00,VWS V14.01,2013-02-10 14:45:00,
2013-02-10 09:46:00,37.0,19.7,28.73,WSW,252,8.3,15.9,49,0.00,,---,0.00,VWS V14.01,2013-02-10 14:46:00,
2013-02-10 09:47:00,37.0,19.7,28.73,West,265,11.2,14.8,49,0.00,,---,0.00,VWS V14.01,2013-02-10 14:47:00,
2013-02-10 09:48:00,36.9,19.5,28.73,WSW,254,13.9,16.3,49,0.00,,---,0.00,VWS V14.01,2013-02-10 14:48:00,
2013-02-10 09:49:00,38.7,16.4,29.00,SSE,160,4.0,8.7,40,0.00,,---,0.00,VWS V14.01,2013-02-10 14:49:00,
2013-02-10 09:50:00,36.9,20.0,28.73,WNW,288,10.1,14.8,50,0.00,,---,0.00,VWS V14.01,2013-02-10 14:50:00,
2013-02-10 09:51:00,36.9,20.0,28.73,WSW,246,13.9,13.9,50,0.00,,---,0.00,VWS V14.01,2013-02-10 14:51:00,
2013-02-10 09:52:00,36.9,20.0,28.73,West,267,7.8,19.5,50,0.00,,---,0.00,VWS V14.01,2013-02-10 14:52:00,
2013-02-10 09:53:00,36.9,20.0,28.73,WSW,248,10.5,15.2,50,0.00,,---,0.00,VWS V14.01,2013-02-10 14:53:00,
2013-02-10 09:54:00,39.0,17.3,29.00,South,170,4.0,6.3,41,0.00,,---,0.00,VWS V14.01,2013-02-10 14:54:00,
2013-02-10 09:55:00,36.9,20.0,28.73,SW,230,5.8,15.9,50,0.00,,---,0.00,VWS V14.01,2013-02-10 14:55:00,
2013-02-10 09:56:00,36.9,20.0,28.73,WSW,248,11.0,15.9,50,0.00,,---,0.00,VWS V14.01,2013-02-10 14:56:00,
2013-02-10 09:57:00,36.9,20.0,28.73,WSW,242,11.0,15.2,50,0.00,,---,0.00,VWS V14.01,2013-02-10 14:57:00,
2013-02-10 09:58:00,36.9,20.4,28.73,WSW,251,16.8,16.8,51,0.00,,---,0.00,VWS V14.01,2013-02-10 14:58:00,
2013-02-10 09:59:00,39.0,17.9,29.00,SE,145,4.0,6.9,42,0.00,,---,0.00,VWS V14.01,2013-02-10 14:59:00,
2013-02-10 10:00:00,36.9,20.0,28.73,WSW,243,11.0,16.8,50,0.00,,---,0.00,VWS V14.01,2013-02-10 15:00:00,
2013-02-10 10:01:00,36.9,20.4,28.73,SW,231,12.1,16.8,51,0.00,,---,0.00,VWS V14.01,2013-02-10 15:01:00,
2013-02-10 10:02:00,36.9,20.4,28.73,West,281,11.0,15.4,51,0.00,,---,0.00,VWS V14.01,2013-02-10 15:02:00,
2013-02-10 10:03:00,36.9,20.4,28.73,SSW,208,5.4,13.4,51,0.00,,---,0.00,VWS V14.01,2013-02-10 15:03:00,
2013-02-10 10:04:00,39.0,18.4,29.00,SW,221,5.4,7.8,43,0.00,,---,0.00,VWS V14.01,2013-02-10 15:04:00,
2013-02-10 10:05:00,36.9,20.4,28.73,SW,234,9.6,11.2,51,0.00,,---,0.00,VWS V14.01,2013-02-10 15:05:00,
2013-02-10 10:06:00,36.9,20.4,28.73,WNW,288,8.7,19.9,51,0.00,,---,0.00,VWS V14.01,2013-02-10 15:06:00,
2013-02-10 10:07:00,36.9,20.4,28.73,SW,214,12.1,14.3,51,0.00,,---,0.00,VWS V14.01,2013-02-10 15:07:00,
2013-02-10 10:08:00,36.9,20.9,28.73,WSW,255,8.7,12.1,52,0.00,,---,0.00,VWS V14.01,2013-02-10 15:08:00,
2013-02-10 10:09:00,39.2,19.7,29.00,South,182,4.5,5.8,45,0.00,,---,0.00,VWS V14.01,2013-02-10 15:09:00,
2013-02-10 10:10:00,36.9,20.9,28.73,WSW,238,15.4,15.4,52,0.00,,---,0.00,VWS V14.01,2013-02-10 15:10:00,
2013-02-10 10:11:00,36.9,20.9,28.73,West,265,8.7,15.4,52,0.00,,---,0.00,VWS V14.01,2013-02-10 15:11:00,
2013-02-10 10:12:00,36.9,20.9,28.73,WSW,248,7.4,13.0,52,0.00,,---,0.00,VWS V14.01,2013-02-10 15:12:00,
2013-02-10 10:13:00,36.9,20.9,28.73,WSW,253,6.9,13.0,52,0.00,,---,0.00,VWS V14.01,2013-02-10 15:13:00,
2013-02-10 10:14:00,39.4,20.8,29.00,SSW,196,3.1,7.8,47,0.00,,---,0.00,VWS V14.01,2013-02-10 15:14:00,
2013-02-10 10:15:00,36.9,20.9,28.73,West,280,11.6,13.4,52,0.00,,---,0.00,VWS V14.01,2013-02-10 15:15:00,
2013-02-10 10:16:00,36.9,20.9,28.73,West,265,9.2,15.4,52,0.00,,---,0.00,VWS V14.01,2013-02-10 15:16:00,
2013-02-10 10:17:00,36.9,20.9,28.73,West,270,14.3,15.2,52,0.00,,---,0.00,VWS V14.01,2013-02-10 15:17:00,
2013-02-10 10:18:00,36.9,20.9,28.73,WSW,241,6.7,14.3,52,0.00,,---,0.00,VWS V14.01,2013-02-10 15:18:00,
2013-02-10 10:19:00,39.6,22.0,29.00,South,184,7.8,7.8,49,0.00,,---,0.00,VWS V14.01,2013-02-10 15:19:00,
2013-02-10 10:20:00,36.9,20.9,28.73,WSW,249,8.7,13.9,52,0.00,,---,0.00,VWS V14.01,2013-02-10 15:20:00,
2013-02-10 10:21:00,36.9,20.9,28.73,West,275,13.4,18.1,52,0.00,,---,0.00,VWS V14.01,2013-02-10 15:21:00,
2013-02-10 10:22:00,36.9,20.4,28.73,WNW,282,9.2,18.1,51,0.00,,---,0.00,VWS V14.01,2013-02-10 15:22:00,
2013-02-10 10:23:00,36.9,20.4,28.73,WSW,254,10.1,11.2,51,0.00,,---,0.00,VWS V14.01,2013-02-10 15:23:00,
2013-02-10 10:24:00,39.7,22.2,29.00,WSW,237,7.4,7.4,49,0.00,,---,0.00,VWS V14.01,2013-02-10 15:24:00,
2013-02-10 10:25:00,36.9,20.4,28.73,WSW,258,10.1,19.9,51,0.00,,---,0.00,VWS V14.01,2013-02-10 15:25:00,
2013-02-10 10:26:00,36.9,20.4,28.73,WSW,248,14.8,14.8,51,0.00,,---,0.00,VWS V14.01,2013-02-10 15:26:00,
2013-02-10 10:27:00,36.9,20.4,28.73,WSW,251,9.6,15.9,51,0.00,,---,0.00,VWS V14.01,2013-02-10 15:27:00,
2013-02-10 10:28:00,36.9,20.4,28.73,West,278,11.2,11.2,51,0.00,,---,0.00,VWS V14.01,2013-02-10 15:28:00,
2013-02-10 10:29:00,39.7,23.1,29.00,SSE,166,6.3,6.9,51,0.00,,---,0.00,VWS V14.01,2013-02-10 15:29:00,
2013-02-10 10:30:00,36.9,20.4,28.73,West,269,9.2,14.8,51,0.00,,---,0.00,VWS V14.01,2013-02-10 15:30:00,
2013-02-10 10:31:00,36.9,20.4,28.73,WSW,246,14.8,17.2,51,0.00,,---,0.00,VWS V14.01,2013-02-10 15:31:00,
2013-02-10 10:32:00,36.9,20.4,28.73,West,263,13.9,15.4,51,0.00,,---,0.00,VWS V14.01,2013-02-10 15:32:00,
2013-02-10 10:33:00,36.9,20.0,28.73,WSW,250,15.2,21.0,50,0.00,,---,0.00,VWS V14.01,2013-02-10 15:33:00,
2013-02-10 10:34:00,39.7,24.0,29.00,South,169,3.1,6.9,53,0.00,,---,0.00,VWS V14.01,2013-02-10 15:34:00,
2013-02-10 10:35:00,36.9,20.0,28.73,WNW,300,10.5,12.5,50,0.00,,---,0.00,VWS V14.01,2013-02-10 15:35:00,
2013-02-10 10:36:00,36.9,20.4,28.73,WNW,283,11.6,16.8,51,0.00,,---,0.00,VWS V14.01,2013-02-10 15:36:00,
2013-02-10 10:37:00,36.9,20.4,28.73,West,261,13.4,21.0,51,0.00,,---,0.00,VWS V14.01,2013-02-10 15:37:00,
2013-02-10 10:38:00,36.9,20.4,28.73,West,274,11.0,13.9,51,0.00,,---,0.00,VWS V14.01,2013-02-10 15:38:00,
2013-02-10 10:39:00,39.9,25.5,29.00,SSE,162,0.0,5.4,56,0.00,,---,0.00,VWS V14.01,2013-02-10 15:39:00,
2013-02-10 10:40:00,36.9,20.9,28.73,West,268,9.2,12.5,52,0.00,,---,0.00,VWS V14.01,2013-02-10 15:40:00,
2013-02-10 10:41:00,36.9,20.9,28.73,WSW,243,11.2,11.6,52,0.00,,---,0.00,VWS V14.01,2013-02-10 15:41:00,
2013-02-10 10:42:00,36.9,20.9,28.73,WSW,237,20.1,20.1,52,0.00,,---,0.00,VWS V14.01,2013-02-10 15:42:00,
2013-02-10 10:43:00,36.7,20.7,28.73,NW,311,10.1,20.1,52,0.00,,---,0.00,VWS V14.01,2013-02-10 15:43:00,
2013-02-10 10:44:00,40.3,26.7,28.97,South,175,5.4,5.8,58,0.00,,---,0.00,VWS V14.01,2013-02-10 15:44:00,
2013-02-10 10:45:00,36.7,20.7,28.73,WSW,257,14.3,19.5,52,0.00,,---,0.00,VWS V14.01,2013-02-10 15:45:00,
2013-02-10 10:46:00,36.7,21.2,28.73,WSW,250,5.4,14.3,53,0.00,,---,0.00,VWS V14.01,2013-02-10 15:46:00,
2013-02-10 10:47:00,36.7,21.2,28.73,WSW,246,10.5,15.4,53,0.00,,---,0.00,VWS V14.01,2013-02-10 15:47:00,
2013-02-10 10:48:00,36.7,21.2,28.73,West,281,5.8,11.2,53,0.00,,---,0.00,VWS V14.01,2013-02-10 15:48:00,
2013-02-10 10:49:00,40.6,27.9,28.97,SSW,200,3.6,5.4,60,0.00,,---,0.00,VWS V14.01,2013-02-10 15:49:00,
2013-02-10 10:50:00,36.5,21.0,28.73,NW,313,10.5,18.1,53,0.00,,---,0.00,VWS V14.01,2013-02-10 15:50:00,
2013-02-10 10:51:00,36.3,20.4,28.73,West,275,13.0,20.6,52,0.00,,---,0.00,VWS V14.01,2013-02-10 15:51:00,
2013-02-10 10:52:00,36.3,19.9,28.73,West,275,9.6,20.6,51,0.00,,---,0.00,VWS V14.01,2013-02-10 15:52:00,
2013-02-10 10:53:00,36.3,19.9,28.73,WSW,244,18.1,20.6,51,0.00,,---,0.00,VWS V14.01,2013-02-10 15:53:00,
2013-02-10 10:54:00,41.2,28.8,28.97,SSW,200,4.0,6.3,61,0.00,,---,0.00,VWS V14.01,2013-02-10 15:54:00,
2013-02-10 10:55:00,36.3,19.5,28.73,WNW,289,14.3,22.4,50,0.00,,---,0.00,VWS V14.01,2013-02-10 15:55:00,
2013-02-10 10:56:00,36.1,19.3,28.73,NW,311,11.6,15.2,50,0.00,,---,0.00,VWS V14.01,2013-02-10 15:56:00,
2013-02-10 10:57:00,36.1,19.3,28.73,WSW,240,9.6,19.0,50,0.00,,---,0.00,VWS V14.01,2013-02-10 15:57:00,
2013-02-10 10:58:00,36.1,19.3,28.73,WSW,252,14.8,17.7,50,0.00,,---,0.00,VWS V14.01,2013-02-10 15:58:00,
2013-02-10 10:59:00,41.5,29.1,28.97,South,183,3.1,6.7,61,0.00,,---,0.00,VWS V14.01,2013-02-10 15:59:00,
2013-02-10 11:00:00,36.1,19.8,28.73,WSW,244,17.2,17.2,51,0.00,,---,0.00,VWS V14.01,2013-02-10 16:00:00,
2013-02-10 11:01:00,36.1,19.8,28.73,West,272,7.4,19.9,51,0.00,,---,0.00,VWS V14.01,2013-02-10 16:01:00,
2013-02-10 11:02:00,36.1,19.3,28.73,WSW,252,13.9,21.0,50,0.00,,---,0.00,VWS V14.01,2013-02-10 16:02:00,
2013-02-10 11:03:00,36.1,19.8,28.73,SW,231,8.7,15.9,51,0.00,,---,0.00,VWS V14.01,2013-02-10 16:03:00,
2013-02-10 11:04:00,42.1,29.2,28.97,SSW,207,4.5,6.9,60,0.00,,---,0.00,VWS V14.01,2013-02-10 16:04:00,
2013-02-10 11:05:00,36.0,19.6,28.73,West,279,13.0,21.0,51,0.00,,---,0.00,VWS V14.01,2013-02-10 16:05:00,
2013-02-10 11:06:00,36.0,19.6,28.73,WNW,287,18.6,18.6,51,0.00,,---,0.00,VWS V14.01,2013-02-10 16:06:00,
2013-02-10 11:07:00,36.0,19.6,28.76,WNW,287,13.0,18.6,51,0.00,,---,0.00,VWS V14.01,2013-02-10 16:07:00,
2013-02-10 11:08:00,36.0,19.6,28.76,NW,309,13.0,14.8,51,0.00,,---,0.00,VWS V14.01,2013-02-10 16:08:00,
2013-02-10 11:09:00,42.1,28.8,28.97,South,179,5.4,6.7,59,0.00,,---,0.00,VWS V14.01,2013-02-10 16:09:00,
2013-02-10 11:10:00,36.0,20.1,28.76,West,269,7.8,18.1,52,0.00,,---,0.00,VWS V14.01,2013-02-10 16:10:00,
2013-02-10 11:11:00,35.8,19.9,28.76,West,262,9.2,14.3,52,0.00,,---,0.00,VWS V14.01,2013-02-10 16:11:00,
2013-02-10 11:12:00,36.0,20.1,28.76,West,269,15.2,15.9,52,0.00,,---,0.00,VWS V14.01,2013-02-10 16:12:00,
2013-02-10 11:13:00,35.8,19.9,28.76,West,281,11.2,19.0,52,0.00,,---,0.00,VWS V14.01,2013-02-10 16:13:00,
2013-02-10 11:14:00,42.4,29.1,28.94,South,174,9.2,9.2,59,0.00,,---,0.00,VWS V14.01,2013-02-10 16:14:00,
2013-02-10 11:15:00,35.8,19.4,28.76,WNW,282,9.6,17.7,51,0.00,,---,0.00,VWS V14.01,2013-02-10 16:15:00,
2013-02-10 11:16:00,35.8,19.9,28.76,WSW,238,13.4,14.3,52,0.00,,---,0.00,VWS V14.01,2013-02-10 16:16:00,
2013-02-10 11:17:00,35.8,19.9,28.76,NW,313,9.6,15.9,52,0.00,,---,0.00,VWS V14.01,2013-02-10 16:17:00,
2013-02-10 11:18:00,35.8,19.9,28.76,WSW,242,11.6,12.1,52,0.00,,---,0.00,VWS V14.01,2013-02-10 16:18:00,
2013-02-10 11:19:00,42.8,29.5,28.94,SSE,152,6.3,7.8,59,0.00,,---,0.00,VWS V14.01,2013-02-10 16:19:00,
2013-02-10 11:20:00,35.8,19.9,28.76,NW,308,13.0,15.9,52,0.00,,---,0.00,VWS V14.01,2013-02-10 16:20:00,
2013-02-10 11:21:00,35.8,19.9,28.76,SW,235,15.2,15.2,52,0.00,,---,0.00,VWS V14.01,2013-02-10 16:21:00,
2013-02-10 11:22:00,35.8,19.9,28.76,NW,319,11.0,16.3,52,0.00,,---,0.00,VWS V14.01,2013-02-10 16:22:00,
2013-02-10 11:23:00,35.8,19.9,28.76,West,259,9.6,18.6,52,0.00,,---,0.00,VWS V14.01,2013-02-10 16:23:00,
2013-02-10 11:24:00,43.2,29.4,28.94,SSE,163,5.8,6.3,58,0.00,,---,0.00,VWS V14.01,2013-02-10 16:24:00,
2013-02-10 11:25:00,35.8,19.9,28.76,WSW,243,8.7,15.4,52,0.00,,---,0.00,VWS V14.01,2013-02-10 16:25:00,
2013-02-10 11:26:00,35.8,19.9,28.76,SW,226,8.3,13.0,52,0.00,,---,0.00,VWS V14.01,2013-02-10 16:26:00,
2013-02-10 11:27:00,35.8,19.9,28.76,WNW,293,7.4,11.0,52,0.00,,---,0.00,VWS V14.01,2013-02-10 16:27:00,
2013-02-10 11:28:00,35.8,19.9,28.76,WSW,252,8.3,14.3,52,0.00,,---,0.00,VWS V14.01,2013-02-10 16:28:00,
2013-02-10 11:29:00,43.5,29.3,28.94,SSW,210,5.4,9.6,57,0.00,,---,0.00,VWS V14.01,2013-02-10 16:29:00,
2013-02-10 11:30:00,35.8,19.9,28.76,WSW,244,13.4,16.3,52,0.00,,---,0.00,VWS V14.01,2013-02-10 16:30:00,
2013-02-10 11:31:00,35.8,19.4,28.76,WNW,293,11.6,17.2,51,0.00,,---,0.00,VWS V14.01,2013-02-10 16:31:00,
2013-02-10 11:32:00,35.8,19.4,28.76,WSW,258,12.5,20.6,51,0.00,,---,0.00,VWS V14.01,2013-02-10 16:32:00,
2013-02-10 11:33:00,35.8,19.4,28.76,WSW,257,14.8,23.7,51,0.00,,---,0.00,VWS V14.01,2013-02-10 16:33:00,
2013-02-10 11:34:00,44.1,29.4,28.94,SSE,152,4.9,5.4,56,0.00,,---,0.00,VWS V14.01,2013-02-10 16:34:00,
2013-02-10 11:35:00,36.0,19.6,28.76,West,278,11.2,17.7,51,0.00,,---,0.00,VWS V14.01,2013-02-10 16:35:00,
2013-02-10 11:36:00,36.1,19.8,28.76,WSW,251,18.1,21.5,51,0.00,,---,0.00,VWS V14.01,2013-02-10 16:36:00,
2013-02-10 11:37:00,36.1,19.8,28.76,West,280,14.8,21.9,51,0.00,,---,0.00,VWS V14.01,2013-02-10 16:37:00,
2013-02-10 11:38:00,36.1,19.3,28.76,WSW,241,8.3,15.4,50,0.00,,---,0.00,VWS V14.01,2013-02-10 16:38:00,
2013-02-10 11:39:00,44.8,29.2,28.94,SSE,163,3.1,7.4,54,0.00,,---,0.00,VWS V14.01,2013-02-10 16:39:00,
2013-02-10 11:40:00,36.1,19.8,28.76,WNW,296,13.9,18.1,51,0.00,,---,0.00,VWS V14.01,2013-02-10 16:40:00,
2013-02-10 11:41:00,36.1,19.3,28.76,WSW,247,21.5,21.5,50,0.00,,---,0.00,VWS V14.01,2013-02-10 16:41:00,
2013-02-10 11:42:00,36.1,19.3,28.76,WNW,282,9.2,21.5,50,0.00,,---,0.00,VWS V14.01,2013-02-10 16:42:00,
2013-02-10 11:43:00,36.1,19.3,28.76,West,260,17.2,21.9,50,0.00,,---,0.00,VWS V14.01,2013-02-10 16:43:00,
2013-02-10 11:44:00,44.8,27.8,28.91,SSE,163,3.6,8.7,51,0.00,,---,0.00,VWS V14.01,2013-02-10 16:44:00,
2013-02-10 11:45:00,36.1,19.3,28.76,WNW,302,11.2,12.5,50,0.00,,---,0.00,VWS V14.01,2013-02-10 16:45:00,
2013-02-10 11:46:00,36.1,19.3,28.76,WSW,255,11.0,16.3,50,0.00,,---,0.00,VWS V14.01,2013-02-10 16:46:00,
2013-02-10 11:47:00,36.0,19.1,28.76,WNW,292,11.6,21.0,50,0.00,,---,0.00,VWS V14.01,2013-02-10 16:47:00,
2013-02-10 11:48:00,35.8,18.5,28.76,WNW,297,21.5,21.5,49,0.00,,---,0.00,VWS V14.01,2013-02-10 16:48:00,
2013-02-10 11:49:00,45.3,28.3,28.91,SSE,147,5.8,5.8,51,0.00,,---,0.00,VWS V14.01,2013-02-10 16:49:00,
2013-02-10 11:50:00,35.8,18.5,28.76,WNW,294,17.2,21.9,49,0.00,,---,0.00,VWS V14.01,2013-02-10 16:50:00,
2013-02-10 11:51:00,35.8,18.5,28.76,WNW,300,9.6,17.2,49,0.00,,---,0.00,VWS V14.01,2013-02-10 16:51:00,
2013-02-10 11:52:00,35.8,18.5,28.76,WNW,289,13.0,18.1,49,0.00,,---,0.00,VWS V14.01,2013-02-10 16:52:00,
2013-02-10 11:53:00,35.8,18.5,28.76,West,272,8.7,15.4,49,0.00,,---,0.00,VWS V14.01,2013-02-10 16:53:00,
2013-02-10 11:54:00,45.7,27.1,28.91,South,180,6.7,8.7,48,0.00,,---,0.00,VWS V14.01,2013-02-10 16:54:00,
2013-02-10 11:55:00,35.8,19.0,28.76,West,266,13.9,15.4,50,0.00,,---,0.00,VWS V14.01,2013-02-10 16:55:00,
2013-02-10 11:56:00,35.8,19.0,28.76,North,351,12.5,16.8,50,0.00,,---,0.00,VWS V14.01,2013-02-10 16:56:00,
2013-02-10 11:57:00,35.6,18.8,28.76,SW,223,17.7,20.1,50,0.00,,---,0.00,VWS V14.01,2013-02-10 16:57:00,
2013-02-10 11:58:00,35.6,18.8,28.76,West,263,10.1,20.6,50,0.00,,---,0.00,VWS V14.01,2013-02-10 16:58:00,
2013-02-10 11:59:00,45.9,26.3,28.91,SE,140,4.9,6.9,46,0.00,,---,0.00,VWS V14.01,2013-02-10 16:59:00,
2013-02-10 12:00:00,35.6,19.3,28.76,West,260,14.3,16.8,51,0.00,,---,0.00,VWS V14.01,2013-02-10 17:00:00,
2013-02-10 12:01:00,35.6,19.3,28.76,West,264,13.4,17.2,51,0.00,,---,0.00,VWS V14.01,2013-02-10 17:01:00,
2013-02-10 12:02:00,35.4,19.1,28.76,WSW,246,11.6,18.1,51,0.00,,---,0.00,VWS V14.01,2013-02-10 17:02:00,
2013-02-10 12:03:00,35.4,18.6,28.76,WSW,251,13.0,17.2,50,0.00,,---,0.00,VWS V14.01,2013-02-10 17:03:00,
2013-02-10 12:04:00,46.6,25.9,28.91,SSE,162,6.3,6.7,44,0.00,,---,0.00,VWS V14.01,2013-02-10 17:04:00,
2013-02-10 12:05:00,35.4,18.6,28.76,West,259,12.5,17.7,50,0.00,,---,0.00,VWS V14.01,2013-02-10 17:05:00,
2013-02-10 12:06:00,35.4,19.1,28.76,West,265,13.0,18.6,51,0.00,,---,0.00,VWS V14.01,2013-02-10 17:06:00,
2013-02-10 12:07:00,35.4,19.1,28.76,West,269,13.0,18.1,51,0.00,,---,0.00,VWS V14.01,2013-02-10 17:07:00,
2013-02-10 12:08:00,35.2,18.5,28.76,WSW,253,17.2,19.9,50,0.00,,---,0.00,VWS V14.01,2013-02-10 17:08:00,
2013-02-10 12:09:00,46.9,25.6,28.91,SE,128,5.8,8.7,43,0.00,,---,0.00,VWS V14.01,2013-02-10 17:09:00,
2013-02-10 12:10:00,35.2,18.9,28.76,West,277,11.2,17.7,51,0.00,,---,0.00,VWS V14.01,2013-02-10 17:10:00,
2013-02-10 12:11:00,35.2,18.9,28.76,West,269,11.6,16.8,51,0.00,,---,0.00,VWS V14.01,2013-02-10 17:11:00,
2013-02-10 12:12:00,35.2,18.9,28.76,West,267,11.6,11.6,51,0.00,,---,0.00,VWS V14.01,2013-02-10 17:12:00,
2013-02-10 12:13:00,35.2,18.9,28.76,SW,225,8.3,12.5,51,0.00,,---,0.00,VWS V14.01,2013-02-10 17:13:00,
2013-02-10 12:14:00,47.1,24.6,28.91,South,181,4.0,7.4,41,0.00,,---,0.00,VWS V14.01,2013-02-10 17:14:00,
2013-02-10 12:15:00,35.2,19.4,28.76,West,274,10.5,15.9,52,0.00,,---,0.00,VWS V14.01,2013-02-10 17:15:00,
2013-02-10 12:16:00,35.2,19.4,28.76,West,274,5.8,15.2,52,0.00,,---,0.00,VWS V14.01,2013-02-10 17:16:00,
2013-02-10 12:17:00,35.2,19.4,28.76,WSW,241,11.2,14.8,52,0.00,,---,0.00,VWS V14.01,2013-02-10 17:17:00,
2013-02-10 12:18:00,35.2,19.4,28.76,West,272,10.1,14.3,52,0.00,,---,0.00,VWS V14.01,2013-02-10 17:18:00,
2013-02-10 12:19:00,47.8,24.7,28.91,SSE,167,7.4,9.2,40,0.00,,---,0.00,VWS V14.01,2013-02-10 17:19:00,
2013-02-10 12:20:00,35.2,19.8,28.76,WNW,295,17.2,17.2,53,0.00,,---,0.00,VWS V14.01,2013-02-10 17:20:00,
2013-02-10 12:21:00,35.2,19.4,28.76,WSW,245,15.4,18.1,52,0.00,,---,0.00,VWS V14.01,2013-02-10 17:21:00,
2013-02-10 12:22:00,35.2,19.4,28.79,West,259,12.5,15.4,52,0.00,,---,0.00,VWS V14.01,2013-02-10 17:22:00,
2013-02-10 12:23:00,35.2,19.8,28.79,SW,234,12.5,19.9,53,0.00,,---,0.00,VWS V14.01,2013-02-10 17:23:00,
2013-02-10 12:24:00,48.4,24.6,28.91,SSW,195,5.8,8.7,39,0.00,,---,0.00,VWS V14.01,2013-02-10 17:24:00,
2013-02-10 12:25:00,35.2,19.8,28.79,West,281,13.0,13.0,53,0.00,,---,0.00,VWS V14.01,2013-02-10 17:25:00,
2013-02-10 12:26:00,35.2,19.8,28.79,West,263,13.9,15.9,53,0.00,,---,0.00,VWS V14.01,2013-02-10 17:26:00,
2013-02-10 12:27:00,35.2,19.8,28.79,WSW,256,19.0,19.0,53,0.00,,---,0.00,VWS V14.01,2013-02-10 17:27:00,
2013-02-10 12:28:00,35.2,19.8,28.79,WNW,291,8.7,19.0,53,0.00,,---,0.00,VWS V14.01,2013-02-10 17:28:00,
2013-02-10 12:29:00,48.7,24.3,28.88,SSE,164,5.4,8.3,38,0.00,,---,0.00,VWS V14.01,2013-02-10 17:29:00,
2013-02-10 12:30:00,35.4,20.0,28.79,West,280,13.4,14.3,53,0.00,,---,0.00,VWS V14.01,2013-02-10 17:30:00,
2013-02-10 12:31:00,35.2,19.8,28.79,West,274,15.9,20.1,53,0.00,,---,0.00,VWS V14.01,2013-02-10 17:31:00,
2013-02-10 12:32:00,35.2,19.4,28.79,West,263,9.6,19.5,52,0.00,,---,0.00,VWS V14.01,2013-02-10 17:32:00,
2013-02-10 12:33:00,35.2,19.4,28.79,WSW,251,10.1,13.9,52,0.00,,---,0.00,VWS V14.01,2013-02-10 17:33:00,
2013-02-10 12:34:00,49.5,24.3,28.88,SSE,157,4.0,7.8,37,0.00,,---,0.00,VWS V14.01,2013-02-10 17:34:00,
2013-02-10 12:35:00,35.4,19.6,28.79,West,264,14.3,16.3,52,0.00,,---,0.00,VWS V14.01,2013-02-10 17:35:00,
2013-02-10 12:36:00,35.4,19.1,28.79,WSW,256,11.0,19.5,51,0.00,,---,0.00,VWS V14.01,2013-02-10 17:36:00,
2013-02-10 12:37:00,35.4,19.1,28.79,West,275,15.9,15.9,51,0.00,,---,0.00,VWS V14.01,2013-02-10 17:37:00,
2013-02-10 12:38:00,35.4,19.1,28.79,WNW,287,10.5,15.9,51,0.00,,---,0.00,VWS V14.01,2013-02-10 17:38:00,
2013-02-10 12:39:00,49.6,23.8,28.88,SSE,167,7.4,10.1,36,0.00,,---,0.00,VWS V14.01,2013-02-10 17:39:00,
2013-02-10 12:40:00,35.4,19.6,28.79,SW,218,8.3,12.1,52,0.00,,---,0.00,VWS V14.01,2013-02-10 17:40:00,
2013-02-10 12:41:00,35.4,19.6,28.79,West,276,8.3,15.9,52,0.00,,---,0.00,VWS V14.01,2013-02-10 17:41:00,
2013-02-10 12:42:00,35.4,19.6,28.79,WSW,252,17.2,17.2,52,0.00,,---,0.00,VWS V14.01,2013-02-10 17:42:00,
2013-02-10 12:43:00,35.4,19.6,28.79,West,271,11.0,17.7,52,0.00,,---,0.00,VWS V14.01,2013-02-10 17:43:00,
2013-02-10 12:44:00,50.0,24.1,28.88,SE,135,7.8,7.8,36,0.00,,---,0.00,VWS V14.01,2013-02-10 17:44:00,
2013-02-10 12:45:00,35.4,20.0,28.79,West,263,9.6,14.8,53,0.00,,---,0.00,VWS V14.01,2013-02-10 17:45:00,
2013-02-10 12:46:00,35.4,20.4,28.79,WSW,240,9.6,11.2,54,0.00,,---,0.00,VWS V14.01,2013-02-10 17:46:00,
2013-02-10 12:47:00,35.4,20.4,28.79,West,264,15.4,15.4,54,0.00,,---,0.00,VWS V14.01,2013-02-10 17:47:00,
2013-02-10 12:48:00,35.4,20.0,28.79,WSW,244,14.8,17.7,53,0.00,,---,0.00,VWS V14.01,2013-02-10 17:48:00,
2013-02-10 12:49:00,50.4,22.4,28.88,SE,142,7.8,9.6,33,0.00,,---,0.00,VWS V14.01,2013-02-10 17:49:00,
2013-02-10 12:50:00,35.4,19.6,28.79,WSW,258,14.8,20.6,52,0.00,,---,0.00,VWS V14.01,2013-02-10 17:50:00,
2013-02-10 12:51:00,35.4,19.6,28.79,SW,217,6.9,16.3,52,0.00,,---,0.00,VWS V14.01,2013-02-10 17:51:00,
2013-02-10 12:52:00,35.4,19.1,28.79,West,264,6.9,15.4,51,0.00,,---,0.00,VWS V14.01,2013-02-10 17:52:00,
2013-02-10 12:53:00,35.4,19.1,28.79,West,270,9.6,14.3,51,0.00,,---,0.00,VWS V14.01,2013-02-10 17:53:00,
2013-02-10 12:54:00,50.5,21.8,28.88,SSW,199,7.4,10.5,32,0.00,,---,0.00,VWS V14.01,2013-02-10 17:54:00,
2013-02-10 12:55:00,35.4,19.1,28.79,West,261,13.4,19.5,51,0.00,,---,0.00,VWS V14.01,2013-02-10 17:55:00,
2013-02-10 12:56:00,35.4,18.6,28.79,WSW,247,15.4,24.8,50,0.00,,---,0.00,VWS V14.01,2013-02-10 17:56:00,
2013-02-10 12:57:00,35.2,18.0,28.79,West,267,15.9,23.3,49,0.00,,---,0.00,VWS V14.01,2013-02-10 17:57:00,
2013-02-10 12:58:00,35.4,18.2,28.79,SW,234,12.5,20.1,49,0.00,,---,0.00,VWS V14.01,2013-02-10 17:58:00,
2013-02-10 12:59:00,50.9,20.6,28.85,SSE,168,6.3,10.1,30,0.00,,---,0.00,VWS V14.01,2013-02-10 17:59:00,
2013-02-10 13:00:00,35.4,18.2,28.79,West,278,14.3,24.8,49,0.00,,---,0.00,VWS V14.01,2013-02-10 18:00:00,
2013-02-10 13:01:00,35.4,18.2,28.79,West,263,9.6,18.1,49,0.00,,---,0.00,VWS V14.01,2013-02-10 18:01:00,
2013-02-10 13:02:00,35.4,18.2,28.79,West,270,13.9,13.9,49,0.00,,---,0.00,VWS V14.01,2013-02-10 18:02:00,
2013-02-10 13:03:00,35.4,18.6,28.79,West,275,6.9,13.9,50,0.00,,---,0.00,VWS V14.01,2013-02-10 18:03:00,
2013-02-10 13:04:00,51.1,20.8,28.85,SE,145,10.5,10.5,30,0.00,,---,0.00,VWS V14.01,2013-02-10 18:04:00,
2013-02-10 13:05:00,35.4,18.2,28.79,West,275,13.0,19.9,49,0.00,,---,0.00,VWS V14.01,2013-02-10 18:05:00,
2013-02-10 13:06:00,35.4,18.2,28.79,NW,309,15.9,19.0,49,0.00,,---,0.00,VWS V14.01,2013-02-10 18:06:00,
2013-02-10 13:07:00,35.4,18.2,28.79,South,180,13.4,24.4,49,0.00,,---,0.00,VWS V14.01,2013-02-10 18:07:00,
2013-02-10 13:08:00,35.2,18.0,28.79,West,276,17.7,17.7,49,0.00,,---,0.00,VWS V14.01,2013-02-10 18:08:00,
2013-02-10 13:09:00,51.1,20.8,28.85,SSE,153,5.4,9.2,30,0.00,,---,0.00,VWS V14.01,2013-02-10 18:09:00,
2013-02-10 13:10:00,35.2,17.5,28.79,West,269,10.1,18.6,48,0.00,,---,0.00,VWS V14.01,2013-02-10 18:10:00,
2013-02-10 13:11:00,35.2,18.0,28.79,SW,236,9.2,15.9,49,0.00,,---,0.00,VWS V14.01,2013-02-10 18:11:00,
2013-02-10 13:12:00,35.2,18.0,28.79,SW,230,14.8,21.5,49,0.00,,---,0.00,VWS V14.01,2013-02-10 18:12:00,
2013-02-10 13:13:00,35.2,17.5,28.79,WSW,254,17.2,23.7,48,0.00,,---,0.00,VWS V14.01,2013-02-10 18:13:00,
2013-02-10 13:14:00,50.9,19.8,28.85,South,181,3.1,9.2,29,0.00,,---,0.00,VWS V14.01,2013-02-10 18:14:00,
2013-02-10 13:15:00,35.2,18.0,28.79,West,274,12.5,14.8,49,0.00,,---,0.00,VWS V14.01,2013-02-10 18:15:00,
2013-02-10 13:16:00,35.2,18.0,28.79,WNW,301,14.8,19.5,49,0.00,,---,0.00,VWS V14.01,2013-02-10 18:16:00,
2013-02-10 13:17:00,35.1,17.8,28.79,WNW,283,18.6,20.6,49,0.00,,---,0.00,VWS V14.01,2013-02-10 18:17:00,
2013-02-10 13:18:00,35.1,17.8,28.79,WNW,288,11.6,19.5,49,0.00,,---,0.00,VWS V14.01,2013-02-10 18:18:00,
2013-02-10 13:19:00,35.1,17.8,28.79,WSW,249,11.2,17.7,49,0.00,,---,0.00,VWS V14.01,2013-02-10 18:19:00,
2013-02-10 13:20:00,35.1,17.8,28.79,WSW,243,17.7,19.9,49,0.00,,---,0.00,VWS V14.01,2013-02-10 18:20:00,
2013-02-10 13:21:00,35.1,17.8,28.79,WSW,245,16.8,27.1,49,0.00,,---,0.00,VWS V14.01,2013-02-10 18:21:00,
2013-02-10 13:22:00,50.7,20.4,28.85,SSW,201,3.6,8.3,30,0.00,,---,0.00,VWS V14.01,2013-02-10 18:22:00,
2013-02-10 13:23:00,35.1,17.8,28.79,WSW,246,16.3,19.9,49,0.00,,---,0.00,VWS V14.01,2013-02-10 18:23:00,
2013-02-10 13:24:00,35.1,17.8,28.79,WSW,243,22.4,22.4,49,0.00,,---,0.00,VWS V14.01,2013-02-10 18:24:00,
2013-02-10 13:25:00,35.1,17.4,28.79,WSW,255,19.0,25.7,48,0.00,,---,0.00,VWS V14.01,2013-02-10 18:25:00,
2013-02-10 13:26:00,35.1,16.9,28.79,NNW,332,15.4,19.0,47,0.00,,---,0.00,VWS V14.01,2013-02-10 18:26:00,
2013-02-10 13:27:00,50.4,20.1,28.85,SSW,196,4.9,8.3,30,0.00,,---,0.00,VWS V14.01,2013-02-10 18:27:00,
2013-02-10 13:28:00,35.1,16.9,28.79,West,265,19.5,28.4,47,0.00,,---,0.00,VWS V14.01,2013-02-10 18:28:00,
2013-02-10 13:29:00,35.1,16.9,28.79,SW,231,13.0,19.5,47,0.00,,---,0.00,VWS V14.01,2013-02-10 18:29:00,
2013-02-10 13:30:00,35.2,17.5,28.79,West,263,11.2,14.3,48,0.00,,---,0.00,VWS V14.01,2013-02-10 18:30:00,
2013-02-10 13:31:00,35.1,17.4,28.79,WSW,240,12.1,14.8,48,0.00,,---,0.00,VWS V14.01,2013-02-10 18:31:00,
2013-02-10 13:32:00,35.2,17.5,28.79,West,262,17.2,17.2,48,0.00,,---,0.00,VWS V14.01,2013-02-10 18:32:00,
2013-02-10 13:33:00,50.2,20.7,28.85,SSE,165,4.0,6.9,31,0.00,,---,0.00,VWS V14.01,2013-02-10 18:33:00,
2013-02-10 13:34:00,35.2,16.5,28.79,NE,50,11.2,19.5,46,0.00,,---,0.00,VWS V14.01,2013-02-10 18:34:00,
2013-02-10 13:35:00,35.4,16.7,28.79,NW,305,15.4,15.4,46,0.00,,---,0.00,VWS V14.01,2013-02-10 18:35:00,
2013-02-10 13:36:00,35.4,17.2,28.79,West,276,11.0,16.3,47,0.00,,---,0.00,VWS V14.01,2013-02-10 18:36:00,
2013-02-10 13:37:00,35.4,17.2,28.79,WSW,243,13.9,19.9,47,0.00,,---,0.00,VWS V14.01,2013-02-10 18:37:00,
2013-02-10 13:38:00,50.2,20.7,28.85,SSE,151,6.7,9.2,31,0.00,,---,0.00,VWS V14.01,2013-02-10 18:38:00,
2013-02-10 13:39:00,35.4,17.2,28.79,NW,304,15.2,21.9,47,0.00,,---,0.00,VWS V14.01,2013-02-10 18:39:00,
2013-02-10 13:40:00,35.6,17.4,28.79,West,271,14.3,15.2,47,0.00,,---,0.00,VWS V14.01,2013-02-10 18:40:00,
2013-02-10 13:41:00,35.6,17.4,28.79,WNW,284,12.1,18.6,47,0.00,,---,0.00,VWS V14.01,2013-02-10 18:41:00,
2013-02-10 13:42:00,35.6,17.4,28.79,SW,215,13.0,13.0,47,0.00,,---,0.00,VWS V14.01,2013-02-10 18:42:00,
2013-02-10 13:43:00,49.8,20.4,28.82,SSE,160,7.4,11.6,31,0.00,,---,0.00,VWS V14.01,2013-02-10 18:43:00,
2013-02-10 13:44:00,35.6,16.9,28.79,West,275,16.3,21.0,46,0.00,,---,0.00,VWS V14.01,2013-02-10 18:44:00,
2013-02-10 13:45:00,35.6,16.9,28.79,WSW,249,10.5,16.3,46,0.00,,---,0.00,VWS V14.01,2013-02-10 18:45:00,
2013-02-10 13:46:00,35.6,16.9,28.79,WSW,238,9.6,22.4,46,0.00,,---,0.00,VWS V14.01,2013-02-10 18:46:00,
2013-02-10 13:47:00,35.6,16.9,28.79,WNW,302,11.0,20.1,46,0.00,,---,0.00,VWS V14.01,2013-02-10 18:47:00,
2013-02-10 13:48:00,49.6,21.0,28.82,South,176,4.9,7.4,32,0.00,,---,0.00,VWS V14.01,2013-02-10 18:48:00,
2013-02-10 13:49:00,35.6,17.4,28.79,WSW,242,14.3,19.9,47,0.00,,---,0.00,VWS V14.01,2013-02-10 18:49:00,
2013-02-10 13:50:00,35.4,16.7,28.79,WSW,243,12.1,19.5,46,0.00,,---,0.00,VWS V14.01,2013-02-10 18:50:00,
2013-02-10 13:51:00,35.4,16.7,28.79,WNW,292,19.9,19.9,46,0.00,,---,0.00,VWS V14.01,2013-02-10 18:51:00,
2013-02-10 13:52:00,35.4,16.7,28.79,SW,214,14.3,19.9,46,0.00,,---,0.00,VWS V14.01,2013-02-10 18:52:00,
2013-02-10 13:53:00,35.4,16.7,28.79,WSW,245,10.1,18.1,46,0.00,,---,0.00,VWS V14.01,2013-02-10 18:53:00,
2013-02-10 13:54:00,35.4,17.2,28.79,West,274,16.3,16.3,47,0.00,,---,0.00,VWS V14.01,2013-02-10 18:54:00,
2013-02-10 13:55:00,35.4,17.2,28.79,WSW,256,13.9,18.6,47,0.00,,---,0.00,VWS V14.01,2013-02-10 18:55:00,
2013-02-10 13:56:00,49.8,21.2,28.82,SSE,155,8.3,8.7,32,0.00,,---,0.00,VWS V14.01,2013-02-10 18:56:00,
2013-02-10 13:57:00,35.4,16.7,28.79,West,266,15.4,19.9,46,0.00,,---,0.00,VWS V14.01,2013-02-10 18:57:00,
2013-02-10 13:58:00,35.4,16.7,28.79,SSW,210,10.1,20.6,46,0.00,,---,0.00,VWS V14.01,2013-02-10 18:58:00,
2013-02-10 13:59:00,35.2,16.5,28.79,West,268,14.8,20.1,46,0.00,,---,0.00,VWS V14.01,2013-02-10 18:59:00,
2013-02-10 14:00:00,35.4,16.7,28.79,West,262,13.9,22.4,46,0.00,,---,0.00,VWS V14.01,2013-02-10 19:00:00,
2013-02-10 14:01:00,49.6,21.0,28.82,SSW,197,4.9,6.7,32,0.00,,---,0.00,VWS V14.01,2013-02-10 19:01:00,
2013-02-10 14:02:00,35.2,16.5,28.79,West,273,15.9,19.9,46,0.00,,---,0.00,VWS V14.01,2013-02-10 19:02:00,
2013-02-10 14:03:00,35.2,16.5,28.79,NNW,336,17.7,24.4,46,0.00,,---,0.00,VWS V14.01,2013-02-10 19:03:00,
2013-02-10 14:04:00,35.2,16.0,28.79,WSW,250,9.6,24.4,45,0.00,,---,0.00,VWS V14.01,2013-02-10 19:04:00,
2013-02-10 14:05:00,35.2,16.5,28.79,WSW,239,10.5,21.5,46,0.00,,---,0.00,VWS V14.01,2013-02-10 19:05:00,
2013-02-10 14:06:00,49.5,21.6,28.82,SSE,156,4.9,7.4,33,0.00,,---,0.00,VWS V14.01,2013-02-10 19:06:00,
2013-02-10 14:07:00,35.1,16.4,28.79,WSW,251,17.7,22.8,46,0.00,,---,0.00,VWS V14.01,2013-02-10 19:07:00,
2013-02-10 14:08:00,35.1,16.4,28.79,WNW,285,7.8,22.8,46,0.00,,---,0.00,VWS V14.01,2013-02-10 19:08:00,
2013-02-10 14:09:00,35.1,16.9,28.79,NW,309,18.6,18.6,47,0.00,,---,0.00,VWS V14.01,2013-02-10 19:09:00,
2013-02-10 14:10:00,35.1,17.4,28.79,West,279,9.6,23.3,48,0.00,,---,0.00,VWS V14.01,2013-02-10 19:10:00,
2013-02-10 14:11:00,49.3,22.1,28.82,SSW,199,4.5,6.9,34,0.00,,---,0.00,VWS V14.01,2013-02-10 19:11:00,
2013-02-10 14:12:00,35.1,17.8,28.79,WSW,247,15.2,18.1,49,0.00,,---,0.00,VWS V14.01,2013-02-10 19:12:00,
2013-02-10 14:13:00,35.1,17.8,28.79,WSW,239,9.6,16.3,49,0.00,,---,0.00,VWS V14.01,2013-02-10 19:13:00,
2013-02-10 14:14:00,35.1,17.8,28.79,WNW,297,13.9,16.8,49,0.00,,---,0.00,VWS V14.01,2013-02-10 19:14:00,
2013-02-10 14:15:00,35.1,17.8,28.79,West,272,14.3,19.5,49,0.00,,---,0.00,VWS V14.01,2013-02-10 19:15:00,
2013-02-10 14:16:00,49.1,23.3,28.85,SSW,205,4.0,6.3,36,0.00,,---,0.00,VWS V14.01,2013-02-10 19:16:00,
2013-02-10 14:17:00,35.1,17.8,28.79,WSW,244,10.1,18.6,49,0.00,,---,0.00,VWS V14.01,2013-02-10 19:17:00,
2013-02-10 14:18:00,35.1,17.8,28.79,WSW,248,13.4,14.3,49,0.00,,---,0.00,VWS V14.01,2013-02-10 19:18:00,
2013-02-10 14:19:00,35.1,17.4,28.79,NW,308,21.5,21.5,48,0.00,,---,0.00,VWS V14.01,2013-02-10 19:19:00,
2013-02-10 14:20:00,35.1,16.9,28.79,WSW,241,9.2,21.5,47,0.00,,---,0.00,VWS V14.01,2013-02-10 19:20:00,
2013-02-10 14:21:00,48.9,23.8,28.85,South,189,5.4,6.9,37,0.00,,---,0.00,VWS V14.01,2013-02-10 19:21:00,
2013-02-10 14:22:00,35.1,16.9,28.79,WSW,257,13.4,23.3,47,0.00,,---,0.00,VWS V14.01,2013-02-10 19:22:00,
2013-02-10 14:23:00,35.1,16.9,28.79,WSW,252,10.5,20.1,47,0.00,,---,0.00,VWS V14.01,2013-02-10 19:23:00,
2013-02-10 14:24:00,35.1,17.4,28.79,WNW,299,14.8,18.1,48,0.00,,---,0.00,VWS V14.01,2013-02-10 19:24:00,
2013-02-10 14:25:00,35.1,17.4,28.79,WSW,240,14.3,14.8,48,0.00,,---,0.00,VWS V14.01,2013-02-10 19:25:00,
2013-02-10 14:26:00,48.7,23.6,28.85,SSE,160,4.5,7.8,37,0.00,,---,0.00,VWS V14.01,2013-02-10 19:26:00,
2013-02-10 14:27:00,35.2,18.0,28.79,West,275,9.6,14.8,49,0.00,,---,0.00,VWS V14.01,2013-02-10 19:27:00,
2013-02-10 14:28:00,35.2,18.0,28.79,West,261,13.4,15.4,49,0.00,,---,0.00,VWS V14.01,2013-02-10 19:28:00,
2013-02-10 14:29:00,35.2,18.0,28.79,WNW,286,15.2,19.5,49,0.00,,---,0.00,VWS V14.01,2013-02-10 19:29:00,
2013-02-10 14:30:00,35.1,17.4,28.79,WNW,283,12.5,21.9,48,0.00,,---,0.00,VWS V14.01,2013-02-10 19:30:00,
2013-02-10 14:31:00,48.7,23.6,28.82,SSW,199,3.6,6.9,37,0.00,,---,0.00,VWS V14.01,2013-02-10 19:31:00,
2013-02-10 14:32:00,35.1,16.9,28.79,SSW,200,11.0,19.5,47,0.00,,---,0.00,VWS V14.01,2013-02-10 19:32:00,
2013-02-10 14:33:00,35.2,17.5,28.79,West,280,10.5,15.9,48,0.00,,---,0.00,VWS V14.01,2013-02-10 19:33:00,
2013-02-10 14:34:00,35.2,18.0,28.79,West,280,12.5,18.1,49,0.00,,---,0.00,VWS V14.01,2013-02-10 19:34:00,
2013-02-10 14:35:00,35.2,17.5,28.79,West,264,9.2,14.8,48,0.00,,---,0.00,VWS V14.01,2013-02-10 19:35:00,
2013-02-10 14:36:00,48.7,23.6,28.82,SW,215,4.9,10.5,37,0.00,,---,0.00,VWS V14.01,2013-02-10 19:36:00,
2013-02-10 14:37:00,35.2,18.0,28.79,NW,321,13.0,15.4,49,0.00,,---,0.00,VWS V14.01,2013-02-10 19:37:00,
2013-02-10 14:38:00,35.2,18.0,28.79,WSW,251,9.2,13.0,49,0.00,,---,0.00,VWS V14.01,2013-02-10 19:38:00,
2013-02-10 14:39:00,35.1,17.8,28.79,SW,228,13.0,16.3,49,0.00,,---,0.00,VWS V14.01,2013-02-10 19:39:00,
2013-02-10 14:40:00,35.1,17.8,28.79,WSW,257,11.6,19.9,49,0.00,,---,0.00,VWS V14.01,2013-02-10 19:40:00,
2013-02-10 14:41:00,35.1,17.8,28.79,WNW,291,15.4,20.1,49,0.00,,---,0.00,VWS V14.01,2013-02-10 19:41:00,
2013-02-10 14:42:00,35.2,18.0,28.79,West,274,15.2,18.6,49,0.00,,---,0.00,VWS V14.01,2013-02-10 19:42:00,
2013-02-10 14:43:00,48.7,24.3,28.82,SE,137,5.4,6.9,38,0.00,,---,0.00,VWS V14.01,2013-02-10 19:43:00,
2013-02-10 14:44:00,35.4,17.7,28.79,WSW,238,15.4,25.3,48,0.00,,---,0.00,VWS V14.01,2013-02-10 19:44:00,
2013-02-10 14:45:00,35.4,17.2,28.79,West,271,6.9,24.2,47,0.00,,---,0.00,VWS V14.01,2013-02-10 19:45:00,
2013-02-10 14:46:00,35.4,17.2,28.79,WSW,258,13.0,15.9,47,0.00,,---,0.00,VWS V14.01,2013-02-10 19:46:00,
2013-02-10 14:47:00,35.4,17.7,28.79,West,274,6.7,15.9,48,0.00,,---,0.00,VWS V14.01,2013-02-10 19:47:00,
2013-02-10 14:48:00,48.6,24.1,28.82,South,174,6.9,7.8,38,0.00,,---,0.00,VWS V14.01,2013-02-10 19:48:00,
2013-02-10 14:49:00,35.8,18.5,28.79,WNW,299,12.5,13.0,49,0.00,,---,0.00,VWS V14.01,2013-02-10 19:49:00,
2013-02-10 14:50:00,35.8,18.5,28.79,NW,305,11.0,13.9,49,0.00,,---,0.00,VWS V14.01,2013-02-10 19:50:00,
2013-02-10 14:51:00,35.8,18.0,28.79,WNW,296,19.0,21.9,48,0.00,,---,0.00,VWS V14.01,2013-02-10 19:51:00,
2013-02-10 14:52:00,35.6,16.9,28.79,West,266,15.9,19.0,46,0.00,,---,0.00,VWS V14.01,2013-02-10 19:52:00,
2013-02-10 14:53:00,35.6,16.9,28.79,WSW,255,9.2,18.6,46,0.00,,---,0.00,VWS V14.01,2013-02-10 19:53:00,
2013-02-10 14:54:00,35.6,16.9,28.79,WNW,283,19.5,19.5,46,0.00,,---,0.00,VWS V14.01,2013-02-10 19:54:00,
2013-02-10 14:55:00,48.2,23.8,28.82,SSW,196,5.4,6.7,38,0.00,,---,0.00,VWS V14.01,2013-02-10 19:55:00,
2013-02-10 14:56:00,35.4,16.7,28.79,WSW,240,11.0,19.5,46,0.00,,---,0.00,VWS V14.01,2013-02-10 19:56:00,
2013-02-10 14:57:00,35.2,16.5,28.79,WSW,244,21.5,24.2,46,0.00,,---,0.00,VWS V14.01,2013-02-10 19:57:00,
2013-02-10 14:58:00,35.1,15.9,28.79,WNW,294,15.9,23.3,45,0.00,,---,0.00,VWS V14.01,2013-02-10 19:58:00,
2013-02-10 14:59:00,35.1,15.9,28.79,WSW,251,11.0,23.3,45,0.00,,---,0.00,VWS V14.01,2013-02-10 19:59:00,
2013-02-10 15:00:00,48.0,23.6,28.79,SE,138,5.4,6.9,38,0.00,,---,0.00,VWS V14.01,2013-02-10 20:00:00,
2013-02-10 15:01:00,35.2,16.5,28.79,WSW,245,11.6,21.0,46,0.00,,---,0.00,VWS V14.01,2013-02-10 20:01:00,
2013-02-10 15:02:00,35.2,16.5,28.79,WSW,256,12.1,14.3,46,0.00,,---,0.00,VWS V14.01,2013-02-10 20:02:00,
2013-02-10 15:03:00,35.4,16.7,28.79,WNW,299,16.3,19.9,46,0.00,,---,0.00,VWS V14.01,2013-02-10 20:03:00,
2013-02-10 15:04:00,35.4,17.2,28.79,WSW,237,13.0,19.5,47,0.00,,---,0.00,VWS V14.01,2013-02-10 20:04:00,
2013-02-10 15:05:00,35.4,16.7,28.79,WSW,249,13.4,20.1,46,0.00,,---,0.00,VWS V14.01,2013-02-10 20:05:00,
2013-02-10 15:06:00,35.4,16.2,28.79,West,280,19.5,19.5,45,0.00,,---,0.00,VWS V14.01,2013-02-10 20:06:00,
2013-02-10 15:07:00,48.0,24.3,28.79,SSE,163,6.9,6.9,39,0.00,,---,0.00,VWS V14.01,2013-02-10 20:07:00,
2013-02-10 15:08:00,35.4,16.2,28.79,NNW,343,18.6,18.6,45,0.00,,---,0.00,VWS V14.01,2013-02-10 20:08:00,
2013-02-10 15:09:00,35.4,16.2,28.79,West,266,23.7,23.7,45,0.00,,---,0.00,VWS V14.01,2013-02-10 20:09:00,
2013-02-10 15:10:00,35.2,15.5,28.79,West,271,18.1,23.7,44,0.00,,---,0.00,VWS V14.01,2013-02-10 20:10:00,
2013-02-10 15:11:00,35.2,15.5,28.79,WNW,283,12.5,22.4,44,0.00,,---,0.00,VWS V14.01,2013-02-10 20:11:00,
2013-02-10 15:12:00,35.4,16.2,28.79,West,278,15.2,19.9,45,0.00,,---,0.00,VWS V14.01,2013-02-10 20:12:00,
2013-02-10 15:13:00,35.4,16.7,28.79,SW,220,8.3,15.2,46,0.00,,---,0.00,VWS V14.01,2013-02-10 20:13:00,
2013-02-10 15:14:00,47.1,26.9,28.79,South,180,4.0,10.5,45,0.00,,---,0.00,VWS V14.01,2013-02-10 20:14:00,
2013-02-10 15:15:00,35.4,16.7,28.79,WNW,284,15.4,20.6,46,0.00,,---,0.00,VWS V14.01,2013-02-10 20:15:00,
2013-02-10 15:16:00,35.4,16.7,28.79,NW,308,9.2,15.4,46,0.00,,---,0.00,VWS V14.01,2013-02-10 20:16:00,
2013-02-10 15:17:00,35.4,16.7,28.79,WSW,256,11.6,11.6,46,0.00,,---,0.00,VWS V14.01,2013-02-10 20:17:00,
2013-02-10 15:18:00,35.4,16.7,28.79,WSW,241,10.1,18.6,46,0.00,,---,0.00,VWS V14.01,2013-02-10 20:18:00,
2013-02-10 15:19:00,35.4,16.7,28.79,WSW,251,10.5,16.3,46,0.00,,---,0.00,VWS V14.01,2013-02-10 20:19:00,
2013-02-10 15:20:00,46.8,28.6,28.79,South,175,4.9,8.7,49,0.00,,---,0.00,VWS V14.01,2013-02-10 20:20:00,
2013-02-10 15:21:00,35.4,16.7,28.79,WNW,297,11.2,18.1,46,0.00,,---,0.00,VWS V14.01,2013-02-10 20:21:00,
2013-02-10 15:22:00,35.4,15.7,28.82,SW,221,14.3,24.2,44,0.00,,---,0.00,VWS V14.01,2013-02-10 20:22:00,
2013-02-10 15:23:00,35.4,15.7,28.82,West,276,13.4,18.6,44,0.00,,---,0.00,VWS V14.01,2013-02-10 20:23:00,
2013-02-10 15:24:00,35.4,15.7,28.82,WSW,241,13.4,21.9,44,0.00,,---,0.00,VWS V14.01,2013-02-10 20:24:00,
2013-02-10 15:25:00,35.2,15.5,28.82,WSW,251,20.1,22.8,44,0.00,,---,0.00,VWS V14.01,2013-02-10 20:25:00,
2013-02-10 15:26:00,35.2,15.5,28.82,North,356,9.6,20.1,44,0.00,,---,0.00,VWS V14.01,2013-02-10 20:26:00,
2013-02-10 15:27:00,35.2,15.5,28.82,WSW,240,7.4,19.5,44,0.00,,---,0.00,VWS V14.01,2013-02-10 20:27:00,
2013-02-10 15:28:00,35.4,15.7,28.82,WNW,292,13.9,18.6,44,0.00,,---,0.00,VWS V14.01,2013-02-10 20:28:00,
2013-02-10 15:29:00,35.4,15.7,28.82,WSW,239,11.6,14.8,44,0.00,,---,0.00,VWS V14.01,2013-02-10 20:29:00,
2013-02-10 15:30:00,35.4,16.2,28.82,WNW,287,8.7,13.0,45,0.00,,---,0.00,VWS V14.01,2013-02-10 20:30:00,
2013-02-10 15:31:00,46.0,30.8,28.79,SE,145,4.0,4.5,55,0.00,,---,0.00,VWS V14.01,2013-02-10 20:31:00,
2013-02-10 15:32:00,35.4,16.2,28.82,NW,310,14.8,14.8,45,0.00,,---,0.00,VWS V14.01,2013-02-10 20:32:00,
2013-02-10 15:33:00,35.4,16.2,28.82,SW,229,16.3,19.5,45,0.00,,---,0.00,VWS V14.01,2013-02-10 20:33:00,
2013-02-10 15:34:00,35.4,15.7,28.82,West,262,9.6,21.0,44,0.00,,---,0.00,VWS V14.01,2013-02-10 20:34:00,
2013-02-10 15:35:00,35.4,15.7,28.82,West,260,13.9,16.8,44,0.00,,---,0.00,VWS V14.01,2013-02-10 20:35:00,
2013-02-10 15:36:00,35.4,15.2,28.82,SW,232,14.3,24.2,43,0.00,,---,0.00,VWS V14.01,2013-02-10 20:36:00,
2013-02-10 15:37:00,35.4,15.2,28.82,WNW,300,9.6,21.0,43,0.00,,---,0.00,VWS V14.01,2013-02-10 20:37:00,
2013-02-10 15:38:00,45.9,31.9,28.79,SSE,149,4.9,5.4,58,0.00,,---,0.00,VWS V14.01,2013-02-10 20:38:00,
2013-02-10 15:39:00,35.4,15.7,28.82,WSW,239,13.0,14.3,44,0.00,,---,0.00,VWS V14.01,2013-02-10 20:39:00,
2013-02-10 15:40:00,35.4,15.7,28.82,WSW,251,7.4,13.9,44,0.00,,---,0.00,VWS V14.01,2013-02-10 20:40:00,
2013-02-10 15:41:00,35.4,15.7,28.82,West,261,13.0,15.2,44,0.00,,---,0.00,VWS V14.01,2013-02-10 20:41:00,
2013-02-10 15:42:00,35.4,15.7,28.82,WSW,239,10.1,19.0,44,0.00,,---,0.00,VWS V14.01,2013-02-10 20:42:00,
2013-02-10 15:43:00,35.4,15.7,28.82,WNW,291,21.5,21.5,44,0.00,,---,0.00,VWS V14.01,2013-02-10 20:43:00,
2013-02-10 15:44:00,45.7,32.6,28.76,ESE,112,6.7,6.7,60,0.00,,---,0.00,VWS V14.01,2013-02-10 20:44:00,
2013-02-10 15:45:00,35.4,15.2,28.82,NW,315,15.9,18.1,43,0.00,,---,0.00,VWS V14.01,2013-02-10 20:45:00,
2013-02-10 15:46:00,35.4,15.2,28.82,WNW,284,13.4,15.9,43,0.00,,---,0.00,VWS V14.01,2013-02-10 20:46:00,
2013-02-10 15:47:00,35.4,15.2,28.82,WNW,297,16.3,19.9,43,0.00,,---,0.00,VWS V14.01,2013-02-10 20:47:00,
2013-02-10 15:48:00,35.4,15.2,28.82,West,271,7.4,16.3,43,0.00,,---,0.00,VWS V14.01,2013-02-10 20:48:00,
2013-02-10 15:49:00,45.5,32.0,28.76,ESE,123,6.3,7.8,59,0.00,,---,0.00,VWS V14.01,2013-02-10 20:49:00,
2013-02-10 15:50:00,35.2,15.0,28.82,WNW,298,10.1,20.1,43,0.00,,---,0.00,VWS V14.01,2013-02-10 20:50:00,
2013-02-10 15:51:00,35.4,14.6,28.82,West,265,13.4,23.3,42,0.00,,---,0.00,VWS V14.01,2013-02-10 20:51:00,
2013-02-10 15:52:00,35.4,14.6,28.82,West,271,11.6,18.1,42,0.00,,---,0.00,VWS V14.01,2013-02-10 20:52:00,
2013-02-10 15:53:00,35.4,14.6,28.82,West,277,12.5,21.5,42,0.00,,---,0.00,VWS V14.01,2013-02-10 20:53:00,
2013-02-10 15:54:00,45.7,31.8,28.76,SE,126,6.9,7.4,58,0.00,,---,0.00,VWS V14.01,2013-02-10 20:54:00,
2013-02-10 15:55:00,35.4,15.2,28.82,West,260,13.9,15.4,43,0.00,,---,0.00,VWS V14.01,2013-02-10 20:55:00,
2013-02-10 15:56:00,35.4,14.6,28.82,WNW,283,15.2,19.5,42,0.00,,---,0.00,VWS V14.01,2013-02-10 20:56:00,
2013-02-10 15:57:00,35.4,15.2,28.82,West,262,16.8,16.8,43,0.00,,---,0.00,VWS V14.01,2013-02-10 20:57:00,
2013-02-10 15:58:00,35.4,15.2,28.82,WSW,242,9.2,19.0,43,0.00,,---,0.00,VWS V14.01,2013-02-10 20:58:00,
2013-02-10 15:59:00,45.7,31.3,28.76,SE,125,4.5,4.5,57,0.00,,---,0.00,VWS V14.01,2013-02-10 20:59:00,
2013-02-10 16:02:00,35.4,15.7,28.82,West,272,9.6,21.0,44,0.00,,---,0.00,VWS V14.01,2013-02-10 21:02:00,
2013-02-10 16:03:00,35.4,16.2,28.82,West,272,16.8,16.8,45,0.00,,---,0.00,VWS V14.01,2013-02-10 21:03:00,
2013-02-10 16:04:00,45.7,31.8,28.76,ESE,116,5.4,6.7,58,0.00,,---,0.00,VWS V14.01,2013-02-10 21:04:00,
2013-02-10 16:05:00,35.4,16.2,28.82,WNW,293,12.1,19.9,45,0.00,,---,0.00,VWS V14.01,2013-02-10 21:05:00,
2013-02-10 16:06:00,35.4,16.7,28.82,WNW,285,12.5,16.3,46,0.00,,---,0.00,VWS V14.01,2013-02-10 21:06:00,
2013-02-10 16:07:00,35.4,16.7,28.82,SW,227,14.3,19.9,46,0.00,,---,0.00,VWS V14.01,2013-02-10 21:07:00,
2013-02-10 16:08:00,35.4,16.7,28.82,West,269,13.4,17.7,46,0.00,,---,0.00,VWS V14.01,2013-02-10 21:08:00,
2013-02-10 16:09:00,45.7,30.9,28.76,ESE,119,6.3,7.8,56,0.00,,---,0.00,VWS V14.01,2013-02-10 21:09:00,
2013-02-10 16:10:00,35.4,16.7,28.82,NNW,328,6.7,17.7,46,0.00,,---,0.00,VWS V14.01,2013-02-10 21:10:00,
2013-02-10 16:11:00,35.4,17.2,28.82,WNW,291,8.3,12.1,47,0.00,,---,0.00,VWS V14.01,2013-02-10 21:11:00,
2013-02-10 16:12:00,35.4,17.2,28.82,WNW,283,16.8,16.8,47,0.00,,---,0.00,VWS V14.01,2013-02-10 21:12:00,
2013-02-10 16:13:00,35.4,17.2,28.82,West,272,12.5,22.4,47,0.00,,---,0.00,VWS V14.01,2013-02-10 21:13:00,
2013-02-10 16:14:00,45.7,30.0,28.73,ESE,122,5.8,7.8,54,0.00,,---,0.00,VWS V14.01,2013-02-10 21:14:00,
2013-02-10 16:15:00,35.4,17.2,28.82,WSW,239,13.0,13.9,47,0.00,,---,0.00,VWS V14.01,2013-02-10 21:15:00,
2013-02-10 16:16:00,35.4,18.2,28.82,WNW,288,7.4,15.9,49,0.00,,---,0.00,VWS V14.01,2013-02-10 21:16:00,
2013-02-10 16:17:00,35.4,18.2,28.82,West,281,21.0,21.0,49,0.00,,---,0.00,VWS V14.01,2013-02-10 21:17:00,
2013-02-10 16:18:00,35.2,17.5,28.82,WSW,253,18.1,21.5,48,0.00,,---,0.00,VWS V14.01,2013-02-10 21:18:00,
2013-02-10 16:19:00,45.7,29.5,28.73,SSE,153,4.9,5.4,53,0.00,,---,0.00,VWS V14.01,2013-02-10 21:19:00,
2013-02-10 16:20:00,35.4,17.7,28.82,West,277,15.9,17.2,48,0.00,,---,0.00,VWS V14.01,2013-02-10 21:20:00,
2013-02-10 16:21:00,35.4,17.7,28.82,WNW,286,15.2,15.9,48,0.00,,---,0.00,VWS V14.01,2013-02-10 21:21:00,
2013-02-10 16:22:00,35.4,17.2,28.82,SSE,166,11.0,16.8,47,0.00,,---,0.00,VWS V14.01,2013-02-10 21:22:00,
2013-02-10 16:23:00,35.2,17.0,28.82,WNW,282,13.4,19.5,47,0.00,,---,0.00,VWS V14.01,2013-02-10 21:23:00,
2013-02-10 16:24:00,45.7,29.5,28.73,SSE,162,5.8,10.1,53,0.00,,---,0.00,VWS V14.01,2013-02-10 21:24:00,
2013-02-10 16:25:00,35.2,16.5,28.82,WSW,258,15.2,16.3,46,0.00,,---,0.00,VWS V14.01,2013-02-10 21:25:00,
2013-02-10 16:26:00,35.2,16.0,28.82,WNW,283,19.9,19.9,45,0.00,,---,0.00,VWS V14.01,2013-02-10 21:26:00,
2013-02-10 16:27:00,35.2,16.0,28.82,West,270,20.6,22.8,45,0.00,,---,0.00,VWS V14.01,2013-02-10 21:27:00,
2013-02-10 16:28:00,35.2,15.5,28.82,WSW,243,13.9,24.2,44,0.00,,---,0.00,VWS V14.01,2013-02-10 21:28:00,
2013-02-10 16:29:00,45.9,29.7,28.73,SE,129,4.9,6.7,53,0.00,,---,0.00,VWS V14.01,2013-02-10 21:29:00,
2013-02-10 16:30:00,35.2,15.5,28.82,SSW,213,15.2,19.5,44,0.00,,---,0.00,VWS V14.01,2013-02-10 21:30:00,
2013-02-10 16:31:00,35.2,16.0,28.82,WSW,249,10.1,19.5,45,0.00,,---,0.00,VWS V14.01,2013-02-10 21:31:00,
2013-02-10 16:32:00,35.2,16.0,28.82,NNW,327,8.3,19.0,45,0.00,,---,0.00,VWS V14.01,2013-02-10 21:32:00,
2013-02-10 16:33:00,35.2,16.0,28.82,WNW,298,13.9,19.9,45,0.00,,---,0.00,VWS V14.01,2013-02-10 21:33:00,
2013-02-10 16:34:00,45.9,29.2,28.73,ESE,122,3.1,6.7,52,0.00,,---,0.00,VWS V14.01,2013-02-10 21:34:00,
2013-02-10 16:35:00,35.2,16.5,28.82,WSW,247,17.2,17.2,46,0.00,,---,0.00,VWS V14.01,2013-02-10 21:35:00,
2013-02-10 16:36:00,35.2,17.0,28.82,SW,235,8.3,17.2,47,0.00,,---,0.00,VWS V14.01,2013-02-10 21:36:00,
2013-02-10 16:37:00,35.2,17.0,28.85,South,181,17.2,19.5,47,0.00,,---,0.00,VWS V14.01,2013-02-10 21:37:00,
2013-02-10 16:38:00,35.2,16.5,28.85,West,265,13.9,17.2,46,0.00,,---,0.00,VWS V14.01,2013-02-10 21:38:00,
2013-02-10 16:39:00,46.0,29.4,28.73,SSE,158,3.6,4.0,52,0.00,,---,0.00,VWS V14.01,2013-02-10 21:39:00,
2013-02-10 16:40:00,35.2,17.0,28.85,WSW,243,16.3,19.0,47,0.00,,---,0.00,VWS V14.01,2013-02-10 21:40:00,
2013-02-10 16:41:00,35.2,17.0,28.85,WSW,256,13.0,16.8,47,0.00,,---,0.00,VWS V14.01,2013-02-10 21:41:00,
2013-02-10 16:42:00,35.2,17.0,28.85,WSW,250,15.2,21.9,47,0.00,,---,0.00,VWS V14.01,2013-02-10 21:42:00,
2013-02-10 16:43:00,35.2,17.0,28.85,SW,235,9.6,17.2,47,0.00,,---,0.00,VWS V14.01,2013-02-10 21:43:00,
2013-02-10 16:44:00,46.2,29.6,28.73,ESE,117,3.6,3.6,52,0.00,,---,0.00,VWS V14.01,2013-02-10 21:44:00,
2013-02-10 16:45:00,35.2,17.5,28.85,SW,235,13.9,17.2,48,0.00,,---,0.00,VWS V14.01,2013-02-10 21:45:00,
2013-02-10 16:46:00,35.1,17.4,28.85,WSW,242,13.4,18.6,48,0.00,,---,0.00,VWS V14.01,2013-02-10 21:46:00,
2013-02-10 16:47:00,35.1,17.4,28.85,WNW,282,7.8,13.4,48,0.00,,---,0.00,VWS V14.01,2013-02-10 21:47:00,
2013-02-10 16:48:00,35.2,17.5,28.85,WSW,248,13.0,13.0,48,0.00,,---,0.00,VWS V14.01,2013-02-10 21:48:00,
2013-02-10 16:49:00,46.6,29.4,28.73,SSE,166,6.3,6.9,51,0.00,,---,0.00,VWS V14.01,2013-02-10 21:49:00,
2013-02-10 16:50:00,35.1,17.4,28.85,West,278,13.4,18.6,48,0.00,,---,0.00,VWS V14.01,2013-02-10 21:50:00,
2013-02-10 16:51:00,35.1,17.4,28.85,WSW,251,9.6,16.8,48,0.00,,---,0.00,VWS V14.01,2013-02-10 21:51:00,
2013-02-10 16:52:00,35.1,17.4,28.85,WSW,255,11.0,17.2,48,0.00,,---,0.00,VWS V14.01,2013-02-10 21:52:00,
2013-02-10 16:53:00,35.2,18.0,28.85,West,260,6.9,11.0,49,0.00,,---,0.00,VWS V14.01,2013-02-10 21:53:00,
2013-02-10 16:54:00,46.8,29.1,28.73,SSE,157,0.0,6.3,50,0.00,,---,0.00,VWS V14.01,2013-02-10 21:54:00,
2013-02-10 16:55:00,35.2,18.0,28.85,WSW,255,15.4,15.4,49,0.00,,---,0.00,VWS V14.01,2013-02-10 21:55:00,
2013-02-10 16:56:00,35.2,18.0,28.85,West,279,8.7,15.4,49,0.00,,---,0.00,VWS V14.01,2013-02-10 21:56:00,
2013-02-10 16:57:00,35.2,18.0,28.85,West,277,15.9,17.7,49,0.00,,---,0.00,VWS V14.01,2013-02-10 21:57:00,
2013-02-10 16:58:00,35.2,18.0,28.85,WSW,255,10.5,17.2,49,0.00,,---,0.00,VWS V14.01,2013-02-10 21:58:00,
2013-02-10 16:59:00,47.1,29.5,28.73,South,188,4.9,9.2,50,0.00,,---,0.00,VWS V14.01,2013-02-10 21:59:00,
2013-02-10 17:00:00,35.1,17.8,28.85,WSW,257,12.1,15.9,49,0.00,,---,0.00,VWS V14.01,2013-02-10 22:00:00,
2013-02-10 17:01:00,35.1,17.8,28.85,West,273,10.1,21.0,49,0.00,,---,0.00,VWS V14.01,2013-02-10 22:01:00,
2013-02-10 17:02:00,35.2,18.0,28.85,SW,232,9.2,14.8,49,0.00,,---,0.00,VWS V14.01,2013-02-10 22:02:00,
2013-02-10 17:03:00,35.2,18.0,28.85,West,279,12.5,12.5,49,0.00,,---,0.00,VWS V14.01,2013-02-10 22:03:00,
2013-02-10 17:04:00,47.3,30.1,28.73,SE,143,2.7,5.8,51,0.00,,---,0.00,VWS V14.01,2013-02-10 22:04:00,
2013-02-10 17:05:00,35.2,18.0,28.85,WSW,245,13.4,15.9,49,0.00,,---,0.00,VWS V14.01,2013-02-10 22:05:00,
2013-02-10 17:06:00,35.2,18.0,28.85,WSW,242,19.0,19.0,49,0.00,,---,0.00,VWS V14.01,2013-02-10 22:06:00,
2013-02-10 17:07:00,35.2,18.0,28.85,WNW,299,12.5,19.0,49,0.00,,---,0.00,VWS V14.01,2013-02-10 22:07:00,
2013-02-10 17:08:00,35.2,18.0,28.85,West,263,13.9,13.9,49,0.00,,---,0.00,VWS V14.01,2013-02-10 22:08:00,
2013-02-10 17:09:00,47.3,29.6,28.73,SW,219,4.0,9.2,50,0.00,,---,0.00,VWS V14.01,2013-02-10 22:09:00,
2013-02-10 17:10:00,35.1,17.8,28.85,SW,218,11.6,17.2,49,0.00,,---,0.00,VWS V14.01,2013-02-10 22:10:00,
2013-02-10 17:11:00,35.1,17.8,28.85,West,261,11.0,18.6,49,0.00,,---,0.00,VWS V14.01,2013-02-10 22:11:00,
2013-02-10 17:12:00,35.1,18.3,28.85,West,262,13.4,14.8,50,0.00,,---,0.00,VWS V14.01,2013-02-10 22:12:00,
2013-02-10 17:13:00,35.1,18.3,28.85,WNW,288,11.6,18.6,50,0.00,,---,0.00,VWS V14.01,2013-02-10 22:13:00,
2013-02-10 17:14:00,47.3,30.1,28.73,SSW,194,5.8,8.7,51,0.00,,---,0.00,VWS V14.01,2013-02-10 22:14:00,
2013-02-10 17:15:00,35.1,18.3,28.85,WSW,252,8.3,12.5,50,0.00,,---,0.00,VWS V14.01,2013-02-10 22:15:00,
2013-02-10 17:16:00,35.1,18.8,28.85,WSW,244,6.7,10.1,51,0.00,,---,0.00,VWS V14.01,2013-02-10 22:16:00,
2013-02-10 17:17:00,35.1,18.8,28.85,WSW,251,8.3,13.0,51,0.00,,---,0.00,VWS V14.01,2013-02-10 22:17:00,
2013-02-10 17:18:00,35.1,18.8,28.85,West,259,9.6,14.8,51,0.00,,---,0.00,VWS V14.01,2013-02-10 22:18:00,
2013-02-10 17:19:00,47.3,30.1,28.73,South,176,2.7,6.7,51,0.00,,---,0.00,VWS V14.01,2013-02-10 22:19:00,
2013-02-10 17:20:00,35.1,18.8,28.85,WSW,251,8.3,12.1,51,0.00,,---,0.00,VWS V14.01,2013-02-10 22:20:00,
2013-02-10 17:21:00,35.1,18.8,28.85,West,277,9.6,14.3,51,0.00,,---,0.00,VWS V14.01,2013-02-10 22:21:00,
2013-02-10 17:22:00,35.1,18.8,28.85,WSW,242,11.0,20.1,51,0.00,,---,0.00,VWS V14.01,2013-02-10 22:22:00,
2013-02-10 17:23:00,35.1,19.2,28.85,WSW,241,6.9,11.6,52,0.00,,---,0.00,VWS V14.01,2013-02-10 22:23:00,
2013-02-10 17:24:00,47.5,30.3,28.73,South,185,6.7,6.7,51,0.00,,---,0.00,VWS V14.01,2013-02-10 22:24:00,
2013-02-10 17:25:00,35.1,19.2,28.85,WSW,255,6.3,10.1,52,0.00,,---,0.00,VWS V14.01,2013-02-10 22:25:00,
2013-02-10 17:26:00,35.1,19.2,28.85,West,266,10.5,13.9,52,0.00,,---,0.00,VWS V14.01,2013-02-10 22:26:00,
2013-02-10 17:27:00,35.1,19.2,28.85,West,272,6.7,11.6,52,0.00,,---,0.00,VWS V14.01,2013-02-10 22:27:00,
2013-02-10 17:28:00,34.9,19.5,28.85,WSW,251,9.2,10.5,53,0.00,,---,0.00,VWS V14.01,2013-02-10 22:28:00,
2013-02-10 17:29:00,47.5,30.3,28.70,SSW,197,5.4,7.4,51,0.00,,---,0.00,VWS V14.01,2013-02-10 22:29:00,
2013-02-10 17:30:00,34.9,19.1,28.85,West,259,7.8,16.3,52,0.00,,---,0.00,VWS V14.01,2013-02-10 22:30:00,
2013-02-10 17:31:00,34.9,19.1,28.85,WSW,250,13.0,14.8,52,0.00,,---,0.00,VWS V14.01,2013-02-10 22:31:00,
2013-02-10 17:32:00,34.9,19.1,28.85,SW,226,9.6,18.1,52,0.00,,---,0.00,VWS V14.01,2013-02-10 22:32:00,
2013-02-10 17:33:00,34.9,19.1,28.85,WSW,251,13.9,15.9,52,0.00,,---,0.00,VWS V14.01,2013-02-10 22:33:00,
2013-02-10 17:34:00,47.5,30.3,28.70,South,183,4.5,9.6,51,0.00,,---,0.00,VWS V14.01,2013-02-10 22:34:00,
2013-02-10 17:35:00,34.9,19.1,28.85,West,278,11.0,19.0,52,0.00,,---,0.00,VWS V14.01,2013-02-10 22:35:00,
2013-02-10 17:36:00,34.9,19.1,28.85,WSW,243,10.1,15.4,52,0.00,,---,0.00,VWS V14.01,2013-02-10 22:36:00,
2013-02-10 17:37:00,34.9,19.1,28.85,WNW,292,6.9,11.6,52,0.00,,---,0.00,VWS V14.01,2013-02-10 22:37:00,
2013-02-10 17:38:00,34.9,19.1,28.85,WSW,255,13.9,14.8,52,0.00,,---,0.00,VWS V14.01,2013-02-10 22:38:00,
2013-02-10 17:39:00,47.5,30.3,28.70,SSE,161,8.3,11.0,51,0.00,,---,0.00,VWS V14.01,2013-02-10 22:39:00,
2013-02-10 17:40:00,34.9,18.6,28.85,WNW,296,11.2,15.4,51,0.00,,---,0.00,VWS V14.01,2013-02-10 22:40:00,
2013-02-10 17:41:00,34.9,18.6,28.85,WSW,250,12.5,13.9,51,0.00,,---,0.00,VWS V14.01,2013-02-10 22:41:00,
2013-02-10 17:42:00,34.9,18.6,28.85,WSW,240,11.6,16.8,51,0.00,,---,0.00,VWS V14.01,2013-02-10 22:42:00,
2013-02-10 17:43:00,34.9,18.6,28.85,West,268,11.0,18.1,51,0.00,,---,0.00,VWS V14.01,2013-02-10 22:43:00,
2013-02-10 17:44:00,47.7,30.4,28.67,SSE,160,5.4,10.5,51,0.00,,---,0.00,VWS V14.01,2013-02-10 22:44:00,
2013-02-10 17:45:00,35.1,18.3,28.85,West,268,17.2,17.2,50,0.00,,---,0.00,VWS V14.01,2013-02-10 22:45:00,
2013-02-10 17:46:00,35.1,18.3,28.85,WNW,299,10.5,17.2,50,0.00,,---,0.00,VWS V14.01,2013-02-10 22:46:00,
2013-02-10 17:47:00,35.1,18.3,28.85,WSW,258,12.5,16.8,50,0.00,,---,0.00,VWS V14.01,2013-02-10 22:47:00,
2013-02-10 17:48:00,35.1,18.3,28.85,WSW,238,8.7,20.1,50,0.00,,---,0.00,VWS V14.01,2013-02-10 22:48:00,
2013-02-10 17:49:00,47.8,30.6,28.67,SE,145,5.4,8.7,51,0.00,,---,0.00,VWS V14.01,2013-02-10 22:49:00,
2013-02-10 17:50:00,35.1,18.3,28.85,WSW,249,14.3,17.7,50,0.00,,---,0.00,VWS V14.01,2013-02-10 22:50:00,
2013-02-10 17:51:00,35.1,18.3,28.85,West,279,18.1,18.1,50,0.00,,---,0.00,VWS V14.01,2013-02-10 22:51:00,
2013-02-10 17:52:00,35.1,18.3,28.85,SW,236,7.8,18.1,50,0.00,,---,0.00,VWS V14.01,2013-02-10 22:52:00,
2013-02-10 17:53:00,35.1,18.3,28.85,WNW,284,13.4,13.4,50,0.00,,---,0.00,VWS V14.01,2013-02-10 22:53:00,
2013-02-10 17:54:00,47.8,30.6,28.67,SSE,166,4.0,12.5,51,0.00,,---,0.00,VWS V14.01,2013-02-10 22:54:00,
2013-02-10 17:55:00,35.1,18.8,28.85,West,275,12.1,16.3,51,0.00,,---,0.00,VWS V14.01,2013-02-10 22:55:00,
2013-02-10 17:56:00,35.1,18.8,28.85,WSW,254,9.2,12.1,51,0.00,,---,0.00,VWS V14.01,2013-02-10 22:56:00,
2013-02-10 17:57:00,34.9,18.6,28.85,West,276,9.2,13.4,51,0.00,,---,0.00,VWS V14.01,2013-02-10 22:57:00,
2013-02-10 17:58:00,34.9,18.6,28.85,West,263,7.8,11.2,51,0.00,,---,0.00,VWS V14.01,2013-02-10 22:58:00,
2013-02-10 17:59:00,47.8,30.6,28.67,SE,137,8.7,8.7,51,0.00,,---,0.00,VWS V14.01,2013-02-10 22:59:00,
2013-02-10 18:00:00,34.9,19.1,28.85,WNW,300,11.2,14.8,52,0.00,,---,0.00,VWS V14.01,2013-02-10 23:00:00,
2013-02-10 18:01:00,34.9,19.1,28.85,West,275,13.0,15.9,52,0.00,,---,0.00,VWS V14.01,2013-02-10 23:01:00,
2013-02-10 18:02:00,34.9,19.1,28.85,West,273,7.8,13.0,52,0.00,,---,0.00,VWS V14.01,2013-02-10 23:02:00,
2013-02-10 18:03:00,34.9,19.1,28.85,West,263,11.0,17.7,52,0.00,,---,0.00,VWS V14.01,2013-02-10 23:03:00,
2013-02-10 18:04:00,47.7,30.9,28.67,SW,228,5.8,7.8,52,0.00,,---,0.00,VWS V14.01,2013-02-10 23:04:00,
2013-02-10 18:05:00,34.9,19.1,28.85,West,271,8.7,15.4,52,0.00,,---,0.00,VWS V14.01,2013-02-10 23:05:00,
2013-02-10 18:06:00,34.9,19.1,28.85,WSW,258,7.8,12.1,52,0.00,,---,0.00,VWS V14.01,2013-02-10 23:06:00,
2013-02-10 18:07:00,34.9,19.1,28.85,WSW,240,12.5,17.7,52,0.00,,---,0.00,VWS V14.01,2013-02-10 23:07:00,
2013-02-10 18:08:00,34.9,19.1,28.85,WSW,244,11.2,16.3,52,0.00,,---,0.00,VWS V14.01,2013-02-10 23:08:00,
2013-02-10 18:09:00,47.5,31.2,28.67,SSW,213,5.4,9.2,53,0.00,,---,0.00,VWS V14.01,2013-02-10 23:09:00,
2013-02-10 18:10:00,35.1,19.2,28.85,West,273,13.9,13.9,52,0.00,,---,0.00,VWS V14.01,2013-02-10 23:10:00,
2013-02-10 18:11:00,34.9,19.1,28.85,West,271,6.9,14.3,52,0.00,,---,0.00,VWS V14.01,2013-02-10 23:11:00,
2013-02-10 18:12:00,35.1,19.2,28.85,West,266,10.5,13.9,52,0.00,,---,0.00,VWS V14.01,2013-02-10 23:12:00,
2013-02-10 18:13:00,34.9,19.1,28.85,WSW,250,10.5,15.4,52,0.00,,---,0.00,VWS V14.01,2013-02-10 23:13:00,
2013-02-10 18:14:00,47.7,31.9,28.70,South,174,6.7,10.5,54,0.00,,---,0.00,VWS V14.01,2013-02-10 23:14:00,
2013-02-10 18:15:00,34.9,19.1,28.85,West,272,11.0,20.1,52,0.00,,---,0.00,VWS V14.01,2013-02-10 23:15:00,
2013-02-10 18:16:00,35.1,19.2,28.85,West,259,9.6,14.3,52,0.00,,---,0.00,VWS V14.01,2013-02-10 23:16:00,
2013-02-10 18:17:00,35.1,19.2,28.85,WSW,239,9.2,13.9,52,0.00,,---,0.00,VWS V14.01,2013-02-10 23:17:00,
2013-02-10 18:18:00,34.9,19.1,28.85,NW,326,7.8,12.5,52,0.00,,---,0.00,VWS V14.01,2013-02-10 23:18:00,
2013-02-10 18:19:00,47.8,32.0,28.70,South,171,7.8,10.1,54,0.00,,---,0.00,VWS V14.01,2013-02-10 23:19:00,
2013-02-10 18:20:00,35.1,19.2,28.85,WSW,255,11.2,13.0,52,0.00,,---,0.00,VWS V14.01,2013-02-10 23:20:00,
2013-02-10 18:21:00,35.1,19.2,28.85,WNW,285,9.2,13.0,52,0.00,,---,0.00,VWS V14.01,2013-02-10 23:21:00,
2013-02-10 18:22:00,34.9,19.1,28.85,West,279,11.2,14.8,52,0.00,,---,0.00,VWS V14.01,2013-02-10 23:22:00,
2013-02-10 18:23:00,35.1,19.2,28.85,WSW,243,13.0,15.2,52,0.00,,---,0.00,VWS V14.01,2013-02-10 23:23:00,
2013-02-10 18:24:00,48.0,32.6,28.70,SW,221,4.0,8.7,55,0.00,,---,0.00,VWS V14.01,2013-02-10 23:24:00,
2013-02-10 18:25:00,35.1,19.2,28.85,West,261,8.3,11.6,52,0.00,,---,0.00,VWS V14.01,2013-02-10 23:25:00,
2013-02-10 18:26:00,35.1,19.2,28.85,WNW,289,12.1,14.8,52,0.00,,---,0.00,VWS V14.01,2013-02-10 23:26:00,
2013-02-10 18:27:00,35.1,18.8,28.85,NW,314,10.1,15.2,51,0.00,,---,0.00,VWS V14.01,2013-02-10 23:27:00,
2013-02-10 18:28:00,35.1,18.8,28.85,West,270,10.1,13.9,51,0.00,,---,0.00,VWS V14.01,2013-02-10 23:28:00,
2013-02-10 18:29:00,48.0,32.6,28.67,SSE,155,5.4,13.0,55,0.00,,---,0.00,VWS V14.01,2013-02-10 23:29:00,
2013-02-10 18:30:00,35.1,19.2,28.85,WSW,251,7.4,14.8,52,0.00,,---,0.00,VWS V14.01,2013-02-10 23:30:00,
2013-02-10 18:31:00,35.1,19.2,28.85,SW,222,8.3,14.3,52,0.00,,---,0.00,VWS V14.01,2013-02-10 23:31:00,
2013-02-10 18:32:00,35.1,19.2,28.85,WSW,244,15.4,19.0,52,0.00,,---,0.00,VWS V14.01,2013-02-10 23:32:00,
2013-02-10 18:33:00,35.1,19.2,28.85,West,263,8.7,15.4,52,0.00,,---,0.00,VWS V14.01,2013-02-10 23:33:00,
2013-02-10 18:34:00,48.2,33.3,28.67,SSW,202,6.9,12.5,56,0.00,,---,0.00,VWS V14.01,2013-02-10 23:34:00,
2013-02-10 18:35:00,35.1,19.2,28.85,WSW,240,5.8,12.5,52,0.00,,---,0.00,VWS V14.01,2013-02-10 23:35:00,
2013-02-10 18:36:00,35.1,19.2,28.85,WNW,284,7.8,11.6,52,0.00,,---,0.00,VWS V14.01,2013-02-10 23:36:00,
2013-02-10 18:37:00,35.1,19.2,28.85,West,271,10.1,12.5,52,0.00,,---,0.00,VWS V14.01,2013-02-10 23:37:00,
2013-02-10 18:38:00,35.1,19.2,28.85,WNW,302,10.1,14.8,52,0.00,,---,0.00,VWS V14.01,2013-02-10 23:38:00,
2013-02-10 18:39:00,48.2,33.7,28.67,SSE,150,7.8,8.7,57,0.00,,---,0.00,VWS V14.01,2013-02-10 23:39:00,
2013-02-10 18:40:00,35.1,19.2,28.85,NW,309,10.1,13.4,52,0.00,,---,0.00,VWS V14.01,2013-02-10 23:40:00,
2013-02-10 18:41:00,35.1,19.2,28.85,West,274,6.3,14.8,52,0.00,,---,0.00,VWS V14.01,2013-02-10 23:41:00,
2013-02-10 18:42:00,35.1,19.7,28.85,WSW,252,11.2,11.2,53,0.00,,---,0.00,VWS V14.01,2013-02-10 23:42:00,
2013-02-10 18:43:00,35.1,19.7,28.85,SW,233,10.1,12.1,53,0.00,,---,0.00,VWS V14.01,2013-02-10 23:43:00,
2013-02-10 18:44:00,48.2,34.1,28.67,South,171,5.4,7.8,58,0.00,,---,0.00,VWS V14.01,2013-02-10 23:44:00,
2013-02-10 18:45:00,34.9,19.5,28.85,West,262,13.4,13.4,53,0.00,,---,0.00,VWS V14.01,2013-02-10 23:45:00,
2013-02-10 18:46:00,34.9,19.5,28.85,WSW,251,9.6,15.2,53,0.00,,---,0.00,VWS V14.01,2013-02-10 23:46:00,
2013-02-10 18:47:00,34.9,19.5,28.85,WSW,256,6.3,15.4,53,0.00,,---,0.00,VWS V14.01,2013-02-10 23:47:00,
2013-02-10 18:48:00,34.9,19.5,28.85,WSW,246,6.3,15.2,53,0.00,,---,0.00,VWS V14.01,2013-02-10 23:48:00,
2013-02-10 18:49:00,48.2,34.1,28.67,SSE,166,3.6,10.1,58,0.00,,---,0.00,VWS V14.01,2013-02-10 23:49:00,
2013-02-10 18:50:00,34.9,19.5,28.85,West,264,11.6,14.3,53,0.00,,---,0.00,VWS V14.01,2013-02-10 23:50:00,
2013-02-10 18:51:00,34.9,19.5,28.85,West,269,11.2,15.2,53,0.00,,---,0.00,VWS V14.01,2013-02-10 23:51:00,
2013-02-10 18:52:00,34.9,19.5,28.88,WSW,248,10.5,12.1,53,0.00,,---,0.00,VWS V14.01,2013-02-10 23:52:00,
2013-02-10 18:53:00,34.9,19.9,28.88,WNW,285,11.2,16.3,54,0.00,,---,0.00,VWS V14.01,2013-02-10 23:53:00,
2013-02-10 18:54:00,48.2,34.6,28.67,WSW,248,9.2,11.6,59,0.00,,---,0.00,VWS V14.01,2013-02-10 23:54:00,
2013-02-10 18:55:00,34.9,19.5,28.88,WSW,241,10.5,13.9,53,0.00,,---,0.00,VWS V14.01,2013-02-10 23:55:00,
2013-02-10 18:56:00,34.9,19.9,28.88,WNW,283,9.2,13.0,54,0.00,,---,0.00,VWS V14.01,2013-02-10 23:56:00,
2013-02-10 18:57:00,34.9,19.9,28.88,WSW,255,8.3,13.0,54,0.00,,---,0.00,VWS V14.01,2013-02-10 23:57:00,
2013-02-10 18:58:00,34.9,19.9,28.88,West,275,11.2,12.1,54,0.00,,---,0.00,VWS V14.01,2013-02-10 23:58:00,
2013-02-10 18:59:00,48.4,35.2,28.67,SSE,166,8.3,9.2,60,0.00,,---,0.00,VWS V14.01,2013-02-10 23:59:00,
2013-02-10 19:00:00,34.9,19.9,28.88,WSW,245,9.2,11.2,54,0.00,,---,0.00,VWS V14.01,2013-02-11 00:00:00,
2013-02-10 19:01:00,34.9,19.9,28.88,West,268,11.6,14.8,54,0.00,,---,0.00,VWS V14.01,2013-02-11 00:01:00,
2013-02-10 19:02:00,34.9,19.9,28.88,SW,228,11.0,13.4,54,0.00,,---,0.00,VWS V14.01,2013-02-11 00:02:00,
2013-02-10 19:03:00,34.9,19.9,28.88,WSW,254,4.9,11.0,54,0.00,,---,0.00,VWS V14.01,2013-02-11 00:03:00,
2013-02-10 19:04:00,48.6,36.2,28.67,South,187,6.9,12.5,62,0.00,,---,0.00,VWS V14.01,2013-02-11 00:04:00,
2013-02-10 19:05:00,34.9,20.4,28.88,West,270,7.4,13.9,55,0.00,,---,0.00,VWS V14.01,2013-02-11 00:05:00,
2013-02-10 19:06:00,34.9,20.4,28.88,West,276,11.0,12.1,55,0.00,,---,0.00,VWS V14.01,2013-02-11 00:06:00,
2013-02-10 19:07:00,34.9,20.4,28.88,WSW,248,6.3,13.4,55,0.00,,---,0.00,VWS V14.01,2013-02-11 00:07:00,
2013-02-10 19:08:00,34.9,20.4,28.88,West,271,14.8,14.8,55,0.00,,---,0.00,VWS V14.01,2013-02-11 00:08:00,
2013-02-10 19:09:00,48.7,37.1,28.67,ESE,116,0.0,11.0,64,0.00,,---,0.00,VWS V14.01,2013-02-11 00:09:00,
2013-02-10 19:10:00,34.9,19.9,28.88,SW,228,7.4,18.6,54,0.00,,---,0.00,VWS V14.01,2013-02-11 00:10:00,
2013-02-10 19:11:00,35.1,20.1,28.88,WSW,257,13.0,13.0,54,0.00,,---,0.00,VWS V14.01,2013-02-11 00:11:00,
2013-02-10 19:12:00,35.1,20.1,28.88,WNW,289,10.1,15.2,54,0.00,,---,0.00,VWS V14.01,2013-02-11 00:12:00,
2013-02-10 19:13:00,35.1,20.1,28.88,WSW,249,12.5,13.9,54,0.00,,---,0.00,VWS V14.01,2013-02-11 00:13:00,
2013-02-10 19:14:00,48.9,37.7,28.67,SSE,161,7.4,10.5,65,0.00,,---,0.00,VWS V14.01,2013-02-11 00:14:00,
2013-02-10 19:15:00,35.1,20.1,28.88,West,260,13.0,15.4,54,0.00,,---,0.00,VWS V14.01,2013-02-11 00:15:00,
2013-02-10 19:16:00,35.1,20.1,28.88,WSW,249,8.7,14.8,54,0.00,,---,0.00,VWS V14.01,2013-02-11 00:16:00,
2013-02-10 19:17:00,35.1,20.1,28.88,West,262,10.1,13.4,54,0.00,,---,0.00,VWS V14.01,2013-02-11 00:17:00,
2013-02-10 19:18:00,35.1,20.1,28.88,WNW,289,11.0,13.9,54,0.00,,---,0.00,VWS V14.01,2013-02-11 00:18:00,
2013-02-10 19:19:00,49.1,38.2,28.67,SW,232,12.1,15.9,66,0.00,,---,0.00,VWS V14.01,2013-02-11 00:19:00,
2013-02-10 19:20:00,35.1,20.1,28.88,West,267,9.6,12.5,54,0.00,,---,0.00,VWS V14.01,2013-02-11 00:20:00,
2013-02-10 19:21:00,35.1,20.1,28.88,WNW,298,7.8,12.1,54,0.00,,---,0.00,VWS V14.01,2013-02-11 00:21:00,
2013-02-10 19:22:00,35.1,20.1,28.88,WNW,288,14.8,14.8,54,0.00,,---,0.00,VWS V14.01,2013-02-11 00:22:00,
2013-02-10 19:23:00,35.1,20.1,28.88,West,275,7.4,16.3,54,0.00,,---,0.00,VWS V14.01,2013-02-11 00:23:00,
2013-02-10 19:24:00,49.3,38.8,28.67,West,279,9.2,16.3,67,0.00,,---,0.00,VWS V14.01,2013-02-11 00:24:00,
2013-02-10 19:25:00,35.1,20.5,28.88,West,269,8.7,14.3,55,0.00,,---,0.00,VWS V14.01,2013-02-11 00:25:00,
2013-02-10 19:26:00,35.1,20.5,28.88,WNW,303,7.4,9.2,55,0.00,,---,0.00,VWS V14.01,2013-02-11 00:26:00,
2013-02-10 19:27:00,35.1,20.5,28.88,West,264,8.7,11.0,55,0.00,,---,0.00,VWS V14.01,2013-02-11 00:27:00,
2013-02-10 19:28:00,35.1,21.0,28.88,WSW,245,7.8,11.6,56,0.00,,---,0.00,VWS V14.01,2013-02-11 00:28:00,
2013-02-10 19:29:00,49.5,39.3,28.67,SW,235,11.6,15.2,68,0.00,,---,0.00,VWS V14.01,2013-02-11 00:29:00,
2013-02-10 19:30:00,35.1,21.0,28.88,West,272,12.5,14.3,56,0.00,,---,0.00,VWS V14.01,2013-02-11 00:30:00,
2013-02-10 19:31:00,35.1,21.0,28.88,West,280,15.2,15.2,56,0.00,,---,0.00,VWS V14.01,2013-02-11 00:31:00,
2013-02-10 19:32:00,35.1,21.0,28.88,West,281,9.6,15.2,56,0.00,,---,0.00,VWS V14.01,2013-02-11 00:32:00,
2013-02-10 19:33:00,35.1,21.0,28.88,West,266,11.6,12.1,56,0.00,,---,0.00,VWS V14.01,2013-02-11 00:33:00,
2013-02-10 19:34:00,49.5,39.7,28.67,SSW,205,13.0,15.2,69,0.00,,---,0.00,VWS V14.01,2013-02-11 00:34:00,
2013-02-10 19:35:00,35.1,21.0,28.88,West,267,7.8,11.2,56,0.00,,---,0.00,VWS V14.01,2013-02-11 00:35:00,
2013-02-10 19:36:00,35.1,21.4,28.88,West,277,6.7,10.1,57,0.00,,---,0.00,VWS V14.01,2013-02-11 00:36:00,
2013-02-10 19:37:00,35.1,21.4,28.88,WNW,288,7.4,12.5,57,0.00,,---,0.00,VWS V14.01,2013-02-11 00:37:00,
2013-02-10 19:38:00,35.1,21.4,28.88,West,280,11.2,15.9,57,0.00,,---,0.00,VWS V14.01,2013-02-11 00:38:00,
2013-02-10 19:39:00,49.6,40.3,28.67,South,185,7.4,14.3,70,0.00,,---,0.00,VWS V14.01,2013-02-11 00:39:00,
2013-02-10 19:40:00,35.1,21.4,28.88,WNW,284,9.2,9.6,57,0.00,,---,0.00,VWS V14.01,2013-02-11 00:40:00,
2013-02-10 19:41:00,35.1,21.8,28.88,WSW,247,6.3,10.1,58,0.00,,---,0.00,VWS V14.01,2013-02-11 00:41:00,
2013-02-10 19:42:00,35.1,21.8,28.88,NW,309,11.0,11.0,58,0.00,,---,0.00,VWS V14.01,2013-02-11 00:42:00,
2013-02-10 19:43:00,35.1,21.8,28.88,WNW,282,8.3,11.6,58,0.00,,---,0.00,VWS V14.01,2013-02-11 00:43:00,
2013-02-10 19:44:00,49.6,40.6,28.67,SSW,208,13.0,13.0,71,0.00,,---,0.00,VWS V14.01,2013-02-11 00:44:00,
2013-02-10 19:45:00,35.1,21.8,28.88,WNW,287,12.5,14.3,58,0.00,,---,0.00,VWS V14.01,2013-02-11 00:45:00,
2013-02-10 19:46:00,35.1,21.8,28.88,WNW,291,4.5,12.5,58,0.00,,---,0.00,VWS V14.01,2013-02-11 00:46:00,
2013-02-10 19:47:00,35.1,22.2,28.88,WNW,294,13.0,13.0,59,0.00,,---,0.00,VWS V14.01,2013-02-11 00:47:00,
2013-02-10 19:48:00,35.1,22.2,28.88,WNW,295,11.2,13.0,59,0.00,,---,0.00,VWS V14.01,2013-02-11 00:48:00,
2013-02-10 19:49:00,49.8,41.2,28.67,SW,214,6.3,13.0,72,0.00,,---,0.00,VWS V14.01,2013-02-11 00:49:00,
2013-02-10 19:50:00,35.1,22.2,28.88,WNW,283,7.8,13.4,59,0.00,,---,0.00,VWS V14.01,2013-02-11 00:50:00,
2013-02-10 19:51:00,35.1,22.2,28.88,WNW,282,7.4,11.0,59,0.00,,---,0.00,VWS V14.01,2013-02-11 00:51:00,
2013-02-10 19:52:00,35.1,22.2,28.88,NW,323,6.7,9.2,59,0.00,,---,0.00,VWS V14.01,2013-02-11 00:52:00,
2013-02-10 19:53:00,35.1,22.6,28.88,West,270,6.7,10.1,60,0.00,,---,0.00,VWS V14.01,2013-02-11 00:53:00,
2013-02-10 19:54:00,50.0,41.7,28.67,WSW,247,6.7,9.6,73,0.00,,---,0.00,VWS V14.01,2013-02-11 00:54:00,
2013-02-10 19:55:00,35.1,22.6,28.88,NW,310,14.3,14.8,60,0.00,,---,0.00,VWS V14.01,2013-02-11 00:55:00,
2013-02-10 19:56:00,35.1,22.6,28.88,West,268,9.2,14.3,60,0.00,,---,0.00,VWS V14.01,2013-02-11 00:56:00,
2013-02-10 19:57:00,35.1,22.6,28.88,WNW,287,11.6,12.5,60,0.00,,---,0.00,VWS V14.01,2013-02-11 00:57:00,
2013-02-10 19:58:00,35.1,22.6,28.88,West,275,6.9,11.6,60,0.00,,---,0.00,VWS V14.01,2013-02-11 00:58:00,
2013-02-10 19:59:00,50.0,41.7,28.67,SW,230,12.5,17.7,73,0.00,,---,0.00,VWS V14.01,2013-02-11 00:59:00,
2013-02-10 20:00:00,34.9,22.8,28.88,NW,314,4.5,9.2,61,0.00,,---,0.00,VWS V14.01,2013-02-11 01:00:00,
2013-02-10 20:01:00,34.9,22.8,28.88,WNW,291,6.7,8.7,61,0.00,,---,0.00,VWS V14.01,2013-02-11 01:01:00,
2013-02-10 20:02:00,34.9,22.8,28.88,WNW,296,5.4,9.6,61,0.00,,---,0.00,VWS V14.01,2013-02-11 01:02:00,
2013-02-10 20:03:00,34.9,22.8,28.88,West,278,6.7,8.7,61,0.00,,---,0.00,VWS V14.01,2013-02-11 01:03:00,
2013-02-10 20:04:00,50.2,42.2,28.67,SSW,204,10.5,13.0,74,0.00,,---,0.00,VWS V14.01,2013-02-11 01:04:00,
2013-02-10 20:05:00,34.9,23.2,28.88,West,259,11.6,11.6,62,0.00,,---,0.00,VWS V14.01,2013-02-11 01:05:00,
2013-02-10 20:06:00,34.9,23.2,28.88,NW,311,6.7,11.6,62,0.00,,---,0.00,VWS V14.01,2013-02-11 01:06:00,
2013-02-10 20:07:00,34.9,23.2,28.88,WSW,245,6.9,9.6,62,0.00,,---,0.00,VWS V14.01,2013-02-11 01:07:00,
2013-02-10 20:08:00,34.9,23.2,28.88,WNW,284,8.3,10.1,62,0.00,,---,0.00,VWS V14.01,2013-02-11 01:08:00,
2013-02-10 20:09:00,50.0,42.0,28.67,SW,222,15.4,15.4,74,0.00,,---,0.00,VWS V14.01,2013-02-11 01:09:00,
2013-02-10 20:10:00,34.9,22.8,28.88,West,276,5.8,11.0,61,0.00,,---,0.00,VWS V14.01,2013-02-11 01:10:00,
2013-02-10 20:11:00,34.9,22.8,28.88,WSW,238,9.2,11.0,61,0.00,,---,0.00,VWS V14.01,2013-02-11 01:11:00,
2013-02-10 20:12:00,34.9,22.8,28.88,WNW,289,5.8,12.1,61,0.00,,---,0.00,VWS V14.01,2013-02-11 01:12:00,
2013-02-10 20:13:00,34.9,22.8,28.88,West,272,7.4,10.5,61,0.00,,---,0.00,VWS V14.01,2013-02-11 01:13:00,
2013-02-10 20:14:00,50.0,42.4,28.67,SW,234,6.9,11.0,75,0.00,,---,0.00,VWS V14.01,2013-02-11 01:14:00,
2013-02-10 20:15:00,34.9,22.8,28.88,WNW,290,8.7,8.7,61,0.00,,---,0.00,VWS V14.01,2013-02-11 01:15:00,
2013-02-10 20:16:00,34.9,22.8,28.88,WNW,287,7.4,10.5,61,0.00,,---,0.00,VWS V14.01,2013-02-11 01:16:00,
2013-02-10 20:17:00,34.9,23.2,28.88,WNW,303,6.7,11.0,62,0.00,,---,0.00,VWS V14.01,2013-02-11 01:17:00,
2013-02-10 20:18:00,34.9,23.2,28.88,West,276,9.6,9.6,62,0.00,,---,0.00,VWS V14.01,2013-02-11 01:18:00,
2013-02-10 20:19:00,50.0,42.4,28.67,SW,219,8.3,13.4,75,0.00,,---,0.00,VWS V14.01,2013-02-11 01:19:00,
2013-02-10 20:20:00,34.9,23.2,28.88,WNW,298,8.3,10.1,62,0.00,,---,0.00,VWS V14.01,2013-02-11 01:20:00,
2013-02-10 20:21:00,34.9,23.2,28.88,NW,312,4.9,12.1,62,0.00,,---,0.00,VWS V14.01,2013-02-11 01:21:00,
2013-02-10 20:22:00,34.9,23.2,28.88,NW,305,7.4,8.7,62,0.00,,---,0.00,VWS V14.01,2013-02-11 01:22:00,
2013-02-10 20:23:00,34.9,23.2,28.88,NW,310,6.3,11.0,62,0.00,,---,0.00,VWS V14.01,2013-02-11 01:23:00,
2013-02-10 20:24:00,49.8,42.6,28.67,SW,229,10.5,11.0,76,0.00,,---,0.00,VWS V14.01,2013-02-11 01:24:00,
2013-02-10 20:25:00,34.9,22.8,28.88,WNW,297,6.3,10.5,61,0.00,,---,0.00,VWS V14.01,2013-02-11 01:25:00,
2013-02-10 20:26:00,34.9,22.8,28.88,WNW,290,7.4,10.1,61,0.00,,---,0.00,VWS V14.01,2013-02-11 01:26:00,
2013-02-10 20:27:00,34.9,22.8,28.88,NW,324,6.9,7.4,61,0.00,,---,0.00,VWS V14.01,2013-02-11 01:27:00,
2013-02-10 20:28:00,34.9,22.8,28.88,WSW,255,5.4,9.2,61,0.00,,---,0.00,VWS V14.01,2013-02-11 01:28:00,
2013-02-10 20:29:00,49.8,42.9,28.67,SW,220,10.1,13.4,77,0.00,,---,0.00,VWS V14.01,2013-02-11 01:29:00,
2013-02-10 20:30:00,34.9,22.8,28.88,WNW,289,6.3,8.7,61,0.00,,---,0.00,VWS V14.01,2013-02-11 01:30:00,
2013-02-10 20:31:00,34.9,22.8,28.88,NNW,335,6.3,7.8,61,0.00,,---,0.00,VWS V14.01,2013-02-11 01:31:00,
2013-02-10 20:32:00,34.9,22.8,28.88,WNW,292,7.8,7.8,61,0.00,,---,0.00,VWS V14.01,2013-02-11 01:32:00,
2013-02-10 20:33:00,34.7,22.6,28.88,West,280,5.4,9.6,61,0.00,,---,0.00,VWS V14.01,2013-02-11 01:33:00,
2013-02-10 20:34:00,49.8,43.6,28.67,SSW,207,8.7,10.5,79,0.00,,---,0.00,VWS V14.01,2013-02-11 01:34:00,
2013-02-10 20:35:00,34.7,22.6,28.88,West,264,8.3,8.3,61,0.00,,---,0.00,VWS V14.01,2013-02-11 01:35:00,
2013-02-10 20:36:00,34.7,22.6,28.88,WNW,296,9.6,11.0,61,0.00,,---,0.00,VWS V14.01,2013-02-11 01:36:00,
2013-02-10 20:37:00,34.7,22.6,28.88,NW,312,7.4,9.6,61,0.00,,---,0.00,VWS V14.01,2013-02-11 01:37:00,
2013-02-10 20:38:00,34.5,22.5,28.88,NW,306,5.4,7.4,61,0.00,,---,0.00,VWS V14.01,2013-02-11 01:38:00,
2013-02-10 20:39:00,49.6,43.7,28.67,WSW,244,9.6,15.2,80,0.00,,---,0.00,VWS V14.01,2013-02-11 01:39:00,
2013-02-10 20:40:00,34.5,22.9,28.88,NW,306,8.3,10.5,62,0.00,,---,0.00,VWS V14.01,2013-02-11 01:40:00,
2013-02-10 20:41:00,34.5,22.9,28.88,NW,308,6.3,9.2,62,0.00,,---,0.00,VWS V14.01,2013-02-11 01:41:00,
2013-02-10 20:42:00,34.5,22.9,28.88,NW,311,10.1,10.1,62,0.00,,---,0.00,VWS V14.01,2013-02-11 01:42:00,
2013-02-10 20:43:00,34.5,22.9,28.88,WNW,295,6.7,10.5,62,0.00,,---,0.00,VWS V14.01,2013-02-11 01:43:00,
2013-02-10 20:44:00,49.6,44.1,28.67,SSW,195,6.9,11.2,81,0.00,,---,0.00,VWS V14.01,2013-02-11 01:44:00,
2013-02-10 20:45:00,34.5,22.5,28.88,West,274,5.8,9.2,61,0.00,,---,0.00,VWS V14.01,2013-02-11 01:45:00,
2013-02-10 20:46:00,34.5,22.9,28.88,NNW,334,7.4,7.4,62,0.00,,---,0.00,VWS V14.01,2013-02-11 01:46:00,
2013-02-10 20:47:00,34.5,22.9,28.88,NNW,342,8.7,11.0,62,0.00,,---,0.00,VWS V14.01,2013-02-11 01:47:00,
2013-02-10 20:48:00,34.3,22.3,28.88,NW,322,8.7,12.5,61,0.00,,---,0.00,VWS V14.01,2013-02-11 01:48:00,
2013-02-10 20:49:00,49.6,44.4,28.67,SW,222,7.4,11.0,82,0.00,,---,0.00,VWS V14.01,2013-02-11 01:49:00,
2013-02-10 20:50:00,34.3,22.3,28.88,WNW,283,10.5,14.8,61,0.00,,---,0.00,VWS V14.01,2013-02-11 01:50:00,
2013-02-10 20:51:00,34.3,22.3,28.88,SW,215,6.7,10.5,61,0.00,,---,0.00,VWS V14.01,2013-02-11 01:51:00,
2013-02-10 20:52:00,34.3,21.9,28.91,NNW,342,6.7,12.5,60,0.00,,---,0.00,VWS V14.01,2013-02-11 01:52:00,
2013-02-10 20:53:00,34.3,21.9,28.91,WNW,290,6.3,10.5,60,0.00,,---,0.00,VWS V14.01,2013-02-11 01:53:00,
2013-02-10 20:54:00,49.5,44.5,28.67,SSW,206,9.2,11.2,83,0.00,,---,0.00,VWS V14.01,2013-02-11 01:54:00,
2013-02-10 20:55:00,34.2,22.1,28.91,WNW,283,16.8,18.1,61,0.00,,---,0.00,VWS V14.01,2013-02-11 01:55:00,
2013-02-10 20:56:00,34.3,21.9,28.91,WNW,293,8.7,16.8,60,0.00,,---,0.00,VWS V14.01,2013-02-11 01:56:00,
2013-02-10 20:57:00,34.2,21.3,28.91,North,0,7.4,13.0,59,0.00,,---,0.00,VWS V14.01,2013-02-11 01:57:00,
2013-02-10 20:58:00,34.2,21.3,28.91,NW,308,9.6,13.0,59,0.00,,---,0.00,VWS V14.01,2013-02-11 01:58:00,
2013-02-10 20:59:00,49.5,44.8,28.67,SW,234,8.7,8.7,84,0.00,,---,0.00,VWS V14.01,2013-02-11 01:59:00,
2013-02-10 21:00:00,34.2,21.3,28.91,West,262,11.0,12.5,59,0.00,,---,0.00,VWS V14.01,2013-02-11 02:00:00,
2013-02-10 21:01:00,34.2,21.3,28.91,West,271,11.2,13.0,59,0.00,,---,0.00,VWS V14.01,2013-02-11 02:01:00,
2013-02-10 21:02:00,34.2,21.3,28.91,NW,315,9.2,12.1,59,0.00,,---,0.00,VWS V14.01,2013-02-11 02:02:00,
2013-02-10 21:03:00,34.0,21.2,28.91,NNW,332,11.2,15.2,59,0.00,,---,0.00,VWS V14.01,2013-02-11 02:03:00,
2013-02-10 21:04:00,49.5,45.2,28.67,SW,215,14.3,14.3,85,0.00,,---,0.00,VWS V14.01,2013-02-11 02:04:00,
2013-02-10 21:05:00,34.0,21.2,28.91,West,262,8.7,14.8,59,0.00,,---,0.00,VWS V14.01,2013-02-11 02:05:00,
2013-02-10 21:06:00,34.0,21.2,28.91,West,270,8.7,11.0,59,0.00,,---,0.00,VWS V14.01,2013-02-11 02:06:00,
2013-02-10 21:07:00,34.0,20.8,28.91,NW,306,12.1,13.0,58,0.00,,---,0.00,VWS V14.01,2013-02-11 02:07:00,
2013-02-10 21:08:00,34.0,20.4,28.91,WSW,250,11.0,12.1,57,0.00,,---,0.00,VWS V14.01,2013-02-11 02:08:00,
2013-02-10 21:09:00,49.5,45.5,28.67,SW,217,9.2,10.1,86,0.00,,---,0.00,VWS V14.01,2013-02-11 02:09:00,
2013-02-10 21:10:00,34.0,20.0,28.91,WNW,293,21.0,21.0,56,0.00,,---,0.00,VWS V14.01,2013-02-11 02:10:00,
2013-02-10 21:11:00,33.8,19.4,28.91,SW,236,14.3,21.0,55,0.00,,---,0.00,VWS V14.01,2013-02-11 02:11:00,
2013-02-10 21:12:00,33.8,19.4,28.91,NW,316,10.1,14.3,55,0.00,,---,0.00,VWS V14.01,2013-02-11 02:12:00,
2013-02-10 21:13:00,33.8,18.5,28.91,WNW,285,15.2,17.7,53,0.00,,---,0.00,VWS V14.01,2013-02-11 02:13:00,
2013-02-10 21:14:00,49.5,45.8,28.67,SW,219,7.4,11.2,87,0.00,,---,0.00,VWS V14.01,2013-02-11 02:14:00,
2013-02-10 21:15:00,33.8,18.0,28.91,NW,309,8.7,17.7,52,0.00,,---,0.00,VWS V14.01,2013-02-11 02:15:00,
2013-02-10 21:16:00,33.8,18.0,28.91,NW,319,9.6,10.5,52,0.00,,---,0.00,VWS V14.01,2013-02-11 02:16:00,
2013-02-10 21:17:00,33.6,17.9,28.91,WNW,287,9.6,17.2,52,0.00,,---,0.00,VWS V14.01,2013-02-11 02:17:00,
2013-02-10 21:18:00,33.6,17.9,28.91,WNW,287,10.5,13.9,52,0.00,,---,0.00,VWS V14.01,2013-02-11 02:18:00,
2013-02-10 21:19:00,49.5,46.1,28.67,SSE,153,6.9,10.1,88,0.00,,---,0.00,VWS V14.01,2013-02-11 02:19:00,
2013-02-10 21:20:00,33.6,18.3,28.91,WNW,295,9.2,12.1,53,0.00,,---,0.00,VWS V14.01,2013-02-11 02:20:00,
2013-02-10 21:21:00,33.6,18.3,28.91,WNW,295,6.3,9.2,53,0.00,,---,0.00,VWS V14.01,2013-02-11 02:21:00,
2013-02-10 21:22:00,33.6,18.3,28.91,WNW,298,12.1,15.4,53,0.00,,---,0.00,VWS V14.01,2013-02-11 02:22:00,
2013-02-10 21:23:00,33.6,18.3,28.91,West,262,9.2,12.1,53,0.00,,---,0.00,VWS V14.01,2013-02-11 02:23:00,
2013-02-10 21:24:00,49.3,45.9,28.67,WSW,237,4.5,9.6,88,0.00,,---,0.00,VWS V14.01,2013-02-11 02:24:00,
2013-02-10 21:25:00,33.4,17.7,28.91,WNW,296,12.5,15.4,52,0.00,,---,0.00,VWS V14.01,2013-02-11 02:25:00,
2013-02-10 21:26:00,33.4,17.7,28.91,NW,313,10.1,16.3,52,0.00,,---,0.00,VWS V14.01,2013-02-11 02:26:00,
2013-02-10 21:27:00,33.4,17.7,28.91,West,271,11.0,17.2,52,0.00,,---,0.00,VWS V14.01,2013-02-11 02:27:00,
2013-02-10 21:28:00,33.3,17.1,28.91,WNW,286,11.2,16.8,51,0.00,,---,0.00,VWS V14.01,2013-02-11 02:28:00,
2013-02-10 21:29:00,49.1,46.0,28.67,SW,231,4.0,9.6,89,0.00,,---,0.00,VWS V14.01,2013-02-11 02:29:00,
2013-02-10 21:30:00,33.3,17.1,28.91,West,271,10.5,15.9,51,0.00,,---,0.00,VWS V14.01,2013-02-11 02:30:00,
2013-02-10 21:31:00,33.3,17.1,28.91,West,271,8.3,14.8,51,0.00,,---,0.00,VWS V14.01,2013-02-11 02:31:00,
2013-02-10 21:32:00,33.3,17.1,28.91,WSW,245,10.1,16.3,51,0.00,,---,0.00,VWS V14.01,2013-02-11 02:32:00,
2013-02-10 21:33:00,33.3,17.1,28.91,NW,308,9.2,11.6,51,0.00,,---,0.00,VWS V14.01,2013-02-11 02:33:00,
2013-02-10 21:34:00,49.1,46.6,28.67,SSE,156,6.7,17.7,91,0.00,,---,0.00,VWS V14.01,2013-02-11 02:34:00,
2013-02-10 21:35:00,33.3,17.1,28.91,WNW,298,10.5,15.9,51,0.00,,---,0.00,VWS V14.01,2013-02-11 02:35:00,
2013-02-10 21:36:00,33.3,17.5,28.91,West,268,8.3,13.4,52,0.00,,---,0.00,VWS V14.01,2013-02-11 02:36:00,
2013-02-10 21:37:00,33.3,17.1,28.91,West,277,11.2,12.5,51,0.00,,---,0.00,VWS V14.01,2013-02-11 02:37:00,
2013-02-10 21:38:00,33.3,17.5,28.91,NW,308,6.3,11.2,52,0.00,,---,0.00,VWS V14.01,2013-02-11 02:38:00,
2013-02-10 21:39:00,48.9,46.7,28.67,SW,228,4.9,8.3,92,0.00,,---,0.00,VWS V14.01,2013-02-11 02:39:00,
2013-02-10 21:40:00,33.1,17.4,28.91,WNW,285,12.5,12.5,52,0.00,,---,0.00,VWS V14.01,2013-02-11 02:40:00,
2013-02-10 21:41:00,33.1,17.4,28.91,NW,312,10.1,15.9,52,0.00,,---,0.00,VWS V14.01,2013-02-11 02:41:00,
2013-02-10 21:42:00,33.1,17.4,28.91,West,278,10.5,16.8,52,0.00,,---,0.00,VWS V14.01,2013-02-11 02:42:00,
2013-02-10 21:43:00,33.1,17.4,28.91,NW,319,9.6,15.2,52,0.00,,---,0.00,VWS V14.01,2013-02-11 02:43:00,
2013-02-10 21:44:00,49.1,47.2,28.67,SW,234,10.5,12.5,93,0.00,,---,0.00,VWS V14.01,2013-02-11 02:44:00,
2013-02-10 21:45:00,33.1,17.4,28.91,NW,314,9.6,9.6,52,0.00,,---,0.00,VWS V14.01,2013-02-11 02:45:00,
2013-02-10 21:46:00,33.1,17.4,28.91,NW,315,9.6,12.1,52,0.00,,---,0.00,VWS V14.01,2013-02-11 02:46:00,
2013-02-10 21:47:00,33.1,17.4,28.91,WNW,299,11.0,11.0,52,0.00,,---,0.00,VWS V14.01,2013-02-11 02:47:00,
2013-02-10 21:48:00,33.1,17.8,28.91,South,187,6.3,11.0,53,0.00,,---,0.00,VWS V14.01,2013-02-11 02:48:00,
2013-02-10 21:49:00,49.1,47.5,28.67,SSW,209,8.7,13.4,94,0.00,,---,0.00,VWS V14.01,2013-02-11 02:49:00,
2013-02-10 21:50:00,32.9,17.7,28.91,WNW,299,12.1,15.9,53,0.00,,---,0.00,VWS V14.01,2013-02-11 02:50:00,
2013-02-10 21:51:00,32.9,17.2,28.91,WNW,287,7.8,12.1,52,0.00,,---,0.00,VWS V14.01,2013-02-11 02:51:00,
2013-02-10 21:52:00,32.9,17.7,28.91,WNW,288,13.4,13.4,53,0.00,,---,0.00,VWS V14.01,2013-02-11 02:52:00,
2013-02-10 21:53:00,32.9,17.2,28.91,WNW,292,7.8,13.4,52,0.00,,---,0.00,VWS V14.01,2013-02-11 02:53:00,
2013-02-10 21:54:00,48.9,47.5,28.67,South,180,7.4,8.7,95,0.00,,---,0.00,VWS V14.01,2013-02-11 02:54:00,
2013-02-10 21:55:00,32.9,17.7,28.91,NW,319,11.0,15.2,53,0.00,,---,0.00,VWS V14.01,2013-02-11 02:55:00,
2013-02-10 21:56:00,32.9,17.7,28.91,WNW,296,8.7,12.1,53,0.00,,---,0.00,VWS V14.01,2013-02-11 02:56:00,
2013-02-10 21:57:00,32.9,17.7,28.91,WNW,293,13.0,15.4,53,0.00,,---,0.00,VWS V14.01,2013-02-11 02:57:00,
2013-02-10 21:58:00,32.9,17.7,28.91,WSW,249,10.5,13.9,53,0.00,,---,0.00,VWS V14.01,2013-02-11 02:58:00,
2013-02-10 21:59:00,48.9,47.5,28.67,SW,215,5.4,8.3,95,0.00,,---,0.00,VWS V14.01,2013-02-11 02:59:00,
2013-02-10 22:00:00,32.9,17.7,28.91,WNW,297,13.4,15.4,53,0.00,,---,0.00,VWS V14.01,2013-02-11 03:00:00,
2013-02-10 22:01:00,32.9,17.7,28.91,West,275,13.0,13.4,53,0.00,,---,0.00,VWS V14.01,2013-02-11 03:01:00,
2013-02-10 22:02:00,32.9,17.7,28.91,NNW,329,8.3,18.1,53,0.00,,---,0.00,VWS V14.01,2013-02-11 03:02:00,
2013-02-10 22:03:00,32.7,17.5,28.91,NW,313,13.4,13.4,53,0.00,,---,0.00,VWS V14.01,2013-02-11 03:03:00,
2013-02-10 22:04:00,49.1,47.7,28.67,SW,235,4.0,7.8,95,0.00,,---,0.00,VWS V14.01,2013-02-11 03:04:00,
2013-02-10 22:05:00,32.7,17.9,28.91,NW,315,7.4,10.5,54,0.00,,---,0.00,VWS V14.01,2013-02-11 03:05:00,
2013-02-10 22:06:00,32.7,17.9,28.91,West,261,10.5,11.2,54,0.00,,---,0.00,VWS V14.01,2013-02-11 03:06:00,
2013-02-10 22:07:00,32.7,17.9,28.91,WNW,298,6.9,14.3,54,0.00,,---,0.00,VWS V14.01,2013-02-11 03:07:00,
2013-02-10 22:08:00,32.7,17.9,28.91,WNW,287,11.2,12.1,54,0.00,,---,0.00,VWS V14.01,2013-02-11 03:08:00,
2013-02-10 22:09:00,48.9,47.8,28.67,South,181,6.3,9.6,96,0.00,,---,0.00,VWS V14.01,2013-02-11 03:09:00,
2013-02-10 22:10:00,32.5,18.2,28.91,West,278,15.2,15.2,55,0.00,,---,0.00,VWS V14.01,2013-02-11 03:10:00,
2013-02-10 22:11:00,32.5,18.2,28.91,WNW,290,6.7,15.4,55,0.00,,---,0.00,VWS V14.01,2013-02-11 03:11:00,
2013-02-10 22:12:00,32.5,18.2,28.91,West,259,8.3,11.0,55,0.00,,---,0.00,VWS V14.01,2013-02-11 03:12:00,
2013-02-10 22:13:00,32.5,18.2,28.91,WSW,243,13.0,14.3,55,0.00,,---,0.00,VWS V14.01,2013-02-11 03:13:00,
2013-02-10 22:14:00,48.9,47.8,28.67,SW,223,5.8,9.6,96,0.00,,---,0.00,VWS V14.01,2013-02-11 03:14:00,
2013-02-10 22:15:00,32.5,18.6,28.91,West,269,8.7,11.6,56,0.00,,---,0.00,VWS V14.01,2013-02-11 03:15:00,
2013-02-10 22:16:00,32.5,18.6,28.91,NW,304,8.7,12.1,56,0.00,,---,0.00,VWS V14.01,2013-02-11 03:16:00,
2013-02-10 22:17:00,32.4,18.4,28.91,NW,304,4.0,11.2,56,0.00,,---,0.00,VWS V14.01,2013-02-11 03:17:00,
2013-02-10 22:18:00,32.4,18.8,28.91,WNW,302,11.6,12.5,57,0.00,,---,0.00,VWS V14.01,2013-02-11 03:18:00,
2013-02-10 22:19:00,48.9,47.8,28.67,SW,222,6.9,9.6,96,0.00,,---,0.00,VWS V14.01,2013-02-11 03:19:00,
2013-02-10 22:20:00,32.4,18.8,28.91,NW,320,4.9,14.8,57,0.00,,---,0.00,VWS V14.01,2013-02-11 03:20:00,
2013-02-10 22:21:00,32.2,18.7,28.91,NNW,328,8.7,11.2,57,0.00,,---,0.00,VWS V14.01,2013-02-11 03:21:00,
2013-02-10 22:22:00,32.4,18.8,28.91,WNW,303,8.3,14.8,57,0.00,,---,0.00,VWS V14.01,2013-02-11 03:22:00,
2013-02-10 22:23:00,32.4,18.8,28.91,West,267,10.5,14.3,57,0.00,,---,0.00,VWS V14.01,2013-02-11 03:23:00,
2013-02-10 22:24:00,49.1,48.3,28.67,SW,229,6.3,8.7,97,0.00,,---,0.00,VWS V14.01,2013-02-11 03:24:00,
2013-02-10 22:25:00,32.4,18.8,28.91,WNW,298,6.7,11.2,57,0.00,,---,0.00,VWS V14.01,2013-02-11 03:25:00,
2013-02-10 22:26:00,32.4,18.8,28.91,NW,305,9.2,9.2,57,0.00,,---,0.00,VWS V14.01,2013-02-11 03:26:00,
2013-02-10 22:27:00,32.4,18.8,28.91,West,262,8.3,12.1,57,0.00,,---,0.00,VWS V14.01,2013-02-11 03:27:00,
2013-02-10 22:28:00,32.4,18.8,28.91,WNW,288,15.9,15.9,57,0.00,,---,0.00,VWS V14.01,2013-02-11 03:28:00,
2013-02-10 22:29:00,49.3,48.5,28.67,SW,229,4.9,9.6,97,0.00,,---,0.00,VWS V14.01,2013-02-11 03:29:00,
2013-02-10 22:30:00,32.5,18.6,28.91,WNW,284,8.3,18.6,56,0.00,,---,0.00,VWS V14.01,2013-02-11 03:30:00,
2013-02-10 22:31:00,32.5,18.6,28.91,WNW,301,8.3,14.3,56,0.00,,---,0.00,VWS V14.01,2013-02-11 03:31:00,
2013-02-10 22:32:00,32.4,18.4,28.91,WNW,286,6.3,8.7,56,0.00,,---,0.00,VWS V14.01,2013-02-11 03:32:00,
2013-02-10 22:33:00,32.4,18.4,28.91,NW,310,13.9,14.3,56,0.00,,---,0.00,VWS V14.01,2013-02-11 03:33:00,
2013-02-10 22:34:00,49.5,48.7,28.67,SSE,161,8.7,11.0,97,0.00,,---,0.00,VWS V14.01,2013-02-11 03:34:00,
2013-02-10 22:35:00,32.4,18.4,28.91,West,261,12.5,18.1,56,0.00,,---,0.00,VWS V14.01,2013-02-11 03:35:00,
2013-02-10 22:36:00,32.5,18.6,28.91,WNW,303,9.6,13.0,56,0.00,,---,0.00,VWS V14.01,2013-02-11 03:36:00,
2013-02-10 22:37:00,32.4,18.4,28.91,NNW,332,11.0,13.0,56,0.00,,---,0.00,VWS V14.01,2013-02-11 03:37:00,
2013-02-10 22:38:00,32.4,18.4,28.91,WNW,302,7.8,13.0,56,0.00,,---,0.00,VWS V14.01,2013-02-11 03:38:00,
2013-02-10 22:39:00,49.5,48.7,28.67,South,186,4.0,7.8,97,0.00,,---,0.00,VWS V14.01,2013-02-11 03:39:00,
2013-02-10 22:40:00,32.5,18.6,28.91,WNW,284,12.5,18.1,56,0.00,,---,0.00,VWS V14.01,2013-02-11 03:40:00,
2013-02-10 22:41:00,32.5,18.6,28.91,West,279,12.1,16.3,56,0.00,,---,0.00,VWS V14.01,2013-02-11 03:41:00,
2013-02-10 22:42:00,32.5,18.2,28.91,WNW,300,9.2,12.1,55,0.00,,---,0.00,VWS V14.01,2013-02-11 03:42:00,
2013-02-10 22:43:00,32.5,18.6,28.91,WNW,291,5.4,9.6,56,0.00,,---,0.00,VWS V14.01,2013-02-11 03:43:00,
2013-02-10 22:44:00,49.5,48.7,28.67,South,186,5.8,12.1,97,0.00,,---,0.00,VWS V14.01,2013-02-11 03:44:00,
2013-02-10 22:45:00,32.4,18.4,28.91,WNW,293,7.8,9.6,56,0.00,,---,0.00,VWS V14.01,2013-02-11 03:45:00,
2013-02-10 22:46:00,32.4,18.8,28.91,NW,318,15.2,15.9,57,0.00,,---,0.00,VWS V14.01,2013-02-11 03:46:00,
2013-02-10 22:47:00,32.5,19.0,28.91,WSW,256,7.4,15.9,57,0.00,,---,0.00,VWS V14.01,2013-02-11 03:47:00,
2013-02-10 22:48:00,32.5,19.0,28.91,WNW,290,13.0,13.0,57,0.00,,---,0.00,VWS V14.01,2013-02-11 03:48:00,
2013-02-10 22:49:00,49.5,48.7,28.67,SW,227,8.3,11.0,97,0.00,,---,0.00,VWS V14.01,2013-02-11 03:49:00,
2013-02-10 22:50:00,32.5,18.6,28.91,NW,318,8.7,13.4,56,0.00,,---,0.00,VWS V14.01,2013-02-11 03:50:00,
2013-02-10 22:51:00,32.5,18.6,28.91,West,275,6.9,8.7,56,0.00,,---,0.00,VWS V14.01,2013-02-11 03:51:00,
2013-02-10 22:52:00,32.4,18.4,28.91,West,272,11.2,11.2,56,0.00,,---,0.00,VWS V14.01,2013-02-11 03:52:00,
2013-02-10 22:53:00,32.4,18.4,28.91,WNW,294,10.1,13.4,56,0.00,,---,0.00,VWS V14.01,2013-02-11 03:53:00,
2013-02-10 22:54:00,49.6,48.8,28.67,SSW,212,6.3,11.2,97,0.00,,---,0.00,VWS V14.01,2013-02-11 03:54:00,
2013-02-10 22:55:00,32.2,18.7,28.91,WNW,301,4.5,6.9,57,0.00,,---,0.00,VWS V14.01,2013-02-11 03:55:00,
2013-02-10 22:56:00,32.2,18.7,28.91,WNW,301,6.7,12.1,57,0.00,,---,0.00,VWS V14.01,2013-02-11 03:56:00,
2013-02-10 22:57:00,32.2,18.7,28.91,WNW,302,7.4,11.0,57,0.00,,---,0.00,VWS V14.01,2013-02-11 03:57:00,
2013-02-10 22:58:00,32.4,18.8,28.91,WSW,253,11.2,13.0,57,0.00,,---,0.00,VWS V14.01,2013-02-11 03:58:00,
2013-02-10 22:59:00,49.6,48.8,28.64,SW,230,7.8,10.1,97,0.00,,---,0.00,VWS V14.01,2013-02-11 03:59:00,
2013-02-10 23:00:00,32.5,19.0,28.91,WNW,282,5.4,13.9,57,0.00,,---,0.00,VWS V14.01,2013-02-11 04:00:00,
2013-02-10 23:01:00,32.5,19.0,28.91,NW,320,9.6,9.6,57,0.00,,---,0.00,VWS V14.01,2013-02-11 04:01:00,
2013-02-10 23:02:00,32.4,18.8,28.91,WNW,285,14.8,14.8,57,0.00,,---,0.00,VWS V14.01,2013-02-11 04:02:00,
2013-02-10 23:03:00,32.4,18.8,28.91,NW,305,13.4,14.8,57,0.00,,---,0.00,VWS V14.01,2013-02-11 04:03:00,
2013-02-10 23:04:00,49.6,48.8,28.64,South,172,9.2,13.4,97,0.00,,---,0.00,VWS V14.01,2013-02-11 04:04:00,
2013-02-10 23:05:00,32.4,18.8,28.91,NW,314,8.3,11.6,57,0.00,,---,0.00,VWS V14.01,2013-02-11 04:05:00,
2013-02-10 23:06:00,32.4,18.8,28.91,WNW,293,7.4,10.1,57,0.00,,---,0.00,VWS V14.01,2013-02-11 04:06:00,
2013-02-10 23:07:00,32.4,18.8,28.91,NW,323,9.2,12.5,57,0.00,,---,0.00,VWS V14.01,2013-02-11 04:07:00,
2013-02-10 23:08:00,32.4,18.8,28.91,West,279,5.8,11.6,57,0.00,,---,0.00,VWS V14.01,2013-02-11 04:08:00,
2013-02-10 23:09:00,49.6,48.8,28.64,WSW,239,5.4,10.1,97,0.00,,---,0.00,VWS V14.01,2013-02-11 04:09:00,
2013-02-10 23:10:00,32.2,19.1,28.91,West,267,7.4,8.7,58,0.00,,---,0.00,VWS V14.01,2013-02-11 04:10:00,
2013-02-10 23:11:00,32.2,19.1,28.91,SW,234,7.8,11.6,58,0.00,,---,0.00,VWS V14.01,2013-02-11 04:11:00,
2013-02-10 23:12:00,32.2,19.1,28.91,WNW,301,9.6,12.1,58,0.00,,---,0.00,VWS V14.01,2013-02-11 04:12:00,
2013-02-10 23:13:00,32.2,19.1,28.91,NW,312,12.1,12.5,58,0.00,,---,0.00,VWS V14.01,2013-02-11 04:13:00,
2013-02-10 23:14:00,49.6,48.8,28.64,SSW,209,10.1,10.5,97,0.00,,---,0.00,VWS V14.01,2013-02-11 04:14:00,
2013-02-10 23:15:00,32.2,19.1,28.91,West,281,9.2,10.1,58,0.00,,---,0.00,VWS V14.01,2013-02-11 04:15:00,
2013-02-10 23:16:00,32.2,19.1,28.91,WNW,285,5.4,11.6,58,0.00,,---,0.00,VWS V14.01,2013-02-11 04:16:00,
2013-02-10 23:17:00,32.2,19.5,28.91,West,273,5.4,13.4,59,0.00,,---,0.00,VWS V14.01,2013-02-11 04:17:00,
2013-02-10 23:18:00,32.2,19.5,28.91,NW,322,10.5,13.0,59,0.00,,---,0.00,VWS V14.01,2013-02-11 04:18:00,
2013-02-10 23:19:00,49.6,48.8,28.64,SW,231,7.4,9.2,97,0.00,,---,0.00,VWS V14.01,2013-02-11 04:19:00,
2013-02-10 23:20:00,32.0,19.3,28.91,WNW,285,4.5,12.1,59,0.00,,---,0.00,VWS V14.01,2013-02-11 04:20:00,
2013-02-10 23:21:00,32.0,19.3,28.91,West,262,9.6,10.1,59,0.00,,---,0.00,VWS V14.01,2013-02-11 04:21:00,
2013-02-10 23:22:00,32.0,19.3,28.91,NW,307,8.3,11.0,59,0.00,,---,0.00,VWS V14.01,2013-02-11 04:22:00,
2013-02-10 23:23:00,32.0,19.7,28.91,WNW,287,8.7,11.2,60,0.00,,---,0.00,VWS V14.01,2013-02-11 04:23:00,
2013-02-10 23:24:00,49.6,48.8,28.64,South,187,5.8,10.5,97,0.00,,---,0.00,VWS V14.01,2013-02-11 04:24:00,
2013-02-10 23:25:00,31.8,19.5,28.91,WNW,295,8.3,8.3,60,0.00,,---,0.00,VWS V14.01,2013-02-11 04:25:00,
2013-02-10 23:26:00,31.8,19.5,28.91,NW,318,10.5,13.0,60,0.00,,---,0.00,VWS V14.01,2013-02-11 04:26:00,
2013-02-10 23:27:00,31.8,19.5,28.91,NW,317,5.4,10.5,60,0.00,,---,0.00,VWS V14.01,2013-02-11 04:27:00,
2013-02-10 23:28:00,31.8,19.5,28.91,WNW,300,11.2,15.4,60,0.00,,---,0.00,VWS V14.01,2013-02-11 04:28:00,
2013-02-10 23:29:00,49.6,48.8,28.64,SW,225,5.4,6.9,97,0.00,,---,0.00,VWS V14.01,2013-02-11 04:29:00,
2013-02-10 23:30:00,31.8,19.5,28.91,WNW,297,11.0,13.9,60,0.00,,---,0.00,VWS V14.01,2013-02-11 04:30:00,
2013-02-10 23:31:00,31.8,19.5,28.91,WNW,283,10.5,11.0,60,0.00,,---,0.00,VWS V14.01,2013-02-11 04:31:00,
2013-02-10 23:32:00,31.8,19.5,28.91,West,279,11.2,11.2,60,0.00,,---,0.00,VWS V14.01,2013-02-11 04:32:00,
2013-02-10 23:33:00,31.8,19.5,28.91,WNW,294,5.4,11.2,60,0.00,,---,0.00,VWS V14.01,2013-02-11 04:33:00,
2013-02-10 23:34:00,49.6,48.8,28.64,SSW,197,5.8,6.9,97,0.00,,---,0.00,VWS V14.01,2013-02-11 04:34:00,
2013-02-10 23:36:00,31.8,19.9,28.91,NNW,332,11.6,11.6,61,0.00,,---,0.00,VWS V14.01,2013-02-11 04:36:00,
2013-02-10 23:37:00,31.8,19.9,28.94,WNW,298,5.4,13.0,61,0.00,,---,0.00,VWS V14.01,2013-02-11 04:37:00,
2013-02-10 23:39:00,49.6,48.8,28.64,SE,145,5.8,7.4,97,0.00,,---,0.00,VWS V14.01,2013-02-11 04:39:00,
2013-02-10 23:40:00,31.8,19.5,28.94,WNW,291,12.5,13.9,60,0.00,,---,0.00,VWS V14.01,2013-02-11 04:40:00,
2013-02-10 23:41:00,31.8,19.5,28.94,WNW,300,10.1,13.9,60,0.00,,---,0.00,VWS V14.01,2013-02-11 04:41:00,
2013-02-10 23:42:00,31.8,19.5,28.94,NW,309,7.4,15.2,60,0.00,,---,0.00,VWS V14.01,2013-02-11 04:42:00,
2013-02-10 23:44:00,49.6,48.8,28.64,SSE,163,4.0,6.9,97,0.00,,---,0.00,VWS V14.01,2013-02-11 04:44:00,
2013-02-10 23:45:00,31.8,19.1,28.94,NW,312,5.8,11.2,59,0.00,,---,0.00,VWS V14.01,2013-02-11 04:45:00,
2013-02-10 23:47:00,31.6,19.0,28.94,WNW,299,6.3,7.4,59,0.00,,---,0.00,VWS V14.01,2013-02-11 04:47:00,
2013-02-10 23:48:00,31.6,19.4,28.94,WNW,289,7.4,12.5,60,0.00,,---,0.00,VWS V14.01,2013-02-11 04:48:00,
2013-02-10 23:49:00,49.8,49.0,28.64,SW,222,7.4,8.7,97,0.00,,---,0.00,VWS V14.01,2013-02-11 04:49:00,
2013-02-10 23:50:00,31.6,19.4,28.94,NW,306,8.7,8.7,60,0.00,,---,0.00,VWS V14.01,2013-02-11 04:50:00,
2013-02-10 23:51:00,31.6,19.4,28.94,NW,307,7.8,17.2,60,0.00,,---,0.00,VWS V14.01,2013-02-11 04:51:00,
2013-02-10 23:52:00,31.6,19.4,28.94,NW,304,7.4,11.0,60,0.00,,---,0.00,VWS V14.01,2013-02-11 04:52:00,
2013-02-10 23:53:00,31.6,19.4,28.94,NW,307,6.7,15.4,60,0.00,,---,0.00,VWS V14.01,2013-02-11 04:53:00,
2013-02-10 23:54:00,49.8,49.0,28.64,SW,218,6.3,10.1,97,0.00,,---,0.00,VWS V14.01,2013-02-11 04:54:00,
2013-02-10 23:55:00,31.6,19.4,28.94,WNW,287,13.4,15.4,60,0.00,,---,0.00,VWS V14.01,2013-02-11 04:55:00,
2013-02-10 23:56:00,31.6,19.4,28.94,WNW,291,12.1,13.4,60,0.00,,---,0.00,VWS V14.01,2013-02-11 04:56:00,
2013-02-10 23:57:00,31.6,19.4,28.94,WNW,302,9.6,13.0,60,0.00,,---,0.00,VWS V14.01,2013-02-11 04:57:00,
2013-02-10 23:58:00,31.6,19.4,28.94,NW,313,12.1,12.1,60,0.00,,---,0.00,VWS V14.01,2013-02-11 04:58:00,
2013-02-10 23:59:00,31.6,19.4,28.94,WNW,299,7.4,12.1,60,0.00,,---,0.00,VWS V14.01,2013-02-11 04:59:00,